[[{"header":{"parameterUnit":"m.s-1","parameterCategory":1,"la1":31.0,"la2":29.5877,"lo1":-88.7671,"lo2":-86.6584,"dy":0.0162,"dx":0.0185,"nx":115,"ny":88,"refTime":"2023-08-10T06:00:00:Z","depth":0,"parameterNumber":2,"parameterNumberName":"U-component_of_WINDS"},"data":[0.0,0.0,0.0,0.0,0.0,0.0,0.0,0.0,0.0,0.0,0.0,0.0,0.0,0.0,0.0,0.0,0.0,0.0,0.0,0.0,0.0,0.0,0.0,0.0,0.0,0.0,0.0,0.0,0.0,0.0,0.0,0.0,0.0,0.0,0.0,0.0,0.0,0.0,0.0,0.0,0.0,0.0,0.0,0.0,0.0,0.0,0.0,0.0,0.0,0.0,0.0,0.0,0.0,0.0,0.0,0.0,0.0,0.0,0.0,0.0,0.0,0.0,0.0,0.0,0.0,0.0,0.0,0.0,0.0,0.0,0.0,0.0,0.0,0.0,0.0,0.0,0.0,0.0,0.0,0.0,0.0,0.0,0.0,0.0,0.0,0.0,0.0,0.0,0.0,0.0,0.0,0.0,0.0,0.0,0.0,0.0,0.0,0.0,0.0,0.0,0.0,0.0,0.0,0.0,0.0,0.0,0.0,0.0,0.0,0.0,0.0,0.0,0.0,0.0,0.0,0.0,0.0,0.0,0.0,0.0,0.0,0.0,0.0,0.0,0.0,0.0,0.0,0.0,0.0,0.0,0.0,0.0,0.0,0.0,0.0,0.0,0.0,0.0,0.0,0.0,0.0,0.0,0.0,0.0,0.0,0.0,0.0,0.0,0.0,0.0,0.0,0.0,0.0,0.0,0.0,0.0,0.0,0.0,0.0,0.0,0.0,0.0,0.0,0.0,0.0,0.0,0.0,0.0,0.0,0.0,0.0,0.0,0.0,0.0,0.0,0.0,0.0,0.0,0.0,0.0,0.0,0.0,0.0,0.0,0.0,0.0,0.0,0.0,0.0,0.0,0.0,0.0,0.0,0.0,0.0,0.0,0.0,0.0,0.0,0.0,0.0,0.0,0.0,0.0,0.0,0.0,0.0,0.0,0.0,0.0,0.0,0.0,0.0,0.0,0.0,0.0,0.0,0.0,0.0,0.0,0.0,0.0,0.0,0.0,0.0,0.0,0.0,0.0,0.0,0.0,0.0,0.0,0.0,0.0,0.0,0.0,0.0,0.0,0.0,0.0,0.0,0.0,0.0,0.0,0.0,0.0,0.0,0.0,0.0,0.0,0.0,0.0,0.0,0.0,0.0,0.0,0.0,0.0,0.0,0.0,0.0,0.0,0.0,0.0,0.0,0.0,0.0,0.0,0.0,0.0,0.0,0.0,0.0,0.0,0.0,0.0,0.0,0.0,0.0,0.0,0.0,0.0,0.0,0.0,0.0,0.0,0.0,0.0,0.0,0.0,0.0,0.0,0.0,0.0,0.0,0.0,0.0,0.0,0.0,0.0,0.0,0.0,0.0,0.0,0.0,0.0,0.0,0.0,0.0,0.0,0.0,0.0,0.0,0.0,0.0,0.0,0.0,0.0,0.0,0.0,0.0,0.0,0.0,0.0,0.0,0.0,0.0,0.0,0.0,0.0,0.0,0.0,0.0,0.0,0.0,0.0,0.0,0.0,0.0,0.0,0.0,0.0,0.0,0.0,0.0,0.0,0.0,0.0,0.0,0.0,0.0,0.0,0.0,0.0,0.0,0.0,0.0,0.0,0.0,0.0,0.0,0.0,0.0,0.0,0.0,0.0,0.0,0.0,0.0,0.0,0.0,0.0,0.0,0.0,0.0,0.0,0.0,0.0,0.0,0.0,0.0,0.0,0.0,0.0,0.0,0.0,0.0,0.0,0.0,0.0,0.0,0.0,0.0,0.0,0.0,0.0,0.0,0.0,0.0,0.0,0.0,0.0,0.0,0.0,0.0,0.0,0.0,0.0,0.0,0.0,0.0,0.0,0.0,0.0,0.0,0.0,0.0,0.0,0.0,0.0,0.0,0.0,0.0,0.0,0.0,0.0,0.0,0.0,0.0,0.0,0.0,0.0,0.0,0.0,0.0,0.0,0.0,0.0,0.0,0.0,0.0,0.0,0.0,0.0,0.0,0.0,0.0,0.0,0.0,0.0,0.0,0.0,0.0,0.0,0.0,0.0,0.0,0.0,0.0,0.0,0.0,0.0,0.0,0.0,0.0,0.0,0.0,0.0,0.0,0.0,0.0,0.0,0.0,0.0,0.0,0.0,0.0,0.0,0.0,0.0,0.0,0.0,0.0,0.0,0.0,0.0,0.0,0.0,0.0,0.0,0.0,0.0,0.0,0.0,0.0,0.0,0.0,0.0,0.0,0.0,0.0,0.0,0.0,0.0,0.0,0.0,0.0,0.0,0.0,0.0,0.0,0.0,0.0,0.0,0.0,0.0,0.0,0.0,0.0,0.0,0.0,0.0,0.0,0.0,0.0,0.0,0.0,0.0,0.0,0.0,0.0,0.0,0.0,0.0,0.0,0.0,0.0,0.0,0.0,0.0,0.0,0.0,0.0,0.0,0.0,0.0,0.0,0.0,0.0,0.0,0.0,0.0,0.0,0.0,0.0,0.0,0.0,0.0,0.0,0.0,0.0,0.0,0.0,0.0,0.0,0.0,0.0,0.0,0.0,0.0,0.0,0.0,0.0,0.0,0.0,0.0,0.0,0.0,0.0,0.0,0.0,0.0,0.0,0.0,0.0,0.0,0.0,0.0,0.0,0.0,0.0,0.0,0.0,0.0,0.0,0.0,0.0,0.0,0.0,0.0,0.0,0.0,0.0,0.0,0.0,0.0,0.0,0.0,0.0,0.0,0.0,0.0,0.0,0.0,0.0,0.0,0.0,0.0,0.0,0.0,0.0,0.0,0.0,0.0,0.0,0.0,0.0,0.0,0.0,0.0,0.0,0.0,0.0,0.0,0.0,0.0,0.0,0.0,0.0,0.0,0.0,0.0,0.0,0.0,0.0,0.0,0.0,0.0,0.0,0.0,0.0,0.0,0.0,0.0,0.0,0.0,0.0,0.0,0.0,0.0,0.0,0.0,0.0,0.0,0.0,0.0,0.0,0.0,0.0,0.0,0.0,0.0,0.0,0.0,0.0,0.0,0.0,0.0,0.0,0.0,0.0,0.0,0.0,0.0,0.0,0.0,0.0,0.0,0.0,0.0,0.0,0.0,0.0,0.0,0.0,0.0,0.0,0.0,0.0,0.0,0.0,0.0,0.0,0.0,0.0,0.0,0.0,0.0,0.0,0.0,0.0,0.0,0.0,0.0,0.0,0.0,0.0,0.0,0.0,0.0,0.0,0.0,0.0,0.0,0.0,0.0,0.0,0.0,0.0,0.0,0.0,0.0,0.0,0.0,0.0,0.0,0.0,0.0,0.0,0.0,0.0,0.0,0.0,0.0,0.0,0.0,0.0,0.0,0.0,0.0,0.0,0.0,0.0,0.0,0.0,0.0,0.0,0.0,0.0,0.0,0.0,0.0,0.0,0.0,0.0,0.0,0.0,0.0,0.0,0.0,0.0,0.0,0.0,0.0,0.0,0.0,0.0,0.0,0.0,0.0,0.0,0.0,0.0,0.0,0.0,0.0,0.0,0.0,0.0,0.0,0.0,0.0,0.0,0.0,0.0,0.0,0.0,0.0,0.0,0.0,0.0,0.0,0.0,0.0,0.0,0.0,0.0,0.0,0.0,0.0,0.0,0.0,0.0,0.0,0.0,0.0,0.0,0.0,0.0,0.0,0.0,0.0,0.0,0.0,0.0,0.0,0.0,0.0,0.0,0.0,0.0,0.0,0.0,0.0,0.0,0.0,0.0,0.0,0.0,0.0,0.0,0.0,0.0,0.0,0.0,0.0,0.0,0.0,0.0,0.0,0.0,0.0,0.0,0.0,0.0,0.0,0.0,0.0,0.0,0.0,0.0,0.0,0.0,0.0,0.0,0.0,0.0,0.0,0.0,0.0,0.0,0.0,0.0,0.0,0.0,0.0,0.0,0.0,0.0,0.0,0.0,0.0,0.0,0.0,0.0,0.0,0.0,0.0,0.0,0.0,0.0,0.0,0.0,0.0,0.0,0.0,0.0,0.0,0.0,0.0,0.0,0.0,0.0,0.0,0.0,0.0,0.0,0.0,0.0,0.0,0.0,0.0,0.0,0.0,0.0,0.0,0.0,0.0,0.0,0.0,0.0,0.0,0.0,0.0,0.0,0.0,0.0,0.0,0.0,0.0,0.0,0.0,0.0,0.0,0.0,0.0,0.0,0.0,0.0,0.0,0.0,0.0,0.0,0.0,0.0,0.0,0.0,0.0,0.0,0.0,0.0,0.0,0.0,0.0,0.0,0.0,0.0,0.0,0.0,0.0,0.0,0.0,0.0,0.0,0.0,0.0,-1.4825,0.0,0.0,0.0,0.0,0.0,0.0,0.0,0.0,0.0,0.0,0.0,0.0,0.0,0.0,0.0,0.0,0.0,0.0,0.0,0.0,0.0,0.0,0.0,0.0,0.0,0.0,0.0,0.0,0.0,0.0,0.0,0.0,0.0,0.0,0.0,0.0,0.0,0.0,0.0,0.0,0.0,0.0,0.0,0.0,0.0,0.0,0.0,0.0,0.0,0.0,0.0,0.0,0.0,0.0,0.0,0.0,0.0,0.0,0.0,0.0,0.0,0.0,0.0,0.0,0.0,0.0,0.0,0.0,0.0,0.0,0.0,0.0,0.0,0.0,0.0,0.0,0.0,0.0,0.0,0.0,0.0,0.0,0.0,0.0,0.0,0.0,0.0,0.0,0.0,0.0,0.0,0.0,0.0,0.0,0.0,0.0,0.0,0.0,0.0,0.0,0.0,0.0,0.0,0.0,0.0,0.0,0.0,0.0,0.0,0.0,-1.4176,-1.427,-1.4413,-1.4495,-1.4574,0.0,0.0,0.0,0.0,0.0,0.0,0.0,0.0,0.0,0.0,0.0,0.0,0.0,0.0,0.0,0.0,0.0,0.0,0.0,0.0,0.0,0.0,0.0,0.0,0.0,0.0,0.0,0.0,0.0,0.0,0.0,0.0,0.0,0.0,0.0,0.0,0.0,0.0,0.0,0.0,0.0,0.0,0.0,0.0,0.0,0.0,0.0,0.0,0.0,0.0,0.0,0.0,0.0,0.0,0.0,0.0,0.0,0.0,0.0,0.0,0.0,0.0,0.0,0.0,0.0,0.0,0.0,0.0,0.0,0.0,0.0,0.0,0.0,0.0,0.0,0.0,0.0,0.0,0.0,0.0,0.0,0.0,0.0,0.0,0.0,0.0,0.0,0.0,0.0,0.0,0.0,0.0,0.0,0.0,0.0,0.0,0.0,0.0,0.0,0.0,0.0,0.0,0.0,0.0,0.0,0.0,0.0,0.0,0.0,0.0,0.0,0.0,-1.4206,-1.427,-1.4365,0.0,0.0,0.0,0.0,0.0,0.0,0.0,0.0,0.0,0.0,0.0,0.0,0.0,0.0,0.0,0.0,0.0,0.0,0.0,0.0,0.0,0.0,0.0,0.0,0.0,0.0,0.0,0.0,0.0,0.0,0.0,0.0,0.0,0.0,0.0,0.0,0.0,0.0,0.0,0.0,0.0,0.0,0.0,0.0,0.0,0.0,0.0,0.0,0.0,0.0,0.0,0.0,0.0,0.0,0.0,0.0,0.0,0.0,0.0,0.0,0.0,0.0,0.0,0.0,0.0,0.0,0.0,0.0,0.0,0.0,0.0,0.0,0.0,0.0,0.0,0.0,0.0,0.0,0.0,0.0,0.0,0.0,0.0,0.0,0.0,0.0,0.0,0.0,0.0,0.0,0.0,0.0,0.0,0.0,0.0,0.0,0.0,0.0,0.0,0.0,0.0,0.0,0.0,0.0,0.0,0.0,0.0,0.0,0.0,0.0,-1.3854,-1.3937,-1.3997,0.0,-1.4206,0.0,0.0,0.0,0.0,0.0,0.0,0.0,0.0,0.0,0.0,0.0,0.0,0.0,0.0,0.0,0.0,0.0,0.0,0.0,0.0,0.0,0.0,0.0,0.0,0.0,0.0,0.0,0.0,0.0,0.0,0.0,0.0,0.0,0.0,0.0,0.0,0.0,0.0,0.0,0.0,0.0,0.0,0.0,0.0,0.0,0.0,0.0,0.0,0.0,0.0,0.0,0.0,0.0,0.0,0.0,0.0,0.0,0.0,0.0,0.0,0.0,0.0,0.0,0.0,0.0,0.0,0.0,0.0,0.0,0.0,0.0,0.0,0.0,0.0,0.0,0.0,0.0,0.0,0.0,0.0,0.0,0.0,0.0,0.0,0.0,0.0,0.0,0.0,0.0,0.0,0.0,0.0,0.0,0.0,0.0,0.0,0.0,0.0,0.0,0.0,0.0,0.0,0.0,0.0,0.0,0.0,0.0,0.0,0.0,0.0,-1.4314,-1.4722,-1.487,-1.4822,0.0,0.0,0.0,0.0,0.0,0.0,0.0,0.0,0.0,0.0,0.0,0.0,0.0,0.0,0.0,0.0,0.0,0.0,0.0,0.0,0.0,0.0,0.0,0.0,0.0,0.0,0.0,0.0,0.0,0.0,0.0,0.0,0.0,0.0,0.0,0.0,0.0,0.0,0.0,0.0,0.0,0.0,0.0,0.0,0.0,0.0,0.0,0.0,0.0,0.0,0.0,0.0,0.0,0.0,0.0,0.0,0.0,0.0,0.0,0.0,0.0,0.0,0.0,0.0,0.0,0.0,0.0,0.0,0.0,0.0,0.0,0.0,0.0,0.0,0.0,0.0,0.0,0.0,0.0,0.0,0.0,0.0,0.0,0.0,0.0,0.0,0.0,0.0,0.0,0.0,0.0,0.0,0.0,0.0,0.0,0.0,0.0,0.0,0.0,0.0,0.0,0.0,0.0,0.0,0.0,0.0,0.0,0.0,0.0,0.0,-1.4501,-1.4743,-1.5247,-1.5406,-1.5328,-1.5029,0.0,0.0,0.0,0.0,0.0,0.0,0.0,0.0,0.0,0.0,0.0,0.0,0.0,0.0,0.0,0.0,0.0,0.0,0.0,0.0,0.0,0.0,0.0,0.0,0.0,0.0,0.0,0.0,0.0,0.0,0.0,0.0,0.0,0.0,0.0,0.0,0.0,0.0,0.0,0.0,0.0,0.0,0.0,0.0,0.0,0.0,0.0,0.0,0.0,0.0,0.0,0.0,0.0,0.0,0.0,0.0,0.0,0.0,0.0,0.0,0.0,0.0,0.0,0.0,0.0,0.0,0.0,0.0,0.0,0.0,0.0,0.0,0.0,0.0,0.0,0.0,0.0,0.0,0.0,0.0,0.0,0.0,0.0,0.0,0.0,0.0,0.0,0.0,0.0,0.0,0.0,0.0,0.0,0.0,0.0,0.0,0.0,0.0,0.0,0.0,0.0,0.0,0.0,0.0,0.0,0.0,0.0,0.0,-1.4961,-1.4974,-1.5044,-1.5216,-1.5242,-1.5254,0.0,0.0,0.0,0.0,0.0,0.0,0.0,0.0,0.0,0.0,0.0,0.0,0.0,0.0,0.0,0.0,0.0,0.0,0.0,0.0,0.0,0.0,0.0,0.0,0.0,0.0,0.0,0.0,0.0,0.0,0.0,0.0,0.0,0.0,0.0,0.0,0.0,0.0,0.0,0.0,0.0,0.0,0.0,0.0,0.0,0.0,0.0,0.0,0.0,0.0,0.0,0.0,0.0,0.0,0.0,0.0,0.0,0.0,0.0,0.0,0.0,0.0,0.0,0.0,0.0,0.0,0.0,0.0,0.0,0.0,0.0,0.0,0.0,0.0,0.0,0.0,0.0,0.0,0.0,0.0,0.0,0.0,0.0,0.0,0.0,0.0,0.0,0.0,0.0,0.0,0.0,0.0,0.0,0.0,0.0,0.0,0.0,0.0,0.0,0.0,0.0,0.0,0.0,0.0,0.0,0.0,0.0,0.0,0.0,-1.5452,-1.5858,-1.613,-1.6163,-1.6245,-1.612,0.0,0.0,0.0,0.0,0.0,0.0,0.0,0.0,0.0,0.0,0.0,0.0,0.0,0.0,0.0,0.0,0.0,0.0,0.0,0.0,0.0,0.0,0.0,0.0,0.0,0.0,0.0,0.0,0.0,0.0,0.0,0.0,0.0,0.0,0.0,0.0,0.0,0.0,0.0,0.0,0.0,0.0,0.0,0.0,0.0,0.0,0.0,0.0,0.0,0.0,0.0,0.0,0.0,0.0,0.0,0.0,0.0,0.0,0.0,0.0,0.0,0.0,0.0,0.0,0.0,0.0,0.0,0.0,0.0,0.0,0.0,0.0,0.0,0.0,0.0,0.0,0.0,0.0,0.0,0.0,0.0,0.0,0.0,0.0,0.0,0.0,0.0,0.0,0.0,0.0,0.0,0.0,0.0,0.0,0.0,0.0,0.0,0.0,0.0,0.0,0.0,0.0,0.0,0.0,0.0,0.0,0.0,0.0,0.0,-1.5969,0.0,-1.6822,-1.6645,-1.6917,-1.6816,0.0,0.0,0.0,0.0,0.0,0.0,0.0,0.0,0.0,0.0,0.0,0.0,0.0,0.0,0.0,0.0,0.0,0.0,0.0,0.0,0.0,0.0,0.0,0.0,0.0,0.0,0.0,0.0,0.0,0.0,0.0,0.0,0.0,0.0,0.0,0.0,0.0,0.0,0.0,0.0,0.0,0.0,0.0,0.0,0.0,0.0,0.0,0.0,0.0,0.0,0.0,0.0,0.0,0.0,0.0,0.0,0.0,0.0,0.0,0.0,0.0,0.0,0.0,0.0,0.0,0.0,0.0,0.0,0.0,0.0,0.0,0.0,0.0,0.0,0.0,0.0,0.0,0.0,0.0,0.0,0.0,0.0,0.0,0.0,0.0,0.0,0.0,0.0,0.0,0.0,0.0,0.0,0.0,0.0,0.0,0.0,0.0,0.0,0.0,0.0,0.0,0.0,0.0,0.0,0.0,0.0,0.0,0.0,-1.6448,-1.6513,-1.7099,-1.7159,-1.655,-1.7121,-1.7191,0.0,0.0,0.0,0.0,0.0,0.0,0.0,0.0,0.0,0.0,0.0,0.0,0.0,0.0,0.0,0.0,0.0,0.0,0.0,0.0,0.0,0.0,0.0,0.0,0.0,0.0,0.0,0.0,0.0,0.0,0.0,0.0,0.0,0.0,0.0,0.0,0.0,0.0,0.0,0.0,0.0,0.0,0.0,0.0,0.0,0.0,0.0,0.0,0.0,0.0,0.0,0.0,0.0,0.0,0.0,0.0,0.0,0.0,0.0,0.0,0.0,0.0,0.0,0.0,0.0,0.0,0.0,0.0,0.0,0.0,0.0,0.0,0.0,0.0,0.0,0.0,0.0,0.0,0.0,0.0,0.0,0.0,0.0,0.0,0.0,0.0,0.0,0.0,0.0,0.0,0.0,0.0,0.0,0.0,0.0,0.0,0.0,0.0,0.0,0.0,0.0,0.0,0.0,0.0,0.0,0.0,0.0,0.0,0.0,-1.7124,-1.7664,-1.7865,-1.7689,-1.7852,-1.7712,0.0,0.0,0.0,0.0,0.0,0.0,0.0,0.0,0.0,0.0,0.0,0.0,0.0,0.0,0.0,0.0,0.0,0.0,0.0,0.0,0.0,0.0,0.0,0.0,0.0,0.0,0.0,0.0,0.0,0.0,0.0,0.0,0.0,0.0,0.0,0.0,0.0,0.0,0.0,0.0,0.0,0.0,0.0,0.0,0.0,0.0,0.0,0.0,0.0,0.0,0.0,0.0,0.0,0.0,0.0,0.0,0.0,0.0,0.0,0.0,0.0,0.0,0.0,0.0,0.0,0.0,0.0,0.0,0.0,0.0,0.0,0.0,0.0,0.0,0.0,0.0,0.0,0.0,0.0,0.0,0.0,0.0,0.0,0.0,0.0,0.0,0.0,0.0,0.0,0.0,0.0,0.0,0.0,0.0,0.0,0.0,0.0,0.0,0.0,0.0,0.0,0.0,0.0,0.0,0.0,0.0,0.0,0.0,0.0,-1.8149,-1.8382,-1.8481,-1.8505,-1.8518,-1.8331,-1.8003,0.0,0.0,0.0,0.0,0.0,0.0,0.0,0.0,0.0,0.0,0.0,0.0,0.0,0.0,0.0,0.0,0.0,0.0,0.0,0.0,0.0,0.0,0.0,0.0,0.0,0.0,0.0,0.0,0.0,0.0,0.0,0.0,0.0,0.0,0.0,0.0,0.0,0.0,0.0,0.0,0.0,0.0,0.0,0.0,0.0,0.0,0.0,0.0,0.0,0.0,0.0,0.0,0.0,0.0,0.0,0.0,0.0,0.0,0.0,0.0,0.0,0.0,0.0,0.0,0.0,0.0,0.0,0.0,0.0,0.0,0.0,0.0,0.0,0.0,0.0,0.0,0.0,0.0,0.0,0.0,0.0,0.0,0.0,0.0,0.0,0.0,0.0,0.0,0.0,0.0,0.0,0.0,0.0,0.0,0.0,0.0,0.0,0.0,0.0,0.0,0.0,0.0,0.0,0.0,0.0,0.0,0.0,0.0,-1.9419,-1.9207,-1.9133,-1.9158,-1.9158,-1.9108,0.0,0.0,0.0,0.0,0.0,0.0,0.0,0.0,0.0,0.0,0.0,0.0,0.0,0.0,0.0,0.0,0.0,0.0,0.0,0.0,0.0,0.0,0.0,0.0,0.0,0.0,0.0,0.0,0.0,0.0,0.0,0.0,0.0,0.0,0.0,0.0,0.0,0.0,0.0,0.0,0.0,0.0,0.0,0.0,0.0,0.0,0.0,0.0,0.0,0.0,0.0,0.0,0.0,0.0,0.0,0.0,0.0,0.0,0.0,0.0,0.0,0.0,0.0,0.0,0.0,0.0,0.0,0.0,0.0,0.0,0.0,0.0,0.0,0.0,0.0,0.0,0.0,0.0,0.0,0.0,0.0,0.0,0.0,0.0,0.0,0.0,0.0,0.0,0.0,0.0,0.0,0.0,0.0,0.0,0.0,0.0,0.0,0.0,0.0,0.0,0.0,0.0,0.0,0.0,0.0,0.0,0.0,0.0,0.0,-1.9971,-2.0323,-2.0541,-2.069,-2.0799,-2.0451,0.0,0.0,0.0,0.0,0.0,0.0,0.0,0.0,0.0,0.0,0.0,0.0,0.0,0.0,0.0,0.0,0.0,0.0,0.0,0.0,0.0,0.0,0.0,0.0,0.0,0.0,0.0,0.0,0.0,0.0,0.0,0.0,0.0,0.0,0.0,0.0,0.0,0.0,0.0,0.0,0.0,0.0,0.0,0.0,0.0,0.0,0.0,0.0,0.0,0.0,0.0,0.0,0.0,0.0,0.0,0.0,0.0,0.0,0.0,0.0,0.0,0.0,0.0,0.0,0.0,0.0,0.0,0.0,0.0,0.0,0.0,0.0,0.0,0.0,0.0,0.0,0.0,0.0,0.0,0.0,0.0,0.0,0.0,0.0,0.0,0.0,0.0,0.0,0.0,0.0,0.0,0.0,0.0,0.0,0.0,0.0,0.0,0.0,0.0,0.0,0.0,0.0,0.0,0.0,0.0,0.0,0.0,0.0,-1.9185,-2.0133,-2.0819,-2.1323,-2.1685,-2.1489,-2.1097,0.0,0.0,0.0,0.0,0.0,0.0,0.0,0.0,0.0,0.0,0.0,0.0,0.0,0.0,0.0,0.0,0.0,0.0,0.0,0.0,0.0,0.0,0.0,0.0,0.0,0.0,0.0,0.0,0.0,0.0,0.0,0.0,0.0,0.0,0.0,0.0,0.0,0.0,0.0,0.0,0.0,0.0,0.0,0.0,0.0,0.0,0.0,0.0,0.0,0.0,0.0,0.0,0.0,0.0,0.0,0.0,0.0,0.0,0.0,0.0,0.0,0.0,0.0,0.0,0.0,0.0,0.0,0.0,0.0,0.0,0.0,0.0,0.0,0.0,0.0,0.0,0.0,0.0,0.0,0.0,0.0,0.0,0.0,0.0,0.0,0.0,0.0,0.0,0.0,0.0,0.0,0.0,0.0,0.0,0.0,0.0,0.0,0.0,0.0,0.0,0.0,0.0,0.0,0.0,0.0,0.0,0.0,0.0,-1.8937,-2.0071,-2.0926,-2.1644,-2.2137,-2.1677,-2.1384,0.0,0.0,0.0,0.0,0.0,0.0,0.0,0.0,0.0,0.0,0.0,0.0,0.0,0.0,0.0,0.0,0.0,0.0,0.0,0.0,0.0,0.0,0.0,0.0,0.0,0.0,0.0,0.0,0.0,0.0,0.0,0.0,0.0,0.0,0.0,0.0,0.0,0.0,0.0,0.0,0.0,0.0,0.0,0.0,0.0,0.0,0.0,0.0,0.0,0.0,0.0,0.0,0.0,0.0,0.0,0.0,0.0,0.0,0.0,0.0,0.0,0.0,0.0,0.0,0.0,0.0,0.0,0.0,0.0,0.0,0.0,0.0,0.0,0.0,0.0,0.0,0.0,0.0,0.0,0.0,0.0,0.0,0.0,0.0,0.0,0.0,0.0,0.0,0.0,0.0,0.0,0.0,0.0,0.0,0.0,0.0,0.0,0.0,0.0,0.0,0.0,0.0,0.0,0.0,0.0,0.0,0.0,0.0,-1.9325,-1.993,-2.0895,-2.1651,-2.2185,-2.2414,-2.2109,0.0,0.0,0.0,0.0,0.0,0.0,0.0,0.0,0.0,0.0,0.0,0.0,0.0,0.0,0.0,0.0,0.0,0.0,0.0,0.0,0.0,0.0,0.0,0.0,0.0,0.0,0.0,0.0,0.0,0.0,0.0,0.0,0.0,0.0,0.0,0.0,0.0,0.0,0.0,0.0,0.0,0.0,0.0,0.0,0.0,0.0,0.0,0.0,-1.239,0.0,0.0,0.0,0.0,0.0,0.0,0.0,0.0,0.0,0.0,0.0,0.0,0.0,0.0,0.0,0.0,0.0,0.0,0.0,0.0,0.0,0.0,0.0,0.0,0.0,0.0,0.0,0.0,0.0,0.0,0.0,0.0,0.0,0.0,0.0,0.0,0.0,0.0,0.0,0.0,0.0,0.0,0.0,0.0,0.0,0.0,0.0,0.0,0.0,0.0,0.0,0.0,0.0,0.0,0.0,0.0,0.0,0.0,0.0,-1.9208,-1.9769,-2.0682,-2.1336,-2.1737,-2.213,-2.1987,0.0,0.0,0.0,0.0,0.0,0.0,0.0,0.0,0.0,0.0,0.0,0.0,0.0,0.0,0.0,0.0,0.0,0.0,0.0,0.0,0.0,0.0,0.0,0.0,0.0,0.0,0.0,0.0,0.0,0.0,0.0,0.0,0.0,0.0,0.0,0.0,0.0,0.0,0.0,0.0,0.0,0.0,0.0,0.0,0.0,0.0,0.0,0.0,0.0,0.0,0.0,0.0,0.0,0.0,0.0,0.0,0.0,0.0,0.0,0.0,0.0,0.0,0.0,0.0,0.0,0.0,0.0,0.0,0.0,0.0,0.0,0.0,0.0,0.0,0.0,0.0,0.0,0.0,0.0,0.0,0.0,0.0,0.0,0.0,0.0,0.0,0.0,0.0,0.0,0.0,0.0,0.0,0.0,0.0,0.0,0.0,0.0,0.0,0.0,0.0,0.0,0.0,0.0,0.0,0.0,0.0,0.0,-1.7986,-1.8886,-1.9511,-2.0346,-2.0871,-2.1094,-2.1443,-2.1432,-2.1067,0.0,0.0,0.0,0.0,0.0,0.0,0.0,0.0,0.0,0.0,0.0,0.0,0.0,0.0,0.0,0.0,0.0,0.0,0.0,0.0,0.0,0.0,0.0,0.0,0.0,0.0,0.0,0.0,0.0,0.0,0.0,0.0,0.0,0.0,0.0,0.0,0.0,0.0,-1.3182,-1.3484,0.0,0.0,0.0,0.0,0.0,0.0,0.0,0.0,-1.2246,0.0,0.0,0.0,0.0,0.0,0.0,0.0,0.0,0.0,0.0,0.0,0.0,0.0,0.0,0.0,0.0,0.0,0.0,0.0,0.0,0.0,0.0,0.0,0.0,0.0,0.0,0.0,0.0,0.0,0.0,0.0,0.0,0.0,0.0,0.0,0.0,0.0,0.0,0.0,0.0,0.0,0.0,0.0,0.0,0.0,0.0,0.0,0.0,0.0,0.0,0.0,0.0,0.0,0.0,0.0,0.0,-1.626,-1.7482,-1.8466,-1.9145,-1.9867,-2.0366,-2.07,-2.1051,-2.0954,-2.0357,0.0,0.0,0.0,0.0,0.0,0.0,0.0,0.0,0.0,0.0,0.0,0.0,0.0,0.0,0.0,0.0,0.0,0.0,0.0,0.0,0.0,0.0,0.0,0.0,0.0,0.0,0.0,0.0,0.0,0.0,0.0,0.0,0.0,0.0,0.0,0.0,0.0,0.0,0.0,-1.3803,-1.3883,0.0,0.0,0.0,0.0,0.0,0.0,0.0,0.0,-1.2519,0.0,0.0,0.0,0.0,0.0,0.0,0.0,0.0,0.0,0.0,0.0,0.0,0.0,0.0,0.0,0.0,0.0,0.0,0.0,0.0,0.0,0.0,0.0,0.0,0.0,0.0,0.0,0.0,0.0,0.0,0.0,0.0,0.0,0.0,0.0,0.0,0.0,0.0,0.0,0.0,0.0,0.0,0.0,0.0,0.0,0.0,0.0,0.0,0.0,0.0,0.0,0.0,0.0,0.0,0.0,-1.6573,-1.7515,-1.8375,-1.9178,-1.9608,-1.9987,-2.0215,-2.041,-2.0239,0.0,0.0,0.0,0.0,0.0,0.0,0.0,0.0,0.0,0.0,0.0,0.0,0.0,0.0,0.0,0.0,0.0,0.0,0.0,0.0,0.0,0.0,0.0,0.0,0.0,0.0,0.0,0.0,0.0,0.0,0.0,0.0,0.0,0.0,0.0,0.0,0.0,0.0,0.0,0.0,-1.3904,-1.4065,-1.4165,0.0,0.0,0.0,0.0,0.0,0.0,-1.3006,-1.2759,0.0,0.0,0.0,0.0,0.0,0.0,0.0,0.0,0.0,0.0,0.0,0.0,0.0,0.0,0.0,0.0,0.0,0.0,0.0,0.0,0.0,0.0,0.0,0.0,0.0,0.0,0.0,0.0,0.0,0.0,0.0,0.0,0.0,0.0,0.0,0.0,0.0,0.0,0.0,0.0,0.0,0.0,0.0,0.0,0.0,0.0,0.0,0.0,0.0,0.0,0.0,0.0,0.0,0.0,0.0,-1.6851,-1.7572,-1.8354,-1.9233,-1.944,-1.9615,-1.9769,-1.9878,-1.9606,0.0,0.0,0.0,0.0,0.0,0.0,0.0,0.0,0.0,0.0,0.0,0.0,0.0,0.0,0.0,0.0,0.0,0.0,0.0,0.0,0.0,0.0,0.0,0.0,0.0,0.0,0.0,0.0,0.0,0.0,0.0,0.0,0.0,0.0,0.0,0.0,0.0,0.0,0.0,0.0,0.0,-1.4185,-1.4053,-1.3813,0.0,0.0,0.0,0.0,-1.3396,-1.3264,0.0,0.0,0.0,0.0,0.0,0.0,0.0,0.0,0.0,0.0,0.0,0.0,0.0,0.0,0.0,0.0,0.0,0.0,0.0,0.0,0.0,0.0,0.0,0.0,0.0,0.0,0.0,0.0,0.0,0.0,0.0,0.0,0.0,0.0,0.0,0.0,0.0,0.0,0.0,0.0,0.0,0.0,0.0,0.0,0.0,0.0,0.0,0.0,0.0,0.0,0.0,0.0,0.0,0.0,0.0,0.0,-1.6475,-1.7305,-1.8164,-1.909,-1.9252,-1.9351,-1.9384,-1.9704,-1.9511,0.0,0.0,0.0,0.0,0.0,0.0,0.0,0.0,0.0,0.0,0.0,0.0,0.0,0.0,0.0,0.0,0.0,0.0,0.0,0.0,0.0,0.0,0.0,0.0,0.0,0.0,0.0,0.0,0.0,0.0,0.0,0.0,0.0,0.0,0.0,0.0,0.0,0.0,0.0,0.0,0.0,-1.4221,-1.4121,-1.3957,-1.4008,0.0,0.0,-1.3779,-1.4119,-1.4064,0.0,0.0,0.0,0.0,0.0,0.0,0.0,0.0,0.0,0.0,0.0,0.0,0.0,0.0,0.0,0.0,0.0,0.0,0.0,0.0,0.0,0.0,0.0,0.0,0.0,0.0,0.0,0.0,0.0,0.0,0.0,0.0,0.0,0.0,0.0,0.0,0.0,0.0,0.0,0.0,0.0,0.0,0.0,0.0,0.0,0.0,0.0,0.0,0.0,0.0,0.0,0.0,0.0,0.0,0.0,-1.5522,-1.6609,-1.7155,-1.7878,-1.87,-1.8808,-1.8885,-1.9019,-1.9185,-1.9091,0.0,0.0,0.0,0.0,0.0,0.0,0.0,0.0,0.0,0.0,0.0,0.0,0.0,0.0,0.0,0.0,0.0,0.0,0.0,0.0,0.0,0.0,0.0,0.0,0.0,0.0,0.0,0.0,0.0,0.0,0.0,0.0,0.0,0.0,0.0,0.0,0.0,0.0,0.0,0.0,0.0,0.0,-1.4321,-1.4206,0.0,0.0,0.0,-1.3969,-1.4165,0.0,0.0,0.0,0.0,0.0,0.0,0.0,0.0,0.0,0.0,0.0,0.0,0.0,0.0,0.0,0.0,0.0,0.0,0.0,0.0,0.0,0.0,0.0,0.0,0.0,0.0,0.0,0.0,0.0,0.0,0.0,0.0,0.0,0.0,0.0,0.0,0.0,0.0,0.0,0.0,0.0,0.0,0.0,0.0,0.0,0.0,0.0,0.0,0.0,0.0,0.0,0.0,0.0,0.0,0.0,0.0,0.0,-1.6777,-1.7062,-1.7622,-1.8486,-1.8482,-1.8583,-1.8707,-1.8741,0.0,0.0,0.0,0.0,0.0,0.0,0.0,0.0,0.0,0.0,0.0,0.0,0.0,0.0,0.0,0.0,0.0,0.0,0.0,0.0,0.0,0.0,0.0,0.0,0.0,0.0,0.0,-1.2412,0.0,0.0,0.0,0.0,0.0,0.0,0.0,0.0,0.0,0.0,0.0,0.0,0.0,0.0,-1.4381,-1.4563,-1.4486,-1.4481,0.0,0.0,-1.4336,-1.4406,-1.4426,-1.4397,0.0,0.0,0.0,0.0,0.0,0.0,0.0,0.0,0.0,0.0,0.0,0.0,0.0,0.0,0.0,0.0,0.0,0.0,0.0,0.0,0.0,0.0,0.0,0.0,0.0,0.0,0.0,0.0,0.0,0.0,0.0,0.0,0.0,0.0,0.0,0.0,0.0,0.0,0.0,0.0,0.0,0.0,0.0,0.0,0.0,0.0,0.0,0.0,0.0,0.0,0.0,0.0,0.0,0.0,-1.583,-1.6767,-1.7062,-1.7632,-1.8442,-1.8482,-1.8506,-1.8549,-1.8516,-1.8491,0.0,0.0,0.0,0.0,0.0,0.0,0.0,0.0,0.0,0.0,0.0,0.0,0.0,0.0,0.0,0.0,0.0,0.0,0.0,0.0,0.0,0.0,0.0,0.0,0.0,0.0,0.0,0.0,0.0,0.0,0.0,0.0,0.0,0.0,0.0,0.0,0.0,0.0,0.0,0.0,0.0,-1.4911,-1.4802,-1.4764,-1.4883,0.0,-1.499,-1.4873,-1.5264,-1.5322,-1.5186,-1.4805,0.0,0.0,0.0,0.0,0.0,0.0,0.0,0.0,0.0,0.0,0.0,0.0,0.0,0.0,0.0,0.0,0.0,0.0,0.0,0.0,0.0,0.0,0.0,0.0,0.0,0.0,0.0,0.0,0.0,0.0,0.0,0.0,0.0,0.0,0.0,0.0,0.0,0.0,0.0,0.0,0.0,0.0,0.0,0.0,0.0,0.0,0.0,0.0,0.0,0.0,0.0,0.0,0.0,-1.6104,-1.6919,-1.7201,-1.7609,-1.8158,-1.8434,-1.8513,-1.8391,-1.863,-1.8638,0.0,0.0,0.0,0.0,0.0,0.0,0.0,0.0,0.0,0.0,0.0,0.0,0.0,0.0,0.0,0.0,0.0,0.0,0.0,0.0,0.0,0.0,0.0,0.0,0.0,0.0,0.0,0.0,-1.3118,-1.3351,-1.3305,0.0,0.0,0.0,0.0,0.0,0.0,0.0,0.0,0.0,0.0,-1.5051,-1.5155,-1.54,0.0,0.0,-1.5498,-1.5654,-1.5821,-1.5586,-1.5449,-1.5576,-1.5155,0.0,0.0,0.0,0.0,0.0,0.0,0.0,0.0,0.0,0.0,0.0,0.0,0.0,0.0,0.0,0.0,0.0,0.0,0.0,0.0,0.0,0.0,0.0,0.0,0.0,0.0,0.0,0.0,0.0,0.0,0.0,0.0,0.0,0.0,0.0,0.0,0.0,0.0,0.0,0.0,0.0,0.0,0.0,0.0,0.0,0.0,0.0,0.0,0.0,0.0,0.0,0.0,-1.6457,-1.7159,-1.7442,-1.7773,-1.8193,-1.8578,-1.8752,-1.8616,-1.8755,-1.874,0.0,0.0,0.0,0.0,0.0,0.0,0.0,0.0,0.0,0.0,0.0,0.0,0.0,0.0,0.0,0.0,0.0,0.0,0.0,0.0,0.0,0.0,0.0,0.0,0.0,0.0,0.0,0.0,-1.3165,-1.3324,-1.3396,0.0,0.0,0.0,0.0,0.0,0.0,0.0,0.0,0.0,0.0,-1.5389,-1.5596,-1.5977,-1.6152,-1.585,-1.6064,-1.6269,-1.6269,-1.6006,-1.5918,-1.6242,0.0,0.0,0.0,0.0,0.0,0.0,0.0,0.0,0.0,0.0,0.0,0.0,0.0,0.0,0.0,0.0,0.0,0.0,0.0,0.0,0.0,0.0,0.0,0.0,0.0,0.0,0.0,-1.222,0.0,0.0,-1.2185,0.0,0.0,0.0,0.0,0.0,0.0,0.0,0.0,0.0,0.0,0.0,0.0,0.0,0.0,0.0,0.0,0.0,0.0,0.0,0.0,0.0,0.0,-1.6867,-1.7585,-1.7841,-1.8203,-1.8588,-1.9053,-1.9304,-1.9265,-1.8857,-1.8703,-1.8854,0.0,0.0,0.0,0.0,0.0,0.0,0.0,0.0,0.0,0.0,0.0,0.0,0.0,0.0,0.0,0.0,0.0,0.0,0.0,0.0,0.0,0.0,0.0,0.0,0.0,0.0,-1.3118,-1.3133,-1.3192,0.0,0.0,0.0,0.0,0.0,0.0,0.0,0.0,0.0,0.0,-1.5625,-1.6065,-1.6075,-1.6445,-1.6677,-1.6648,-1.6668,-1.6687,-1.6687,-1.6668,-1.6677,0.0,0.0,0.0,0.0,0.0,0.0,0.0,0.0,0.0,0.0,0.0,0.0,0.0,0.0,0.0,0.0,0.0,0.0,0.0,0.0,0.0,0.0,0.0,0.0,0.0,0.0,0.0,-1.3221,-1.3401,0.0,0.0,0.0,0.0,0.0,0.0,0.0,0.0,0.0,0.0,0.0,-1.7235,-1.7618,0.0,0.0,0.0,0.0,0.0,0.0,0.0,0.0,0.0,0.0,0.0,0.0,-1.7583,-1.7874,-1.8213,-1.8633,-1.9062,-1.9492,-1.957,-1.9287,-1.9141,-1.8733,-1.8071,0.0,0.0,0.0,0.0,0.0,0.0,0.0,0.0,0.0,0.0,0.0,0.0,0.0,0.0,0.0,0.0,0.0,0.0,0.0,0.0,0.0,0.0,0.0,0.0,0.0,-1.3962,0.0,0.0,0.0,0.0,0.0,0.0,0.0,0.0,0.0,0.0,0.0,-1.517,-1.5655,-1.5949,-1.6202,-1.6465,-1.6885,-1.707,0.0,0.0,0.0,0.0,0.0,0.0,0.0,0.0,0.0,0.0,0.0,0.0,0.0,0.0,-1.3505,-1.2502,-1.2009,-1.157,-1.1021,0.0,0.0,0.0,0.0,0.0,0.0,0.0,0.0,0.0,0.0,0.0,0.0,0.0,0.0,-1.4112,0.0,-1.4394,0.0,0.0,0.0,0.0,0.0,0.0,0.0,0.0,-1.5847,-1.6666,-1.7696,-1.835,-1.8958,0.0,-1.9876,-1.9663,0.0,0.0,0.0,0.0,0.0,0.0,0.0,0.0,-1.8061,-1.8232,-1.8763,-1.9182,-1.9502,-1.9922,-2.001,-1.9774,-1.948,-1.8889,-1.7957,-1.7741,-1.7444,0.0,0.0,0.0,0.0,0.0,0.0,0.0,0.0,0.0,0.0,0.0,0.0,0.0,0.0,0.0,0.0,0.0,0.0,0.0,0.0,0.0,0.0,0.0,-1.4327,0.0,0.0,0.0,0.0,0.0,0.0,0.0,0.0,0.0,-1.5218,-1.5308,-1.5615,-1.6232,-1.6457,-1.6631,-1.6914,0.0,0.0,0.0,0.0,0.0,0.0,0.0,-1.7291,-1.7744,-1.7395,-1.7038,-1.6983,-1.6686,-1.626,-1.5679,0.0,0.0,-1.2968,-1.2399,-1.1952,-1.1455,-1.1451,-1.1438,-1.1137,-1.1204,-1.1196,0.0,0.0,0.0,0.0,0.0,0.0,0.0,0.0,-1.4755,-1.4755,0.0,-1.516,0.0,0.0,0.0,0.0,-1.4532,-1.475,0.0,0.0,-1.6715,-1.7439,-1.8108,-1.9268,-1.9975,-2.022,-2.0759,-2.0837,-2.0469,-1.9601,0.0,0.0,0.0,0.0,0.0,0.0,-1.837,-1.8656,-1.9436,-1.9912,-1.9941,-2.0342,-2.0595,-2.0537,-1.9736,-1.9102,-1.8598,-1.7976,-1.7645,-1.7595,-1.6937,0.0,0.0,0.0,0.0,0.0,0.0,0.0,0.0,0.0,0.0,0.0,0.0,0.0,0.0,0.0,0.0,0.0,0.0,0.0,0.0,-1.4197,0.0,0.0,0.0,0.0,0.0,0.0,0.0,0.0,0.0,0.0,-1.5742,-1.593,-1.629,-1.6687,0.0,0.0,0.0,0.0,-1.8057,-1.8027,-1.8047,-1.8184,-1.8529,-1.8266,-1.8149,-1.852,0.0,0.0,-1.7495,-1.6942,-1.6461,-1.6461,-1.5519,-1.4371,-1.3016,-1.2196,-1.1573,-1.1266,-1.1473,-1.156,-1.1409,-1.1578,-1.1707,-1.7886,0.0,0.0,0.0,0.0,-1.592,-1.5874,-1.5958,-1.5835,-1.5842,-1.5965,-1.5915,0.0,0.0,0.0,0.0,0.0,0.0,-1.5974,-1.6653,-1.7083,-1.7834,-1.879,-1.9149,-1.9709,-2.043,-2.0597,-2.0872,-2.12,-2.0963,-2.0399,-1.9615,0.0,0.0,0.0,0.0,-1.9321,-1.9531,-1.9795,-2.0068,-2.0371,-2.0537,-2.0449,-2.0107,-1.9863,-1.9385,-1.8627,-1.8433,-1.809,-1.7635,-1.7399,0.0,0.0,0.0,0.0,0.0,0.0,0.0,0.0,0.0,0.0,0.0,0.0,0.0,0.0,0.0,0.0,0.0,0.0,0.0,-1.5076,-1.5049,-1.5011,0.0,0.0,0.0,0.0,0.0,0.0,0.0,0.0,0.0,-1.685,-1.6692,-1.6785,0.0,0.0,-1.8057,-1.8652,-1.8848,-1.8818,-1.8471,-1.8721,0.0,-1.8627,-1.8799,-1.8831,-1.8515,-1.783,-1.727,-1.7116,-1.6669,-1.6277,-1.6035,-1.5274,-1.4429,-1.385,-1.334,-1.2853,-1.2444,-1.2294,-1.2174,-1.2016,-1.1921,-1.1843,-1.9475,-1.8692,-1.7864,-1.7446,-1.7309,-1.6903,-1.6823,-1.6908,-1.6823,-1.6769,-1.6793,-1.6698,-1.6427,-1.6012,-1.5753,0.0,0.0,0.0,-1.661,-1.723,-1.7799,-1.8444,-1.917,-1.976,-2.0312,-2.0846,-2.1091,-2.1327,-2.1565,-2.1702,-2.132,-2.0495,0.0,0.0,-2.023,-2.023,-2.03,-2.043,-2.0605,-2.0742,-2.082,-2.0693,-2.0478,-2.0185,-2.001,-1.9631,-1.9124,-1.8984,-1.8609,-1.8035,-1.7862,-1.7642,0.0,0.0,0.0,0.0,0.0,0.0,0.0,0.0,0.0,0.0,0.0,-1.5312,-1.5406,0.0,0.0,0.0,-1.5613,-1.5723,-1.5908,-1.5898,0.0,0.0,0.0,0.0,0.0,0.0,0.0,-1.6941,-1.7106,-1.7369,-1.7822,-1.7769,-1.7837,-1.8169,-1.8408,-1.8701,-1.9209,0.0,-1.9189,-1.889,-1.9121,-1.9258,-1.9124,-1.9156,-1.8981,-1.8389,-1.7733,-1.7182,-1.682,-1.6395,-1.5973,-1.5578,-1.5031,-1.4498,-1.414,-1.3809,-1.337,-1.2829,-1.2636,-1.2503,-1.2227,-1.2082,-1.1985,-2.0788,-2.0635,-1.9265,-1.8504,-1.8109,-1.7856,-1.7709,-1.7689,-1.7689,-1.7528,-1.7306,-1.7493,-1.7204,-1.6626,-1.6601,0.0,-1.6902,-1.6949,-1.7225,-1.7764,-1.8578,-1.9106,-1.9415,-2.067,-2.1309,-2.1444,-2.199,-2.2099,-2.1832,-2.2176,-2.2097,-2.1694,-2.1487,-2.1346,-2.1259,-2.1249,-2.1239,-2.1249,-2.167,-2.1689,-2.1249,-2.085,-2.0654,-2.0654,-2.0195,-1.9951,-1.9865,-1.9541,-1.9141,-1.8666,-1.832,-1.7978,-1.7701,0.0,0.0,0.0,0.0,0.0,0.0,0.0,0.0,0.0,0.0,0.0,0.0,0.0,0.0,0.0,-1.6823,0.0,-1.6697,-1.6697,0.0,0.0,0.0,-1.6755,-1.6755,-1.6785,-1.697,-1.7432,0.0,0.0,-1.8607,-1.9062,-1.9189,-1.8754,-1.9082,-1.9382,-1.9385,-1.9424,-1.9385,-1.9355,-1.9412,-1.9512,-1.9701,-1.9367,-1.8823,-1.8313,-1.7761,-1.7198,-1.6666,-1.6028,-1.5601,-1.5204,-1.4812,-1.441,-1.4093,-1.3702,-1.3273,-1.2628,-1.2605,-1.2572,-1.2253,-1.2189,-1.2153,-2.1744,-2.136,-2.0722,-2.006,-1.9366,-1.9065,-1.8811,-1.8611,-1.8604,-1.8444,-1.8218,-1.799,-1.7607,-1.7086,-1.7227,-1.717,-1.7049,-1.7499,-1.7835,-1.8177,-1.8551,-1.9077,-1.9668,-2.0031,-2.0596,-2.1405,-2.1747,-2.2178,-2.262,-2.311,-2.3372,-2.3374,-2.3256,-2.2695,-2.1768,-2.1728,-2.1738,-2.1738,-2.1836,-2.1836,-2.1728,-2.1309,-2.1074,-2.1084,-2.0644,-2.0254,-1.9932,-1.9814,-1.957,-1.916,-1.9043,-1.8779,-1.8384,-1.8113,0.0,0.0,0.0,0.0,0.0,0.0,0.0,0.0,0.0,-1.6911,-1.6808,0.0,-1.6862,0.0,-1.6738,-1.6697,-1.6697,-1.6697,0.0,0.0,-1.6999,-1.7227,-1.7227,-1.7519,-1.7837,-1.8247,-1.8383,-1.8627,-1.9082,-1.9502,-1.9727,-1.9629,-1.9697,-1.9883,-2.0233,-2.0302,-2.0175,-1.9863,-2.0039,-2.0138,-1.9744,-1.9279,-1.8891,-1.8606,-1.7639,-1.6773,-1.6446,-1.5524,-1.4856,-1.4748,-1.4325,-1.3928,-1.371,-1.3455,-1.3113,-1.2711,-1.2594,-1.2606,-1.2497,-1.238,-1.2271,-2.2432,-2.2164,-2.1677,-2.1142,-2.0541,-1.9987,-1.9659,-1.9512,-1.9506,-1.9272,-1.8851,-1.8437,-1.8063,-1.7802,-1.7908,-1.792,-1.7928,-1.8234,-1.8554,-1.8962,-1.9221,-1.9662,-2.0171,-2.0373,-2.0847,-2.1517,-2.1884,-2.2289,-2.2817,-2.3392,-2.3765,-2.3849,-2.3997,-2.3623,-2.2764,-2.2539,-2.2441,-2.2432,-2.2266,-2.2168,-2.2148,-2.1553,-2.12,-2.1181,-2.0801,-2.0488,-2.0215,-2.0195,-2.001,-1.96,-1.957,-1.9365,-1.8945,-1.8842,-1.8755,0.0,0.0,0.0,0.0,0.0,0.0,0.0,0.0,0.0,0.0,0.0,-1.7393,-1.7295,-1.7262,-1.7272,-1.7272,-1.7272,-1.7262,-1.7305,-1.751,-1.7734,-1.792,-1.811,-1.8422,-1.8841,-1.9056,-1.926,-1.9541,-1.9941,-2.0205,-2.0205,-2.0195,-2.0283,-2.0546,-2.0615,-2.0517,-2.0264,-2.0449,-2.0382,-1.9812,-1.9286,-1.882,-1.842,-1.7395,-1.6454,-1.6117,-1.5271,-1.4533,-1.4389,-1.4,-1.3608,-1.3426,-1.3119,-1.2863,-1.268,-1.2526,-1.2489,-1.2496,-1.2378,-1.2305,-2.2953,-2.2866,-2.2285,-2.1956,-2.1597,-2.0762,-2.0361,-2.0227,-2.0287,-1.9987,-1.9446,-1.8898,-1.8637,-1.8604,-1.8564,-1.8684,-1.8864,-1.8913,-1.9195,-1.9752,-2.0019,-2.0347,-2.0658,-2.1143,-2.1478,-2.1791,-2.2178,-2.2542,-2.2824,-2.3539,-2.3843,-2.388,-2.4289,-2.4316,-2.3955,-2.3432,-2.3149,-2.3091,-2.274,-2.2555,-2.2578,-2.1765,-2.1327,-2.1268,-2.0889,-2.0664,-2.0615,-2.0615,-2.0429,-2.0029,-2.0,-1.9805,-1.9404,-1.9568,-1.9631,0.0,-1.9696,0.0,0.0,0.0,0.0,0.0,0.0,0.0,0.0,-1.8051,-1.8174,-1.8184,-1.8174,-1.8174,-1.8174,-1.8174,-1.8164,-1.8174,-1.8174,-1.832,-1.8637,-1.8685,-1.8851,-1.9326,-1.9687,-1.9932,-2.001,-2.037,-2.0605,-2.0586,-2.0566,-2.0576,-2.0605,-2.0615,-2.0605,-2.0615,-2.0527,-2.0294,-1.9819,-1.9197,-1.8581,-1.8032,-1.707,-1.6252,-1.5802,-1.5061,-1.4418,-1.4101,-1.3702,-1.3382,-1.3163,-1.282,-1.2592,-1.2562,-1.2415,-1.2298,-1.2305,-1.2305,-1.2305,-2.3454,-2.318,-2.2592,-2.2305,-2.2205,-2.1577,-2.1029,-2.0595,-2.0595,-2.0394,-2.0047,-1.97,-1.9426,-1.9192,-1.8951,-1.8767,-1.8601,-1.8816,-1.9085,-1.947,-1.9745,-2.0263,-2.1009,-2.111,-2.1528,-2.2196,-2.2723,-2.3045,-2.329,-2.4196,-2.4695,-2.4685,-2.4879,-2.4949,-2.4842,0.0,0.0,0.0,-2.3013,-2.2974,-2.2964,-2.2487,-2.2109,-2.1777,-2.1338,0.0,-2.0625,-2.0615,-2.0566,-2.0488,-2.0439,0.0,0.0,0.0,0.0,0.0,0.0,0.0,0.0,0.0,0.0,0.0,-1.9134,-1.8987,-1.8997,-1.904,-1.9053,-1.9043,-1.9053,-1.9053,-1.9043,-1.9053,-1.9053,-1.9043,-1.9033,-1.9082,-1.916,-1.917,-1.9326,-1.9746,-1.9873,-2.0049,-2.041,-2.0566,-2.0605,-2.0615,-2.0615,-2.0615,-2.0615,-2.0615,-2.0615,-2.0566,-2.0304,-1.9877,-1.9458,-1.8887,-1.8132,-1.7494,-1.6719,-1.5987,-1.5405,-1.4725,-1.4065,-1.3702,-1.3411,-1.3127,-1.2783,-1.2636,-1.2526,-1.2378,-1.2335,-1.2305,-1.2305,-1.2305,-1.2305,-2.3681,-2.3494,-2.2893,-2.2552,0.0,-2.1951,-2.1581,-2.1096,-2.0949,-2.0728,-2.0428,-2.014,-1.9927,-1.978,-1.9486,-1.9279,-1.9132,-1.9155,-1.9364,-1.9864,-1.9984,-2.0514,-2.1345,-2.1345,-2.1759,-2.2551,-2.3121,-2.3505,-2.3708,-2.4687,-2.509,-2.4883,-2.5257,-2.5293,-2.5096,-2.4219,-2.3574,-2.3101,-2.3101,-2.3101,-2.3081,-2.2725,-2.2314,-2.1904,-2.1465,0.0,0.0,0.0,0.0,0.0,0.0,0.0,0.0,-2.0234,0.0,-2.0102,-2.0082,-2.0092,-2.0082,-2.0082,-2.0044,-1.9959,-1.9912,-1.9774,-1.9326,-1.9277,-1.9277,-1.9277,-1.9277,-1.9277,-1.9277,-1.9277,-1.9277,-1.9277,-1.9277,-1.9365,-1.9551,-1.959,-1.9766,-2.0146,-2.0244,-2.037,-2.0576,-2.0615,-2.0615,-2.0615,-2.0615,-2.0605,-2.0615,-2.0615,-2.0546,-2.0283,-1.9908,-1.9458,-1.9014,-1.8201,-1.7534,-1.6981,-1.6237,-1.551,-1.5013,-1.4462,-1.3949,-1.3601,-1.3273,-1.2936,-1.2673,-1.2526,-1.2409,-1.2342,-1.2305,-1.2305,-1.2305,-1.2305,-1.2305,-2.3774,-2.3785,-2.3113,-2.2719,-2.2478,-2.2184,-2.1864,-2.1594,-2.1236,0.0,0.0,-2.0441,-2.0314,-2.0294,-2.0007,-1.9846,-1.9786,-1.9559,-1.9754,-2.027,-2.027,-2.0815,-2.164,-2.1689,-2.2112,-2.2906,-2.3493,-2.3834,-2.4038,-2.5029,-2.5317,-2.5064,-2.5479,-2.5508,-2.5049,-2.4297,-2.3682,-2.3227,-2.314,-2.3101,-2.3091,-2.276,-2.2422,-2.2012,-2.1609,-2.1221,-2.0742,-2.0684,-2.0683,-2.0615,-2.0615,-2.0615,-2.0615,-2.0615,-2.0615,-2.0615,-2.0615,-2.0615,-2.0615,-2.0615,-2.0615,-2.0615,-2.0615,-2.0302,-1.9597,-1.9549,-1.9512,-1.9549,-1.9512,-1.9521,-1.9512,-1.9512,-1.9512,-1.9549,-1.9512,-1.9695,-1.998,-2.0029,-2.0166,-2.0537,-2.0586,-2.0605,-2.0605,-2.0615,-2.0615,-2.0615,-2.0615,-2.0566,-2.0507,-2.0458,-2.0303,-1.9954,-1.9525,-1.9033,-1.847,-1.7643,-1.6828,-1.6496,-1.577,-1.507,-1.4597,-1.4281,-1.3956,-1.3455,-1.3083,-1.282,-1.2599,-1.2415,-1.2305,-1.2305,-1.2305,-1.2305,-1.2305,-1.2305,-1.2305,-2.3774,-2.3792,-2.3182,-2.2901,-2.2772,-2.2478,-2.2051,-2.1608,-2.1236,-2.1082,-2.1029,-2.0742,-2.0615,-2.0595,-2.0307,-2.0034,-1.98,-1.9753,-1.9945,-2.0277,-2.027,-2.0881,-2.1983,-2.204,-2.2473,-2.3239,-2.3829,-2.4224,-2.4481,-2.5159,-2.5459,-2.5424,-2.5614,-2.5508,-2.5068,-2.458,-2.4121,-2.3701,-2.3296,-2.3101,-2.3101,-2.3033,-2.2852,-2.2441,-2.2353,-2.1953,-2.1132,-2.1143,-2.0957,-2.0625,-2.0615,-2.0615,-2.0615,-2.0615,-2.0615,-2.0615,-2.0615,-2.0615,-2.0615,-2.0615,-2.0615,-2.0615,-2.0615,-2.0546,-2.0439,-2.0429,-2.0429,-2.0419,-2.039,-2.0429,-2.0419,-2.04,-2.037,-2.04,-2.0371,-2.0449,-2.0488,-2.0498,-2.0517,-2.0595,-2.0615,-2.0615,-2.0615,-2.0615,-2.0615,-2.0615,-2.0566,-2.0468,-2.0137,-2.0,-1.9915,-1.9676,-1.92,-1.8515,-1.7814,-1.7289,-1.6588,-1.5793,-1.544,-1.4955,-1.431,-1.4137,-1.3804,-1.3112,-1.2973,-1.2753,-1.2415,-1.2305,-1.2305,-1.2305,-1.2305,-1.2305,-1.2305,-1.2305,-1.2305,-2.3774,-2.3694,-2.312,-2.2866,-2.2826,-2.2378,-2.1944,-2.1601,-2.1236,-2.1102,-2.1096,-2.0969,-2.0909,-2.0882,-2.0608,-2.0401,-2.0261,-1.994,-2.0074,-2.0515,-2.0405,-2.096,-2.2051,-2.2286,-2.2814,-2.3665,-2.442,-2.4767,-2.4898,-2.5752,-2.595,-2.5547,-2.5633,-2.5508,-2.5125,-2.4873,-2.4453,-2.3799,-2.3315,-2.3101,-2.3101,-2.3101,-2.2896,-2.2529,-2.251,-2.2227,-2.1611,-2.1582,-2.1494,-2.1329,-2.1055,-2.0928,-2.0918,-2.0703,-2.0615,-2.0615,-2.0615,-2.0615,-2.0615,-2.0615,-2.0615,-2.0615,-2.0615,-2.0615,-2.0615,-2.0615,-2.0615,-2.0615,-2.0615,-2.0615,-2.0615,-2.0615,-2.0615,-2.0615,-2.0615,-2.0615,-2.0615,-2.0615,-2.0615,-2.0615,-2.0615,-2.0615,-2.0615,-2.0615,-2.0615,-2.0586,-2.0391,-2.0137,-1.9884,-1.9448,-1.9076,-1.8983,-1.8629,-1.8056,-1.7301,-1.6856,-1.6315,-1.5584,-1.5248,-1.482,-1.4245,-1.4029,-1.3666,-1.3083,-1.29,-1.2746,-1.2372,-1.2305,-1.2305,-1.2305,-1.2305,-1.2305,-1.2305,-1.2305,-1.2305,-2.3728,-2.3614,-2.3086,-2.2826,-2.2719,-2.2205,-2.1824,-2.1601,-2.1236,-2.1102,-2.1102,-2.1102,-2.1102,-2.1082,-2.0875,-2.0797,-2.0683,-2.0268,-2.0337,-2.0645,-2.0545,-2.1089,-2.2059,-2.2456,-2.3078,-2.3913,-2.4787,-2.5191,-2.537,-2.628,-2.6442,-2.5796,-2.5692,-2.5566,-2.5225,-2.5117,-2.4744,-2.3955,-2.3516,-2.3198,-2.3101,-2.3101,-2.2945,-2.2685,-2.2656,-2.2418,-2.206,-2.2031,-2.1982,-2.1926,-2.1572,-2.1346,-2.1377,-2.1055,-2.086,-2.0781,-2.0762,-2.0713,-2.0615,-2.0615,-2.0615,-2.0615,-2.0615,-2.0615,-2.0615,-2.0615,-2.0615,-2.0615,-2.0615,-2.0615,-2.0615,-2.0615,-2.0615,-2.0615,-2.0615,-2.0615,-2.0615,-2.0615,-2.0615,-2.0615,-2.0615,-2.0615,-2.0615,-2.0615,-2.0615,-2.0556,-2.0195,-1.9902,-1.9689,-1.8986,-1.8418,-1.8184,-1.8014,-1.7619,-1.6885,-1.6534,-1.607,-1.5524,-1.5141,-1.4721,-1.4245,-1.3891,-1.3535,-1.3053,-1.2863,-1.2673,-1.2378,-1.2305,-1.2305,-1.2305,-1.2305,-1.2305,-1.2305,-1.2305,-1.2305,-2.3614,-2.334,-2.3006,-2.2706,-2.2438,-2.2124,-2.1817,-2.1601,-2.1236,-2.1102,-2.1102,-2.1102,-2.1102,-2.1102,-2.1076,-2.0929,-2.0757,-2.093,-2.0908,-2.0781,-2.0991,-2.1474,-2.209,-2.2464,-2.3078,-2.3913,-2.4787,-2.5368,-2.5691,-2.6454,-2.6659,-2.6276,-2.5908,-2.5674,-2.5577,-2.5273,-2.4844,-2.4355,-2.3945,-2.3535,-2.312,-2.3101,-2.3071,-2.3042,-2.3033,-2.2838,-2.248,-2.2409,-2.2275,-2.1934,-2.1865,-2.1826,-2.1816,-2.1777,-2.1582,-2.1211,-2.1122,-2.1006,-2.0674,-2.0615,-2.0615,-2.0615,-2.0615,-2.0615,-2.0615,-2.0615,-2.0615,-2.0615,-2.0615,-2.0615,-2.0615,-2.0615,-2.0615,-2.0615,-2.0615,-2.0615,-2.0615,-2.0615,-2.0615,-2.0615,-2.0615,-2.0615,-2.0615,-2.0615,-2.0615,-2.0605,-2.0137,-1.9736,-1.9443,-1.8766,-1.8145,-1.7719,-1.7423,-1.7068,-1.6517,-1.6351,-1.5991,-1.5382,-1.5034,-1.4641,-1.4209,-1.3775,-1.3382,-1.3017,-1.2753,-1.2562,-1.2378,-1.2305,-1.2305,-1.2305,-1.2305,-1.2305,-1.2305,-1.2305,-1.2305,-2.3594,-2.3307,-2.2993,-2.2692,-2.2392,-2.2104,-2.1824,-2.1601,-2.1243,-2.1102,-2.1102,-2.1102,-2.1102,-2.1102,-2.1102,-2.1042,-2.0985,-2.1128,-2.1224,-2.1236,-2.1434,-2.1831,-2.2406,-2.2883,-2.3537,-2.42,-2.5072,-2.5624,-2.6,-2.6544,-2.6783,-2.6727,-2.6338,-2.5996,-2.5752,-2.5557,-2.5244,-2.4805,-2.4375,-2.3955,-2.3555,-2.3227,-2.3101,-2.3101,-2.3101,-2.3023,-2.291,-2.2838,-2.276,-2.2584,-2.2393,-2.2256,-2.2256,-2.2021,-2.1807,-2.1621,-2.1367,-2.1112,-2.0977,-2.0723,-2.0615,-2.0615,-2.0615,-2.0615,-2.0615,-2.0615,-2.0615,-2.0615,-2.0615,-2.0615,-2.0615,-2.0615,-2.0615,-2.0615,-2.0615,-2.0615,-2.0615,-2.0615,-2.0615,-2.0615,-2.0615,-2.0615,-2.0615,-2.0615,-2.0615,-2.0517,-2.001,-1.9512,-1.9287,-1.8508,-1.7837,-1.7517,-1.7141,-1.6716,-1.6377,-1.6105,-1.5788,-1.5319,-1.4856,-1.4461,-1.4165,-1.3666,-1.3236,-1.2943,-1.2716,-1.2526,-1.2335,-1.2305,-1.2305,-1.2305,-1.2305,-1.2305,-1.2305,-1.2305,-1.2305,-2.3474,-2.3187,-2.3021,-2.2645,-2.2285,-2.2078,-2.1777,-2.143,-2.1203,-2.1102,-2.1102,-2.1102,-2.1172,-2.1229,-2.1235,-2.1229,-2.1272,-2.1506,-2.1664,-2.1852,-2.2013,-2.2369,-2.2836,-2.3398,-2.3955,-2.4543,-2.5302,-2.5953,-2.6409,-2.6739,-2.7031,-2.7107,-2.666,-2.623,-2.5888,-2.5771,-2.5518,-2.5078,-2.4746,-2.4336,-2.3818,-2.3477,-2.3218,-2.311,-2.3101,-2.3101,-2.3101,-2.3101,-2.3101,-2.3091,-2.2799,-2.2685,-2.2666,-2.2393,-2.2178,-2.2031,-2.165,-2.1375,-2.1406,-2.0996,-2.0742,-2.0781,-2.0683,-2.0615,-2.0615,-2.0615,-2.0615,-2.0615,-2.0615,-2.0615,-2.0615,-2.0615,-2.0615,-2.0615,-2.0615,-2.0615,-2.0615,-2.0615,-2.0615,-2.0615,-2.0615,-2.0615,-2.0615,-2.0615,-2.0615,-2.0537,-1.9951,-1.9358,-1.9129,-1.8373,-1.7666,-1.743,-1.689,-1.6508,-1.6307,-1.6035,-1.5647,-1.5248,-1.4784,-1.4389,-1.4093,-1.3557,-1.3127,-1.29,-1.268,-1.2496,-1.2342,-1.2305,-1.2305,-1.2305,-1.2305,-1.2305,-1.2305,-1.2305,-1.2305,-2.3166,-2.2975,-2.2873,-2.2532,-2.2011,-2.1991,-2.1657,-2.1156,-2.1122,-2.1102,-2.1102,-2.1102,-2.1299,-2.1551,-2.1544,-2.1551,-2.1664,-2.2201,-2.2474,-2.2537,-2.2883,-2.3207,-2.3454,-2.3852,-2.4283,-2.4855,-2.5421,-2.6282,-2.7241,-2.7227,-2.7365,-2.7578,-2.6816,-2.6396,-2.6279,-2.5928,-2.5518,-2.5156,-2.5077,-2.4685,-2.3935,-2.3779,-2.3545,-2.3169,-2.3101,-2.3101,-2.3101,-2.3101,-2.3101,-2.3101,-2.3052,-2.3052,-2.3052,-2.3023,-2.2818,-2.25,-2.209,-2.1855,-2.1807,-2.1455,-2.1151,-2.1093,-2.082,-2.0615,-2.0615,-2.0615,-2.0615,-2.0615,-2.0615,-2.0615,-2.0615,-2.0615,-2.0615,-2.0615,-2.0615,-2.0615,-2.0615,-2.0615,-2.0615,-2.0615,-2.0615,-2.0615,-2.0615,-2.0615,-2.0615,-2.0537,-2.0156,-1.9671,-1.9118,-1.8485,-1.787,-1.7325,-1.6788,-1.6307,-1.6281,-1.5929,-1.5576,-1.5213,-1.4713,-1.4317,-1.3912,-1.3513,-1.3149,-1.2826,-1.2562,-1.2378,-1.2342,-1.2305,-1.2305,-1.2305,-1.2305,-1.2305,-1.2305,-1.2305,-1.2305,-2.314,-2.2866,-2.2866,-2.2593,-2.2004,-2.1984,-2.165,-2.1122,-2.1102,-2.1102,-2.1102,-2.1292,-2.1481,-2.1607,-2.2048,-2.2111,-2.1985,-2.2613,-2.2915,-2.297,-2.3459,-2.3896,-2.419,-2.4449,-2.4904,-2.5427,-2.5803,-2.6445,-2.7314,-2.7529,-2.7646,-2.7607,-2.709,-2.666,-2.6357,-2.5908,-2.5596,-2.5488,-2.5234,-2.4959,-2.4617,-2.4072,-2.3701,-2.3555,-2.3237,-2.3101,-2.3101,-2.3101,-2.3101,-2.3101,-2.3101,-2.3101,-2.3101,-2.3101,-2.3033,-2.2847,-2.2519,-2.2285,-2.2236,-2.1894,-2.1523,-2.121,-2.1054,-2.0859,-2.0674,-2.0615,-2.0615,-2.0615,-2.0615,-2.0615,-2.0615,-2.0615,-2.0615,-2.0615,-2.0615,-2.0615,-2.0615,-2.0615,-2.0615,-2.0615,-2.0615,-2.0615,-2.0615,-2.0615,-2.0615,-2.0566,-2.0185,-1.977,-1.9341,-1.8686,-1.8012,-1.7541,-1.6863,-1.6307,-1.6307,-1.5771,-1.5311,-1.4999,-1.4613,-1.4217,-1.3819,-1.3375,-1.2973,-1.2863,-1.2562,-1.2342,-1.2305,-1.2305,-1.2305,-1.2305,-1.2305,-1.2305,-1.2305,-1.2305,-1.2305,-2.3053,-2.2879,-2.2866,-2.2579,-2.2138,-2.2017,-2.1704,-2.1263,-2.1156,-2.1172,-2.1299,-2.1481,-2.174,-2.1985,-2.2487,-2.2731,-2.2613,-2.3043,-2.3355,-2.3589,-2.4185,-2.4569,-2.4935,-2.5261,-2.5592,-2.5965,-2.6371,-2.6881,-2.7539,-2.7853,-2.7975,-2.7861,-2.7441,-2.7012,-2.6592,-2.6172,-2.5849,-2.5713,-2.543,-2.5225,-2.5057,-2.4375,-2.3926,-2.374,-2.3369,-2.3101,-2.3101,-2.3101,-2.3101,-2.3101,-2.3101,-2.3101,-2.3101,-2.3101,-2.3101,-2.3062,-2.2838,-2.2715,-2.2666,-2.2314,-2.1953,-2.168,-2.1473,-2.125,-2.084,-2.0781,-2.0762,-2.0654,-2.0615,-2.0615,-2.0615,-2.0615,-2.0615,-2.0615,-2.0615,-2.0615,-2.0615,-2.0615,-2.0615,-2.0615,-2.0615,-2.0615,-2.0615,-2.0615,-2.0615,-2.0615,-2.0293,-2.0031,-1.96,-1.9039,-1.826,-1.7847,-1.708,-1.6546,-1.6263,-1.5744,-1.5346,-1.4991,-1.4497,-1.4109,-1.3783,-1.3309,-1.2973,-1.2863,-1.2673,-1.2452,-1.2342,-1.2305,-1.2305,-1.2305,-1.2305,-1.2305,-1.2305,-1.2305,-1.2305,-2.2873,-2.2866,-2.2866,-2.2686,-2.2358,-2.2091,-2.1817,-2.151,-2.1293,-2.1299,-2.1544,-2.1607,-2.2048,-2.255,-2.2926,-2.3293,-2.3604,-2.3673,-2.3984,-2.4533,-2.4887,-2.5262,-2.5588,-2.6126,-2.64,-2.6412,-2.7049,-2.7558,-2.7853,-2.813,-2.8262,-2.8193,-2.7812,-2.7363,-2.6992,-2.6533,-2.6143,-2.581,-2.5625,-2.5488,-2.5088,-2.4658,-2.4238,-2.3848,-2.3374,-2.313,-2.3101,-2.3101,-2.3101,-2.3101,-2.3101,-2.3101,-2.3101,-2.3101,-2.3101,-2.3101,-2.3071,-2.3071,-2.3023,-2.2691,-2.25,-2.2334,-2.21,-2.1709,-2.1318,-2.119,-2.1094,-2.085,-2.0703,-2.0654,-2.0664,-2.0625,-2.0615,-2.0615,-2.0615,-2.0615,-2.0615,-2.0615,-2.0615,-2.0615,-2.0615,-2.0615,-2.0615,-2.0615,-2.0615,-2.0595,-2.0546,-2.0342,-1.9869,-1.9411,-1.8844,-1.8071,-1.7342,-1.6786,-1.6262,-1.5744,-1.5453,-1.5089,-1.4525,-1.4029,-1.3855,-1.3492,-1.309,-1.2936,-1.2643,-1.2415,-1.2305,-1.2305,-1.2305,-1.2305,-1.2305,-1.2305,-1.2305,-1.2305,-1.2305,-2.2866,-2.2866,-2.2866,-2.2692,-2.2398,-2.2104,-2.1817,-2.1594,-2.149,-2.1551,-2.167,-2.2111,-2.255,-2.2918,-2.33,-2.386,-2.461,-2.461,-2.4734,-2.5042,-2.5525,-2.6086,-2.6558,-2.6729,-2.6911,-2.7223,-2.7594,-2.786,-2.7964,-2.8194,-2.8301,-2.8213,-2.7881,-2.7441,-2.7041,-2.6592,-2.6172,-2.5732,-2.5684,-2.5654,-2.5498,-2.5088,-2.4658,-2.4228,-2.3809,-2.3413,-2.313,-2.3101,-2.3101,-2.3101,-2.3101,-2.3101,-2.3101,-2.3101,-2.3101,-2.3101,-2.3101,-2.3101,-2.3081,-2.2974,-2.2793,-2.2568,-2.2383,-2.2119,-2.1748,-2.1689,-2.1611,-2.1426,-2.1221,-2.1035,-2.0986,-2.0732,-2.0644,-2.0615,-2.0615,-2.0615,-2.0615,-2.0615,-2.0615,-2.0615,-2.0615,-2.0615,-2.0615,-2.0615,-2.0615,-2.0615,-2.0615,-2.044,-2.0149,-1.9669,-1.9193,-1.8658,-1.7852,-1.7081,-1.6616,-1.6093,-1.5644,-1.5237,-1.4633,-1.4137,-1.392,-1.3637,-1.3273,-1.29,-1.2643,-1.2452,-1.2342,-1.2305,-1.2305,-1.2305,-1.2305,-1.2305,-1.2305,-1.2305,-1.2305,-2.2866,-2.2866,-2.2866,-2.2759,-2.2539,-2.2164,-2.1949,-2.1923,-2.1658,-2.174,-2.2048,-2.255,-2.2981,-2.3362,-2.386,-2.4487,-2.5103,-2.5594,-2.5847,-2.59,-2.6205,-2.6753,-2.7246,-2.7384,-2.7754,-2.8192,-2.8359,-2.8387,-2.8275,-2.8408,-2.8447,-2.8262,-2.8027,-2.7685,-2.7246,-2.6836,-2.6406,-2.5976,-2.583,-2.5684,-2.5596,-2.5303,-2.4932,-2.4619,-2.4092,-2.3672,-2.3389,-2.3188,-2.3101,-2.3101,-2.3101,-2.3101,-2.3101,-2.3101,-2.3101,-2.3101,-2.3101,-2.3101,-2.3101,-2.3081,-2.3003,-2.275,-2.2701,-2.2559,-2.2217,-2.2119,-2.208,-2.1855,-2.1641,-2.1475,-2.1416,-2.1084,-2.084,-2.082,-2.0664,-2.0625,-2.0615,-2.0615,-2.0615,-2.0615,-2.0615,-2.0615,-2.0615,-2.0615,-2.0615,-2.0615,-2.0615,-2.0566,-2.0362,-2.0004,-1.9601,-1.9126,-1.846,-1.7732,-1.7071,-1.6481,-1.5888,-1.5358,-1.482,-1.4353,-1.4029,-1.3746,-1.3419,-1.301,-1.2673,-1.2489,-1.2378,-1.2305,-1.2305,-1.2305,-1.2305,-1.2305,-1.2305,-1.2305,-1.2305,-2.2866,-2.2866,-2.2866,-2.2853,-2.2759,-2.2298,-2.2161,-2.2336,-2.1924,-2.2048,-2.2606,-2.2981,-2.3355,-2.386,-2.461,-2.5111,-2.541,-2.6405,-2.7012,-2.7133,-2.7254,-2.7487,-2.7709,-2.8224,-2.8765,-2.9174,-2.9154,-2.9012,-2.8813,-2.8803,-2.8701,-2.832,-2.8242,-2.8066,-2.766,-2.7236,-2.6816,-2.6338,-2.5986,-2.5762,-2.5684,-2.5371,-2.5088,-2.5057,-2.4346,-2.3896,-2.3691,-2.3305,-2.3101,-2.3101,-2.3101,-2.3101,-2.3101,-2.3101,-2.3101,-2.3101,-2.3101,-2.3101,-2.3101,-2.3101,-2.3081,-2.3042,-2.3013,-2.2945,-2.2617,-2.2539,-2.2432,-2.2139,-2.1982,-2.1914,-2.1846,-2.1533,-2.1249,-2.1132,-2.081,-2.0635,-2.0615,-2.0615,-2.0615,-2.0615,-2.0615,-2.0615,-2.0615,-2.0615,-2.0615,-2.0615,-2.0615,-2.0566,-2.0518,-2.0265,-1.9966,-1.9486,-1.8889,-1.8329,-1.7621,-1.6946,-1.6355,-1.5848,-1.5248,-1.4748,-1.4173,-1.3855,-1.3528,-1.3083,-1.2746,-1.2562,-1.2415,-1.2378,-1.2305,-1.2305,-1.2305,-1.2305,-1.2305,-1.2305,-1.2305,-2.2866,-2.2866,-2.2866,-2.2866,-2.2847,-2.2498,-2.2438,-2.2487,-2.237,-2.2543,-2.2988,-2.3293,-2.3922,-2.4672,-2.4988,-2.5602,-2.6457,-2.696,-2.7556,-2.8097,-2.8388,-2.8507,-2.8728,-2.9229,-2.9542,-2.969,-2.9661,-2.9387,-2.892,-2.8965,-2.873,-2.831,-2.8301,-2.8096,-2.7748,-2.7601,-2.709,-2.6484,-2.6299,-2.6035,-2.5723,-2.5586,-2.54,-2.5106,-2.4834,-2.4385,-2.3848,-2.3369,-2.3101,-2.3101,-2.3101,-2.3101,-2.3101,-2.3101,-2.3101,-2.3101,-2.3101,-2.3101,-2.3101,-2.3101,-2.3101,-2.3101,-2.3101,-2.3042,-2.2955,-2.2925,-2.2877,-2.2711,-2.2559,-2.2353,-2.2285,-2.1963,-2.1621,-2.12,-2.0898,-2.0664,-2.0615,-2.0615,-2.0615,-2.0615,-2.0615,-2.0615,-2.0615,-2.0615,-2.0615,-2.0615,-2.0615,-2.0615,-2.0566,-2.045,-2.0149,-1.9782,-1.9265,-1.8755,-1.8141,-1.7449,-1.6837,-1.6334,-1.5785,-1.5221,-1.4569,-1.392,-1.3557,-1.3156,-1.282,-1.2599,-1.2489,-1.2415,-1.2378,-1.2305,-1.2305,-1.2305,-1.2305,-1.2305,-1.2305,-2.2866,-2.2866,-2.2866,-2.2854,-2.289,-2.2642,-2.2566,-2.2762,-2.2779,-2.2988,-2.3362,-2.3984,-2.4548,-2.5111,-2.5725,-2.6336,-2.7081,-2.7677,-2.8208,-2.8687,-2.9331,-2.945,-2.9509,-2.9853,-3.0082,-3.0065,-3.0209,-2.9946,-2.9541,-2.9287,-2.8965,-2.8603,-2.8379,-2.8164,-2.7969,-2.7777,-2.7513,-2.6953,-2.6621,-2.624,-2.6035,-2.5771,-2.5625,-2.5332,-2.5176,-2.4658,-2.3877,-2.3545,-2.334,-2.3159,-2.3101,-2.3101,-2.3101,-2.3101,-2.3101,-2.3101,-2.3101,-2.3101,-2.3101,-2.3101,-2.3101,-2.3101,-2.3101,-2.3101,-2.3081,-2.3101,-2.3101,-2.3033,-2.2857,-2.2803,-2.2715,-2.2393,-2.1982,-2.1592,-2.1279,-2.1006,-2.0683,-2.0615,-2.0615,-2.0615,-2.0615,-2.0615,-2.0615,-2.0615,-2.0615,-2.0615,-2.0615,-2.0615,-2.0576,-2.0459,-2.0323,-1.9993,-1.9752,-1.9303,-1.8811,-1.8144,-1.7324,-1.6817,-1.6086,-1.5554,-1.482,-1.4101,-1.371,-1.3346,-1.2973,-1.2709,-1.2599,-1.2489,-1.2342,-1.2305,-1.2305,-1.2305,-1.2305,-1.2305,-1.2305,-2.2928,-2.2928,-2.2928,-2.2964,-2.2941,-2.2693,-2.2867,-2.3135,-2.3126,-2.3425,-2.3922,-2.4734,-2.5173,-2.5357,-2.6457,-2.7133,-2.7435,-2.8388,-2.8916,-2.939,-2.9863,-3.0157,-3.0049,-3.0274,-3.0431,-3.0451,-3.0752,-3.0509,-3.0098,-2.9756,-2.9365,-2.8916,-2.8525,-2.834,-2.8193,-2.793,-2.7787,-2.7532,-2.6963,-2.6553,-2.6318,-2.6025,-2.581,-2.5625,-2.5254,-2.4775,-2.417,-2.3828,-2.3603,-2.3188,-2.313,-2.3101,-2.3101,-2.3101,-2.3101,-2.3101,-2.3101,-2.3101,-2.3101,-2.3101,-2.3101,-2.3101,-2.3101,-2.3101,-2.3101,-2.3101,-2.3101,-2.3101,-2.3101,-2.3042,-2.2994,-2.2721,-2.2402,-2.2041,-2.1924,-2.1584,-2.0977,-2.0703,-2.0664,-2.0615,-2.0615,-2.0615,-2.0615,-2.0615,-2.0615,-2.0615,-2.0615,-2.0615,-2.0615,-2.0537,-2.042,-2.0235,-2.0051,-1.9936,-1.9409,-1.8859,-1.8007,-1.7251,-1.6425,-1.5736,-1.5023,-1.4353,-1.3928,-1.3528,-1.32,-1.29,-1.2709,-1.2562,-1.2415,-1.2305,-1.2305,-1.2305,-1.2305,-1.2305,-1.2305,-2.3071,-2.3263,-2.327,-2.3296,-2.3335,-2.3292,-2.3364,-2.3496,-2.3495,-2.3984,-2.4664,-2.505,-2.5725,-2.6648,-2.7012,-2.7608,-2.8448,-2.8925,-2.9331,-3.0098,-3.0274,-3.0518,-3.0587,-3.0762,-3.0762,-3.083,-3.083,-3.0644,-3.0264,-3.0059,-2.9668,-2.9023,-2.8838,-2.8613,-2.832,-2.8193,-2.8022,-2.7748,-2.7493,-2.7012,-2.6523,-2.6309,-2.6055,-2.5752,-2.5322,-2.5077,-2.4707,-2.4141,-2.376,-2.3594,-2.3305,-2.3149,-2.3101,-2.3101,-2.3101,-2.3101,-2.3101,-2.3101,-2.3101,-2.3101,-2.3101,-2.3101,-2.3101,-2.3101,-2.3101,-2.3101,-2.3101,-2.3101,-2.3101,-2.3101,-2.3081,-2.3023,-2.275,-2.248,-2.2363,-2.2178,-2.168,-2.1279,-2.0937,-2.0693,-2.0625,-2.0615,-2.0615,-2.0615,-2.0615,-2.0615,-2.0615,-2.0615,-2.0615,-2.0615,-2.0489,-2.0381,-2.0313,-2.0159,-1.9772,-1.9209,-1.8403,-1.7595,-1.6808,-1.6096,-1.5369,-1.4641,-1.4217,-1.379,-1.339,-1.3127,-1.29,-1.268,-1.2532,-1.2415,-1.2311,-1.2345,-1.2395,-1.2338,-1.2445,-2.327,-2.3386,-2.3459,-2.3493,-2.3516,-2.353,-2.3598,-2.3691,-2.4137,-2.461,-2.5165,-2.5656,-2.6457,-2.7133,-2.7728,-2.8439,-2.8984,-2.9518,-2.9981,-3.0518,-3.0635,-3.0704,-3.083,-3.0898,-3.0898,-3.0898,-3.0898,-3.0723,-3.0537,-3.0283,-2.9961,-2.9502,-2.915,-2.8818,-2.8564,-2.8398,-2.8193,-2.8022,-2.7806,-2.7464,-2.7092,-2.6562,-2.6182,-2.582,-2.5488,-2.5303,-2.5,-2.4715,-2.4245,-2.3857,-2.3574,-2.3296,-2.312,-2.3101,-2.3101,-2.3101,-2.3101,-2.3101,-2.3101,-2.3101,-2.3101,-2.3101,-2.3101,-2.3101,-2.3101,-2.3101,-2.3101,-2.3101,-2.3101,-2.3101,-2.3101,-2.3091,-2.2945,-2.2857,-2.2803,-2.2574,-2.2197,-2.1641,-2.1142,-2.0889,-2.0742,-2.0654,-2.0615,-2.0644,-2.0615,-2.0615,-2.0615,-2.0615,-2.0615,-2.0605,-2.0566,-2.0489,-2.0489,-2.0333,-1.9993,-1.9437,-1.869,-1.794,-1.7193,-1.6572,-1.5975,-1.5206,-1.4505,-1.4072,-1.3637,-1.3346,-1.3083,-1.29,-1.268,-1.2562,-1.2472,-1.2496,-1.254,-1.2589,-1.2719,-2.3447,-2.3521,-2.3602,-2.3617,-2.3595,-2.3777,-2.3877,-2.4022,-2.4795,-2.5288,-2.5594,-2.664,-2.7133,-2.7616,-2.8448,-2.8984,-2.945,-2.9981,-3.0635,-3.082,-3.083,-3.0889,-3.0898,-3.0898,-3.0898,-3.0898,-3.0898,-3.0859,-3.0752,-3.0518,-3.0264,-3.0059,-2.9424,-2.9014,-2.8848,-2.8516,-2.8271,-2.8193,-2.7969,-2.7725,-2.7591,-2.6963,-2.6465,-2.5967,-2.5674,-2.5537,-2.5264,-2.5067,-2.4763,-2.4043,-2.3926,-2.3652,-2.3296,-2.311,-2.3101,-2.3101,-2.3101,-2.3101,-2.3101,-2.3101,-2.3101,-2.3101,-2.3101,-2.3101,-2.3101,-2.3101,-2.3101,-2.3101,-2.3101,-2.3101,-2.3101,-2.3101,-2.3101,-2.3071,-2.3081,-2.2925,-2.2535,-2.1853,-2.1512,-2.1289,-2.1025,-2.082,-2.0713,-2.0674,-2.0664,-2.0615,-2.0615,-2.0615,-2.0615,-2.0605,-2.0566,-2.0566,-2.0527,-2.045,-2.0158,-1.9828,-1.9056,-1.8372,-1.7673,-1.7116,-1.6603,-1.6043,-1.5284,-1.4364,-1.3884,-1.3587,-1.3331,-1.3083,-1.29,-1.2709,-1.2658,-1.2699,-1.2752,-1.2849,-1.3025,-2.3872,-2.3894,-2.4244,-2.4218,-2.4096,-2.4634,-2.4789,-2.4888,-2.5357,-2.6039,-2.6709,-2.7012,-2.7788,-2.8507,-2.8806,-2.9381,-3.0098,-3.0577,-3.083,-3.0889,-3.0898,-3.0898,-3.0898,-3.0898,-3.0898,-3.0898,-3.0898,-3.0898,-3.0889,-3.0801,-3.0547,-3.0176,-2.9717,-2.9336,-2.8935,-2.8525,-2.833,-2.8301,-2.8174,-2.7998,-2.7725,-2.7503,-2.6982,-2.6328,-2.5996,-2.5713,-2.5586,-2.5273,-2.5037,-2.4881,-2.4512,-2.4121,-2.3711,-2.3369,-2.3149,-2.3101,-2.3101,-2.3101,-2.3101,-2.3101,-2.3101,-2.3101,-2.3101,-2.3101,-2.3101,-2.3101,-2.3101,-2.3101,-2.3101,-2.3101,-2.3101,-2.3101,-2.3101,-2.3101,-2.3081,-2.3052,-2.2877,-2.2526,-2.2087,-2.1885,-2.1484,-2.1103,-2.1045,-2.0908,-2.0771,-2.0732,-2.0654,-2.0635,-2.0615,-2.0615,-2.0605,-2.0605,-2.0605,-2.045,-2.0284,-2.0021,-1.9529,-1.8931,-1.8267,-1.7719,-1.7232,-1.6874,-1.6175,-1.5267,-1.4431,-1.3969,-1.3682,-1.3447,-1.3285,-1.3221,-1.3081,-1.2951,-1.3058,-1.3216,-1.3306,-2.4233,-2.4253,-2.4464,-2.4596,-2.4682,-2.4922,-2.5332,-2.5672,-2.6153,-2.67,-2.7297,-2.7848,-2.8388,-2.9044,-2.9577,-3.0108,-3.0587,-3.0762,-3.0889,-3.0898,-3.0898,-3.0898,-3.0898,-3.0898,-3.0898,-3.0898,-3.0898,-3.0898,-3.0898,-3.0889,-3.0752,-3.0537,-3.0117,-2.9678,-2.9258,-2.8857,-2.8516,-2.8379,-2.8291,-2.8203,-2.7959,-2.7855,-2.7305,-2.6797,-2.6318,-2.6103,-2.5996,-2.5606,-2.5303,-2.5125,-2.4863,-2.4531,-2.4141,-2.375,-2.3379,-2.3169,-2.3101,-2.3101,-2.3101,-2.3101,-2.3101,-2.3101,-2.3101,-2.3101,-2.3101,-2.3101,-2.3101,-2.3101,-2.3101,-2.3101,-2.3101,-2.3101,-2.3101,-2.3101,-2.3101,-2.3101,-2.3052,-2.2886,-2.2705,-2.2422,-2.1973,-2.1641,-2.1504,-2.1309,-2.1016,-2.084,-2.0742,-2.0674,-2.0625,-2.0615,-2.0615,-2.0615,-2.0615,-2.0498,-2.0372,-2.0167,-1.9913,-1.9327,-1.8852,-1.8305,-1.7829,-1.743,-1.6913,-1.615,-1.5383,-1.4779,-1.4411,-1.4305,-1.4011,-1.3726,-1.3686,-1.3642,-1.3574,-1.36,-1.3676,-2.462,-2.4648,-2.4777,-2.4959,-2.5235,-2.5416,-2.5847,-2.638,-2.7004,-2.7478,-2.7891,-2.8618,-2.9044,-2.9459,-3.0049,-3.0645,-3.0898,-3.0889,-3.0889,-3.0898,-3.0898,-3.0898,-3.0898,-3.0898,-3.0898,-3.0898,-3.0898,-3.0898,-3.0898,-3.0898,-3.0898,-3.0713,-3.04,-3.0049,-2.9658,-2.9131,-2.876,-2.8516,-2.831,-2.8301,-2.8193,-2.7881,-2.7519,-2.7158,-2.6728,-2.6484,-2.6309,-2.6055,-2.5644,-2.5371,-2.5176,-2.5,-2.459,-2.4228,-2.3809,-2.3359,-2.3169,-2.3101,-2.3101,-2.3101,-2.3101,-2.3101,-2.3101,-2.3101,-2.3101,-2.3101,-2.3101,-2.3101,-2.3101,-2.3101,-2.3101,-2.3101,-2.3101,-2.3101,-2.3101,-2.3101,-2.3101,-2.3042,-2.3023,-2.2764,-2.2402,-2.2168,-2.2002,-2.166,-2.1357,-2.1074,-2.0937,-2.0742,-2.0693,-2.0625,-2.0615,-2.0615,-2.0576,-2.0537,-2.042,-2.0333,-2.005,-1.9651,-1.9277,-1.8848,-1.8392,-1.7979,-1.7452,-1.7026,-1.6701,-1.616,-1.5662,-1.5041,-1.4605,-1.4344,-1.4372,-1.4273,-1.4095,-1.4027,-1.4028,-2.5073,-2.5051,-2.5352,-2.5523,-2.57,-2.6422,-2.6891,-2.7064,-2.7668,-2.8259,-2.8737,-2.8975,-2.9509,-3.0098,-3.0587,-3.083,-3.0889,-3.0898,-3.0898,-3.0898,-3.0898,-3.0898,-3.0898,-3.0898,-3.0898,-3.0898,-3.0898,-3.0898,-3.0898,-3.0898,-3.0898,-3.0791,-3.0498,-3.0146,-2.999,-2.9434,-2.8906,-2.8789,-2.8476,-2.8301,-2.8232,-2.79,-2.7695,-2.751,-2.7178,-2.6826,-2.6553,-2.6348,-2.6045,-2.5664,-2.5586,-2.542,-2.5078,-2.4971,-2.4509,-2.3877,-2.3354,-2.3101,-2.311,-2.3101,-2.3101,-2.3101,-2.3101,-2.3101,-2.3101,-2.3101,-2.3101,-2.3101,-2.3101,-2.3101,-2.3101,-2.3101,-2.3101,-2.3101,-2.3101,-2.3101,-2.3101,-2.3101,-2.3101,-2.3081,-2.2711,-2.2617,-2.248,-2.207,-2.1689,-2.1416,-2.1112,-2.0918,-2.0762,-2.0693,-2.0615,-2.0615,-2.0615,-2.0576,-2.0537,-2.0411,-2.0216,-1.9902,-1.9631,-1.9312,-1.8937,-1.8524,-1.8373,-1.7987,-1.7655,-1.7121,-1.6393,-1.5732,-1.5172,-1.4975,-1.4931,-1.4772,-1.4574,-1.4488,-1.4393,-2.583,-2.5729,-2.6034,-2.624,-2.6535,-2.7056,-2.7547,-2.7908,-2.8388,-2.8856,-2.9272,-2.9686,-3.0157,-3.0635,-3.0889,-3.0889,-3.0898,-3.0898,-3.0898,-3.0898,-3.0898,-3.0898,-3.0898,-3.0898,-3.0898,-3.0898,-3.0898,-3.0898,-3.0898,-3.0898,-3.0898,-3.0859,-3.0674,-3.043,-3.0273,-2.9844,-2.9375,-2.8955,-2.8535,-2.831,-2.8252,-2.8125,-2.8008,-2.7998,-2.7588,-2.7305,-2.7051,-2.6572,-2.6348,-2.6055,-2.5918,-2.5615,-2.542,-2.5215,-2.4891,-2.4646,-2.4111,-2.3672,-2.3198,-2.313,-2.311,-2.3101,-2.3101,-2.3101,-2.3101,-2.3101,-2.3101,-2.3101,-2.3101,-2.3101,-2.3101,-2.3101,-2.3101,-2.3101,-2.3101,-2.3101,-2.3101,-2.3101,-2.3101,-2.3101,-2.3081,-2.2916,-2.274,-2.249,-2.2158,-2.1934,-2.1522,-2.1191,-2.0937,-2.0772,-2.0683,-2.0615,-2.0615,-2.0576,-2.0566,-2.0527,-2.042,-2.0137,-1.9893,-1.9601,-1.9392,-1.9085,-1.8843,-1.8523,-1.8106,-1.7542,-1.6959,-1.6468,-1.5951,-1.5708,-1.5508,-1.5279,-1.5049,-1.4903,-1.4783,-2.6669,-2.6624,-2.6741,-2.6995,-2.7366,-2.765,-2.808,-2.8636,-2.8984,-2.9331,-2.9795,-3.0274,-3.0645,-3.083,-3.0889,-3.0898,-3.0898,-3.0898,-3.0898,-3.0898,-3.0898,-3.0898,-3.0898,-3.0898,-3.0898,-3.0898,-3.0898,-3.0898,-3.0898,-3.0898,-3.0898,-3.0898,-3.085,-3.0693,-3.0439,-3.0146,-2.9736,-2.8945,-2.8643,-2.8437,-2.832,-2.8291,-2.8271,-2.8184,-2.8008,-2.7773,-2.763,-2.72,-2.6758,-2.6299,-2.6113,-2.5849,-2.5625,-2.5439,-2.5185,-2.5008,-2.4629,-2.4238,-2.374,-2.3413,-2.3227,-2.313,-2.3101,-2.3101,-2.3101,-2.3101,-2.3101,-2.3101,-2.3101,-2.3101,-2.3101,-2.3101,-2.3101,-2.3101,-2.3101,-2.3101,-2.3101,-2.3101,-2.3101,-2.3101,-2.3101,-2.3101,-2.2935,-2.2779,-2.2574,-2.2389,-2.199,-2.1492,-2.1191,-2.0908,-2.0752,-2.0703,-2.0615,-2.0615,-2.0605,-2.0566,-2.0459,-2.0342,-2.0098,-1.9863,-1.9597,-1.9359,-1.9121,-1.8803,-1.8482,-1.8083,-1.7567,-1.7138,-1.6722,-1.6349,-1.6009,-1.5741,-1.5545,-1.5391,-1.5092,-2.7384,-2.7815,-2.7599,-2.765,-2.796,-2.8268,-2.8627,-2.9035,-2.9331,-2.9795,-3.0333,-3.0704,-3.083,-3.0889,-3.0898,-3.0898,-3.0898,-3.0898,-3.0898,-3.0898,-3.0898,-3.0898,-3.0898,-3.0898,-3.0898,-3.0898,-3.0898,-3.0898,-3.0898,-3.0898,-3.0898,-3.0898,-3.0898,-3.0869,-3.0674,-3.0351,-2.9873,-2.9209,-2.8887,-2.8633,-2.8428,-2.832,-2.8301,-2.8301,-2.8232,-2.8076,-2.7757,-2.7562,-2.7239,-2.6582,-2.6338,-2.6133,-2.583,-2.5625,-2.5449,-2.5215,-2.5117,-2.4746,-2.4326,-2.3828,-2.3506,-2.3237,-2.3101,-2.3101,-2.3101,-2.3101,-2.3101,-2.3101,-2.3101,-2.3101,-2.3101,-2.3101,-2.3101,-2.3101,-2.3101,-2.3101,-2.3101,-2.3101,-2.3101,-2.3101,-2.3101,-2.3101,-2.3091,-2.2935,-2.2828,-2.2652,-2.2379,-2.1882,-2.1424,-2.1162,-2.0928,-2.0771,-2.0654,-2.0615,-2.0615,-2.0576,-2.0527,-2.042,-2.0264,-1.999,-1.9715,-1.9527,-1.9329,-1.9121,-1.8843,-1.8523,-1.8187,-1.7768,-1.7294,-1.6844,-1.6474,-1.6258,-1.6002,-1.5782,-1.5455,-2.8208,-2.8618,-2.8668,-2.8668,-2.8618,-2.8984,-2.9272,-2.9568,-2.9922,-3.0274,-3.0704,-3.083,-3.0898,-3.0898,-3.0898,-3.0898,-3.0898,-3.0898,-3.0898,-3.0898,-3.0898,-3.0898,-3.0898,-3.0898,-3.0898,-3.0898,-3.0898,-3.0898,-3.0898,-3.0898,-3.0898,-3.0898,-3.0898,-3.0889,-3.0742,-3.0478,-3.0029,-2.9668,-2.9199,-2.8818,-2.8691,-2.8398,-2.8301,-2.8301,-2.8301,-2.8232,-2.8047,-2.7793,-2.7542,-2.719,-2.668,-2.6367,-2.6103,-2.5859,-2.5674,-2.5478,-2.5439,-2.5225,-2.4775,-2.4209,-2.3603,-2.3208,-2.3101,-2.3101,-2.311,-2.3101,-2.3101,-2.3101,-2.3101,-2.3101,-2.3101,-2.3101,-2.3101,-2.3101,-2.3101,-2.3101,-2.3101,-2.3101,-2.3101,-2.3101,-2.3101,-2.3101,-2.3101,-2.3081,-2.2994,-2.2886,-2.2604,-2.2292,-2.1865,-2.1484,-2.1279,-2.1055,-2.0948,-2.0801,-2.0801,-2.0723,-2.0596,-2.0566,-2.0478,-2.03,-2.012,-1.9694,-1.9497,-1.9329,-1.9234,-1.9017,-1.8716,-1.8297,-1.7861,-1.7319,-1.7034,-1.6811,-1.6559,-1.6205,-1.5929,-2.8865,-2.9281,-2.9509,-2.9509,-2.9331,-2.9509,-2.9804,-3.0039,-3.0265,-3.0567,-3.0889,-3.0898,-3.0898,-3.0898,-3.0898,-3.0898,-3.0898,-3.0898,-3.0898,-3.0898,-3.0898,-3.0898,-3.0898,-3.0898,-3.0898,-3.0898,-3.0898,-3.0898,-3.0898,-3.0898,-3.0898,-3.0898,-3.0898,-3.0898,-3.082,-3.0605,-3.0342,-3.0039,-2.9707,-2.9092,-2.8945,-2.8662,-2.8369,-2.834,-2.8301,-2.8291,-2.8203,-2.8018,-2.7865,-2.7552,-2.7129,-2.6689,-2.6387,-2.6123,-2.5889,-2.5732,-2.5645,-2.5518,-2.5156,-2.4492,-2.3809,-2.3467,-2.3379,-2.3247,-2.314,-2.3101,-2.3101,-2.3101,-2.3101,-2.3101,-2.3101,-2.3101,-2.3101,-2.3101,-2.3101,-2.3101,-2.3101,-2.3101,-2.3101,-2.3101,-2.3101,-2.3101,-2.3101,-2.3101,-2.3062,-2.3003,-2.2896,-2.2594,-2.2236,-2.1914,-2.1719,-2.1494,-2.1319,-2.1173,-2.1036,-2.1134,-2.1191,-2.1221,-2.111,-2.0942,-2.0663,-2.0203,-2.0012,-2.0055,-1.9911,-1.9602,-1.9357,-1.9182,-1.8519,-1.7788,-1.7535,-1.7329,-1.7085,-1.677,-1.6551,-2.9331,-2.9863,-2.9863,-2.9863,-2.9863,-2.9863,-3.0098,-3.0392,-3.045,-3.0635,-3.0889,-3.0898,-3.0898,-3.0898,-3.0898,-3.0898,-3.0898,-3.0898,-3.0898,-3.0898,-3.0898,-3.0898,-3.0898,-3.0898,-3.0898,-3.0898,-3.0898,-3.0898,-3.0898,-3.0898,-3.0898,-3.0898,-3.0898,-3.0898,-3.0889,-3.0879,-3.0635,-3.0264,-3.0156,-2.9648,-2.9209,-2.8955,-2.8643,-2.8467,-2.832,-2.8301,-2.8252,-2.8223,-2.8027,-2.7764,-2.764,-2.7148,-2.6641,-2.6416,-2.6143,-2.581,-2.5723,-2.5664,-2.5577,-2.4806,-2.4307,-2.3838,-2.3711,-2.3545,-2.3218,-2.311,-2.3101,-2.3101,-2.3101,-2.3101,-2.3101,-2.3101,-2.3101,-2.3101,-2.3101,-2.3101,-2.3101,-2.3101,-2.3101,-2.3101,-2.3101,-2.3101,-2.3101,-2.3101,-2.3101,-2.3081,-2.3091,-2.2867,-2.2559,-2.2285,-2.207,-2.1885,-2.166,-2.1574,-2.1496,-2.1711,-2.1777,-2.1848,-2.1719,-2.144,-2.1289,-2.1087,-2.0907,-2.0861,-2.055,-2.02,-2.0158,-2.0123,-1.9431,-1.8761,-1.8077,-1.7767,-1.7554,-1.7376,-1.7176,-2.9863,-3.0216,-3.0216,-3.0333,-3.0528,-3.0333,-3.0401,-3.0704,-3.0762,-3.082,-3.0889,-3.0898,-3.0898,-3.0898,-3.0898,-3.0898,-3.0898,-3.0898,-3.0898,-3.0898,-3.0898,-3.0898,-3.0898,-3.0898,-3.0898,-3.0898,-3.0898,-3.0898,-3.0898,-3.0898,-3.0898,-3.0898,-3.0898,-3.0898,-3.0889,-3.0889,-3.0771,-3.0615,-3.0371,-3.0019,-2.9726,-2.9248,-2.8857,-2.8682,-2.8447,-2.8301,-2.8301,-2.8301,-2.8184,-2.8008,-2.7881,-2.7562,-2.707,-2.6846,-2.6357,-2.6094,-2.5977,-2.5684,-2.5664,-2.5294,-2.4904,-2.4443,-2.3994,-2.3818,-2.3584,-2.3218,-2.314,-2.3101,-2.311,-2.311,-2.3101,-2.3101,-2.3101,-2.3101,-2.3101,-2.3101,-2.3101,-2.3101,-2.3101,-2.3101,-2.3101,-2.3101,-2.3101,-2.3101,-2.3101,-2.3101,-2.3101,-2.3101,-2.2828,-2.2598,-2.2353,-2.2217,-2.2051,-2.1924,-2.1914,-2.209,-2.2119,-2.206,-2.1953,-2.1797,-2.1702,-2.1742,-2.1579,-2.1398,-2.1123,-2.0866,-2.078,-2.0637,-2.035,-1.9772,-1.9071,-1.8528,-1.8322,-1.8123,-1.7926,-3.0274,-3.0577,-3.0577,-3.0704,-3.083,-3.0635,-3.0704,-3.0898,-3.0898,-3.0898,-3.0898,-3.0898,-3.0898,-3.0898,-3.0898,-3.0898,-3.0898,-3.0898,-3.0898,-3.0898,-3.0898,-3.0898,-3.0898,-3.0898,-3.0898,-3.0898,-3.0898,-3.0898,-3.0898,-3.0898,-3.0898,-3.0898,-3.0898,-3.0898,-3.0898,-3.0889,-3.0879,-3.0771,-3.0576,-3.0361,-3.001,-2.957,-2.9082,-2.8838,-2.8564,-2.8301,-2.8301,-2.8301,-2.8291,-2.8203,-2.8057,-2.7855,-2.7529,-2.7207,-2.668,-2.6396,-2.6006,-2.5723,-2.5674,-2.5664,-2.5284,-2.4933,-2.4482,-2.4189,-2.3984,-2.3633,-2.3467,-2.3325,-2.3208,-2.313,-2.312,-2.312,-2.3101,-2.3101,-2.3101,-2.3101,-2.3101,-2.3101,-2.3101,-2.3101,-2.3101,-2.3101,-2.3101,-2.3101,-2.3101,-2.3101,-2.3101,-2.3101,-2.3101,-2.2847,-2.2676,-2.2578,-2.2519,-2.2471,-2.2432,-2.248,-2.2461,-2.2334,-2.2266,-2.2207,-2.2321,-2.2421,-2.2181,-2.1947,-2.184,-2.1693,-2.1373,-2.1147,-2.0872,-2.0464,-1.992,-1.9463,-1.9142,-1.8789,-1.8473,-3.0529,-3.085,-3.0859,-3.0801,-3.082,-3.0742,-3.0801,-3.0889,-3.0898,-3.0898,-3.0898,-3.0898,-3.0898,-3.0898,-3.0898,-3.0898,-3.0898,-3.0898,-3.0898,-3.0898,-3.0898,-3.0898,-3.0898,-3.0898,-3.0898,-3.0898,-3.0898,-3.0898,-3.0898,-3.0898,-3.0898,-3.0898,-3.0898,-3.0898,-3.0898,-3.0898,-3.0898,-3.085,-3.081,-3.0596,-3.0293,-2.9785,-2.9355,-2.9014,-2.8613,-2.835,-2.8301,-2.8301,-2.8301,-2.8281,-2.8252,-2.8018,-2.7875,-2.7728,-2.7119,-2.6533,-2.5996,-2.582,-2.5684,-2.5684,-2.5664,-2.5401,-2.5244,-2.4883,-2.4463,-2.4062,-2.3857,-2.3672,-2.3535,-2.3305,-2.3179,-2.314,-2.3101,-2.3101,-2.3101,-2.3101,-2.3101,-2.3101,-2.3101,-2.3101,-2.3101,-2.3101,-2.3101,-2.3101,-2.3101,-2.3101,-2.3101,-2.3101,-2.3101,-2.3091,-2.2925,-2.2935,-2.2916,-2.2994,-2.2955,-2.2799,-2.2779,-2.2662,-2.2779,-2.2779,-2.2945,-2.2935,-2.2693,-2.2558,-2.2684,-2.2503,-2.1983,-2.1616,-2.1417,-2.1015,-2.0567,-2.0133,-1.97,-1.9204,-1.8843,-2.9885,-2.9951,-2.9951,-2.9951,-2.9951,-2.9961,-3.035,-3.084,-3.0898,-3.0889,-3.0898,-3.0889,-3.0801,-3.0898,-3.0898,-3.0879,-3.0879,-3.0898,-3.0898,-3.0898,-3.0898,-3.0898,-3.0898,-3.0898,-3.0898,-3.0898,-3.0898,-3.0898,-3.0898,-3.0898,-3.0898,-3.0898,-3.0898,-3.0898,-3.0898,-3.0898,-3.0898,-3.0898,-3.0898,-3.0781,-3.0459,-2.9941,-2.957,-2.9219,-2.8623,-2.8379,-2.8301,-2.8301,-2.8301,-2.8301,-2.8301,-2.8174,-2.8164,-2.7875,-2.7337,-2.6523,-2.623,-2.6103,-2.5762,-2.5684,-2.5684,-2.5684,-2.5576,-2.5332,-2.4922,-2.4541,-2.4268,-2.4102,-2.3857,-2.3662,-2.3452,-2.3374,-2.3276,-2.3218,-2.3179,-2.3101,-2.3101,-2.3101,-2.3101,-2.3101,-2.3101,-2.3101,-2.3101,-2.3101,-2.3101,-2.3101,-2.3101,-2.3101,-2.3101,-2.3101,-2.3101,-2.3101,-2.3101,-2.3101,-2.3101,-2.2974,-2.3023,-2.3062,-2.3101,-2.3101,-2.3052,-2.3042,-2.3038,-2.2969,-2.2882,-2.2662,-2.2359,-2.2052,-2.1785,-2.1616,-2.1221,-2.0736,-2.0246,-1.9754,-1.925,-2.958,-2.958,-2.958,-2.958,-2.958,-2.9636,-2.9912,-3.0322,-3.0371,-3.0371,-3.0371,-3.0351,-3.0371,-3.0361,-3.0488,-3.0596,-3.0615,-3.082,-3.0898,-3.0898,-3.0869,-3.0898,-3.0898,-3.0898,-3.0898,-3.0898,-3.0898,-3.0898,-3.0898,-3.0898,-3.0898,-3.0898,-3.0898,-3.0898,-3.0898,-3.0898,-3.0898,-3.0898,-3.0898,-3.0898,-3.0547,-3.0039,-2.9707,-2.9385,-2.8711,-2.8379,-2.8301,-2.8301,-2.8301,-2.8301,-2.8301,-2.8291,-2.8223,-2.7871,-2.765,-2.6914,-2.6504,-2.6309,-2.6045,-2.5762,-2.5713,-2.5684,-2.5684,-2.5586,-2.5312,-2.4961,-2.4775,-2.4609,-2.4287,-2.4014,-2.3857,-2.3701,-2.3555,-2.3418,-2.3237,-2.311,-2.3101,-2.3101,-2.3101,-2.3101,-2.3101,-2.3101,-2.3101,-2.3101,-2.3101,-2.3101,-2.3101,-2.3101,-2.3101,-2.3101,-2.3101,-2.3101,-2.3101,-2.3101,-2.3101,-2.3101,-2.3101,-2.3101,-2.3101,-2.3101,-2.3101,-2.3091,-2.3091,-2.3013,-2.2925,-2.2706,-2.2574,-2.2353,-2.2141,-2.1919,-2.1705,-2.1248,-2.0744,-2.0292,-1.9754,-2.9509,-2.9443,-2.9473,-2.9404,-2.9453,-2.947,-2.9434,-2.9528,-2.9473,-2.9587,-2.96,-2.9609,-2.9734,-2.9824,-3.0029,-3.0156,-3.0244,-3.0449,-3.0635,-3.081,-3.0742,-3.0762,-3.0869,-3.0898,-3.0898,-3.0898,-3.0898,-3.0898,-3.0898,-3.0898,-3.0898,-3.0898,-3.0898,-3.0898,-3.0898,-3.0898,-3.0898,-3.0898,-3.0869,-3.084,-3.0557,-3.0068,-2.9541,-2.9346,-2.8799,-2.8301,-2.8301,-2.8301,-2.8301,-2.8301,-2.8301,-2.8301,-2.8164,-2.7998,-2.7773,-2.7523,-2.6963,-2.6572,-2.6299,-2.6035,-2.5791,-2.5723,-2.5684,-2.5645,-2.5488,-2.5322,-2.5166,-2.5039,-2.4756,-2.4531,-2.4365,-2.4072,-2.3857,-2.3662,-2.3486,-2.3247,-2.311,-2.3101,-2.3101,-2.3101,-2.3101,-2.3101,-2.3101,-2.3101,-2.3101,-2.3101,-2.3101,-2.3101,-2.3101,-2.3101,-2.3101,-2.3101,-2.3101,-2.3101,-2.3101,-2.3101,-2.3101,-2.3101,-2.3101,-2.3101,-2.3101,-2.3101,-2.3101,-2.3057,-2.2969,-2.2935,-2.2759,-2.2583,-2.2407,-2.223,-2.2008,-2.1696,-2.1248,-2.0798,-2.0292,-2.8594,-2.8594,-2.8594,-2.8594,-2.8603,-2.8594,-2.8613,-2.8594,-2.8594,-2.8984,-2.9528,-2.9551,-2.9531,-2.9512,-2.9619,-2.9717,-2.9785,-2.9961,-3.0088,-3.0273,-3.0371,-3.0518,-3.0791,-3.0781,-3.084,-3.0898,-3.0898,-3.0898,-3.0898,-3.0898,-3.0898,-3.0898,-3.0898,-3.0898,-3.0898,-3.0898,-3.0898,-3.0898,-3.0879,-3.0664,-3.0283,-2.9902,-2.9443,-2.9082,-2.8555,-2.832,-2.8301,-2.8301,-2.8301,-2.8301,-2.8301,-2.8301,-2.8281,-2.8174,-2.7978,-2.7748,-2.7483,-2.7012,-2.6592,-2.6299,-2.6074,-2.5781,-2.5703,-2.5693,-2.5635,-2.5567,-2.5527,-2.54,-2.5254,-2.5049,-2.4814,-2.4482,-2.418,-2.3955,-2.3672,-2.3428,-2.314,-2.311,-2.3101,-2.3101,-2.3101,-2.3101,-2.3101,-2.3101,-2.3101,-2.3101,-2.3101,-2.3101,-2.3101,-2.3101,-2.3101,-2.3101,-2.3101,-2.3101,-2.3101,-2.3101,-2.3101,-2.3101,-2.3101,-2.3101,-2.3101,-2.3101,-2.3101,-2.3101,-2.3057,-2.3013,-2.2925,-2.2838,-2.2662,-2.2495,-2.2264,-2.1909,-2.1651,-2.1248,-2.0744,-2.8301,-2.8301,-2.8301,-2.8301,-2.8301,-2.8301,-2.8301,-2.8301,-2.8301,-2.8555,-2.8955,-2.9004,-2.9014,-2.9082,-2.918,-2.9277,-2.9326,-2.9577,-2.9717,-2.9883,-2.9941,-3.0049,-3.0283,-3.0518,-3.0537,-3.0596,-3.083,-3.0898,-3.0898,-3.0898,-3.0898,-3.0898,-3.0898,-3.0898,-3.0898,-3.0898,-3.0898,-3.0898,-3.0889,-3.0527,-3.0029,-2.9668,-2.9346,-2.8935,-2.8564,-2.835,-2.8301,-2.8301,-2.8301,-2.8301,-2.8301,-2.8301,-2.8301,-2.8271,-2.8164,-2.7969,-2.7777,-2.7513,-2.7002,-2.6621,-2.6338,-2.6074,-2.5732,-2.5723,-2.5684,-2.5615,-2.5615,-2.5566,-2.5547,-2.5371,-2.5244,-2.4971,-2.4746,-2.4531,-2.3994,-2.3555,-2.3301,-2.3101,-2.3101,-2.3101,-2.3101,-2.3101,-2.3101,-2.3101,-2.3101,-2.3101,-2.3101,-2.3101,-2.3101,-2.3101,-2.3101,-2.3101,-2.3101,-2.3101,-2.3101,-2.3101,-2.3101,-2.3101,-2.3101,-2.3101,-2.3101,-2.3101,-2.3101,-2.3101,-2.3101,-2.3101,-2.3013,-2.2969,-2.2838,-2.2715,-2.2441,-2.2132,-2.1919,-2.166,-2.1203,-2.8105,-2.8135,-2.8115,-2.8125,-2.8135,-2.8115,-2.8144,-2.8193,-2.8203,-2.8242,-2.8359,-2.8369,-2.8301,-2.8437,-2.8633,-2.876,-2.8906,-2.9072,-2.9307,-2.9463,-2.9482,-2.9658,-2.9814,-2.9961,-3.0127,-3.0351,-3.0576,-3.0771,-3.0898,-3.0898,-3.0898,-3.0898,-3.0898,-3.0898,-3.0898,-3.0898,-3.0898,-3.085,-3.0703,-3.0303,-2.9912,-2.9541,-2.9238,-2.8877,-2.8516,-2.832,-2.8301,-2.8301,-2.8301,-2.8301,-2.8301,-2.8301,-2.8301,-2.8301,-2.8291,-2.8144,-2.7978,-2.7764,-2.7513,-2.7002,-2.667,-2.6328,-2.5996,-2.582,-2.5752,-2.5684,-2.5684,-2.5674,-2.5654,-2.5615,-2.5537,-2.5439,-2.5234,-2.493,-2.4258,-2.3711,-2.3457,-2.3149,-2.311,-2.311,-2.3101,-2.3101,-2.3101,-2.3101,-2.3101,-2.3101,-2.3101,-2.3101,-2.3101,-2.3101,-2.3101,-2.3101,-2.3101,-2.3101,-2.3101,-2.3101,-2.3101,-2.3101,-2.3101,-2.3101,-2.3101,-2.3101,-2.3101,-2.3101,-2.3101,-2.3101,-2.3101,-2.3057,-2.2969,-2.2891,-2.2662,-2.2397,-2.2132,-2.1874,-2.1571,-2.7266,-2.7256,-2.7256,-2.7275,-2.7275,-2.7275,-2.7461,-2.7754,-2.7845,-2.8022,-2.8193,-2.8281,-2.8301,-2.8291,-2.835,-2.8437,-2.8535,-2.8672,-2.8818,-2.8994,-2.9033,-2.9258,-2.9453,-2.956,-2.9873,-3.0117,-3.0342,-3.0537,-3.0742,-3.084,-3.0898,-3.0898,-3.0898,-3.0898,-3.0898,-3.0898,-3.0889,-3.081,-3.0508,-3.0098,-2.9775,-2.9424,-2.9062,-2.8701,-2.834,-2.8301,-2.8301,-2.8301,-2.8301,-2.8301,-2.8301,-2.8301,-2.8301,-2.8301,-2.8301,-2.8291,-2.8125,-2.7988,-2.7685,-2.7422,-2.7151,-2.6592,-2.6289,-2.6055,-2.5957,-2.5703,-2.5703,-2.5684,-2.5674,-2.5674,-2.5596,-2.5596,-2.5478,-2.4971,-2.4441,-2.3994,-2.3672,-2.3344,-2.3159,-2.313,-2.3101,-2.3101,-2.3101,-2.3101,-2.3101,-2.3101,-2.3101,-2.3101,-2.3101,-2.3101,-2.3101,-2.3101,-2.3101,-2.3101,-2.3101,-2.3101,-2.3101,-2.3101,-2.3101,-2.3101,-2.3101,-2.3101,-2.3101,-2.3101,-2.3101,-2.3101,-2.3101,-2.3101,-2.3101,-2.2969,-2.2838,-2.2662,-2.2397,-2.2087,-2.1785]},{"header":{"parameterUnit":"m.s-1","parameterCategory":1,"la1":31.0,"la2":29.5877,"lo1":-88.7671,"lo2":-86.6584,"dy":0.0162,"dx":0.0185,"nx":115,"ny":88,"refTime":"2023-08-10T06:00:00:Z","depth":0,"parameterNumber":3,"parameterNumberName":"V-component_of_WINDS"},"data":[0.0,0.0,0.0,0.0,0.0,0.0,0.0,0.0,0.0,0.0,0.0,0.0,0.0,0.0,0.0,0.0,0.0,0.0,0.0,0.0,0.0,0.0,0.0,0.0,0.0,0.0,0.0,0.0,0.0,0.0,0.0,0.0,0.0,0.0,0.0,0.0,0.0,0.0,0.0,0.0,0.0,0.0,0.0,0.0,0.0,0.0,0.0,0.0,0.0,0.0,0.0,0.0,0.0,0.0,0.0,0.0,0.0,0.0,0.0,0.0,0.0,0.0,0.0,0.0,0.0,0.0,0.0,0.0,0.0,0.0,0.0,0.0,0.0,0.0,0.0,0.0,0.0,0.0,0.0,0.0,0.0,0.0,0.0,0.0,0.0,0.0,0.0,0.0,0.0,0.0,0.0,0.0,0.0,0.0,0.0,0.0,0.0,0.0,0.0,0.0,0.0,0.0,0.0,0.0,0.0,0.0,0.0,0.0,0.0,0.0,0.0,0.0,0.0,0.0,0.0,0.0,0.0,0.0,0.0,0.0,0.0,0.0,0.0,0.0,0.0,0.0,0.0,0.0,0.0,0.0,0.0,0.0,0.0,0.0,0.0,0.0,0.0,0.0,0.0,0.0,0.0,0.0,0.0,0.0,0.0,0.0,0.0,0.0,0.0,0.0,0.0,0.0,0.0,0.0,0.0,0.0,0.0,0.0,0.0,0.0,0.0,0.0,0.0,0.0,0.0,0.0,0.0,0.0,0.0,0.0,0.0,0.0,0.0,0.0,0.0,0.0,0.0,0.0,0.0,0.0,0.0,0.0,0.0,0.0,0.0,0.0,0.0,0.0,0.0,0.0,0.0,0.0,0.0,0.0,0.0,0.0,0.0,0.0,0.0,0.0,0.0,0.0,0.0,0.0,0.0,0.0,0.0,0.0,0.0,0.0,0.0,0.0,0.0,0.0,0.0,0.0,0.0,0.0,0.0,0.0,0.0,0.0,0.0,0.0,0.0,0.0,0.0,0.0,0.0,0.0,0.0,0.0,0.0,0.0,0.0,0.0,0.0,0.0,0.0,0.0,0.0,0.0,0.0,0.0,0.0,0.0,0.0,0.0,0.0,0.0,0.0,0.0,0.0,0.0,0.0,0.0,0.0,0.0,0.0,0.0,0.0,0.0,0.0,0.0,0.0,0.0,0.0,0.0,0.0,0.0,0.0,0.0,0.0,0.0,0.0,0.0,0.0,0.0,0.0,0.0,0.0,0.0,0.0,0.0,0.0,0.0,0.0,0.0,0.0,0.0,0.0,0.0,0.0,0.0,0.0,0.0,0.0,0.0,0.0,0.0,0.0,0.0,0.0,0.0,0.0,0.0,0.0,0.0,0.0,0.0,0.0,0.0,0.0,0.0,0.0,0.0,0.0,0.0,0.0,0.0,0.0,0.0,0.0,0.0,0.0,0.0,0.0,0.0,0.0,0.0,0.0,0.0,0.0,0.0,0.0,0.0,0.0,0.0,0.0,0.0,0.0,0.0,0.0,0.0,0.0,0.0,0.0,0.0,0.0,0.0,0.0,0.0,0.0,0.0,0.0,0.0,0.0,0.0,0.0,0.0,0.0,0.0,0.0,0.0,0.0,0.0,0.0,0.0,0.0,0.0,0.0,0.0,0.0,0.0,0.0,0.0,0.0,0.0,0.0,0.0,0.0,0.0,0.0,0.0,0.0,0.0,0.0,0.0,0.0,0.0,0.0,0.0,0.0,0.0,0.0,0.0,0.0,0.0,0.0,0.0,0.0,0.0,0.0,0.0,0.0,0.0,0.0,0.0,0.0,0.0,0.0,0.0,0.0,0.0,0.0,0.0,0.0,0.0,0.0,0.0,0.0,0.0,0.0,0.0,0.0,0.0,0.0,0.0,0.0,0.0,0.0,0.0,0.0,0.0,0.0,0.0,0.0,0.0,0.0,0.0,0.0,0.0,0.0,0.0,0.0,0.0,0.0,0.0,0.0,0.0,0.0,0.0,0.0,0.0,0.0,0.0,0.0,0.0,0.0,0.0,0.0,0.0,0.0,0.0,0.0,0.0,0.0,0.0,0.0,0.0,0.0,0.0,0.0,0.0,0.0,0.0,0.0,0.0,0.0,0.0,0.0,0.0,0.0,0.0,0.0,0.0,0.0,0.0,0.0,0.0,0.0,0.0,0.0,0.0,0.0,0.0,0.0,0.0,0.0,0.0,0.0,0.0,0.0,0.0,0.0,0.0,0.0,0.0,0.0,0.0,0.0,0.0,0.0,0.0,0.0,0.0,0.0,0.0,0.0,0.0,0.0,0.0,0.0,0.0,0.0,0.0,0.0,0.0,0.0,0.0,0.0,0.0,0.0,0.0,0.0,0.0,0.0,0.0,0.0,0.0,0.0,0.0,0.0,0.0,0.0,0.0,0.0,0.0,0.0,0.0,0.0,0.0,0.0,0.0,0.0,0.0,0.0,0.0,0.0,0.0,0.0,0.0,0.0,0.0,0.0,0.0,0.0,0.0,0.0,0.0,0.0,0.0,0.0,0.0,0.0,0.0,0.0,0.0,0.0,0.0,0.0,0.0,0.0,0.0,0.0,0.0,0.0,0.0,0.0,0.0,0.0,0.0,0.0,0.0,0.0,0.0,0.0,0.0,0.0,0.0,0.0,0.0,0.0,0.0,0.0,0.0,0.0,0.0,0.0,0.0,0.0,0.0,0.0,0.0,0.0,0.0,0.0,0.0,0.0,0.0,0.0,0.0,0.0,0.0,0.0,0.0,0.0,0.0,0.0,0.0,0.0,0.0,0.0,0.0,0.0,0.0,0.0,0.0,0.0,0.0,0.0,0.0,0.0,0.0,0.0,0.0,0.0,0.0,0.0,0.0,0.0,0.0,0.0,0.0,0.0,0.0,0.0,0.0,0.0,0.0,0.0,0.0,0.0,0.0,0.0,0.0,0.0,0.0,0.0,0.0,0.0,0.0,0.0,0.0,0.0,0.0,0.0,0.0,0.0,0.0,0.0,0.0,0.0,0.0,0.0,0.0,0.0,0.0,0.0,0.0,0.0,0.0,0.0,0.0,0.0,0.0,0.0,0.0,0.0,0.0,0.0,0.0,0.0,0.0,0.0,0.0,0.0,0.0,0.0,0.0,0.0,0.0,0.0,0.0,0.0,0.0,0.0,0.0,0.0,0.0,0.0,0.0,0.0,0.0,0.0,0.0,0.0,0.0,0.0,0.0,0.0,0.0,0.0,0.0,0.0,0.0,0.0,0.0,0.0,0.0,0.0,0.0,0.0,0.0,0.0,0.0,0.0,0.0,0.0,0.0,0.0,0.0,0.0,0.0,0.0,0.0,0.0,0.0,0.0,0.0,0.0,0.0,0.0,0.0,0.0,0.0,0.0,0.0,0.0,0.0,0.0,0.0,0.0,0.0,0.0,0.0,0.0,0.0,0.0,0.0,0.0,0.0,0.0,0.0,0.0,0.0,0.0,0.0,0.0,0.0,0.0,0.0,0.0,0.0,0.0,0.0,0.0,0.0,0.0,0.0,0.0,0.0,0.0,0.0,0.0,0.0,0.0,0.0,0.0,0.0,0.0,0.0,0.0,0.0,0.0,0.0,0.0,0.0,0.0,0.0,0.0,0.0,0.0,0.0,0.0,0.0,0.0,0.0,0.0,0.0,0.0,0.0,0.0,0.0,0.0,0.0,0.0,0.0,0.0,0.0,0.0,0.0,0.0,0.0,0.0,0.0,0.0,0.0,0.0,0.0,0.0,0.0,0.0,0.0,0.0,0.0,0.0,0.0,0.0,0.0,0.0,0.0,0.0,0.0,0.0,0.0,0.0,0.0,0.0,0.0,0.0,0.0,0.0,0.0,0.0,0.0,0.0,0.0,0.0,0.0,0.0,0.0,0.0,0.0,0.0,0.0,0.0,0.0,0.0,0.0,0.0,0.0,0.0,0.0,0.0,0.0,0.0,0.0,0.0,0.0,0.0,0.0,0.0,0.0,0.0,0.0,0.0,0.0,0.0,0.0,0.0,0.0,0.0,0.0,0.0,0.0,0.0,0.0,0.0,0.0,0.0,0.0,0.0,0.0,0.0,0.0,0.0,0.0,0.0,0.0,0.0,0.0,0.0,0.0,0.0,0.0,0.0,0.0,0.0,0.0,0.0,0.0,0.0,0.0,0.0,0.0,0.0,0.0,0.0,0.0,0.0,0.0,0.0,0.0,0.0,0.0,0.0,0.0,0.0,0.0,0.0,0.0,0.0,0.0,0.0,0.0,-1.4254,0.0,0.0,0.0,0.0,0.0,0.0,0.0,0.0,0.0,0.0,0.0,0.0,0.0,0.0,0.0,0.0,0.0,0.0,0.0,0.0,0.0,0.0,0.0,0.0,0.0,0.0,0.0,0.0,0.0,0.0,0.0,0.0,0.0,0.0,0.0,0.0,0.0,0.0,0.0,0.0,0.0,0.0,0.0,0.0,0.0,0.0,0.0,0.0,0.0,0.0,0.0,0.0,0.0,0.0,0.0,0.0,0.0,0.0,0.0,0.0,0.0,0.0,0.0,0.0,0.0,0.0,0.0,0.0,0.0,0.0,0.0,0.0,0.0,0.0,0.0,0.0,0.0,0.0,0.0,0.0,0.0,0.0,0.0,0.0,0.0,0.0,0.0,0.0,0.0,0.0,0.0,0.0,0.0,0.0,0.0,0.0,0.0,0.0,0.0,0.0,0.0,0.0,0.0,0.0,0.0,0.0,0.0,0.0,0.0,0.0,-1.4873,-1.481,-1.4699,-1.459,-1.4511,0.0,0.0,0.0,0.0,0.0,0.0,0.0,0.0,0.0,0.0,0.0,0.0,0.0,0.0,0.0,0.0,0.0,0.0,0.0,0.0,0.0,0.0,0.0,0.0,0.0,0.0,0.0,0.0,0.0,0.0,0.0,0.0,0.0,0.0,0.0,0.0,0.0,0.0,0.0,0.0,0.0,0.0,0.0,0.0,0.0,0.0,0.0,0.0,0.0,0.0,0.0,0.0,0.0,0.0,0.0,0.0,0.0,0.0,0.0,0.0,0.0,0.0,0.0,0.0,0.0,0.0,0.0,0.0,0.0,0.0,0.0,0.0,0.0,0.0,0.0,0.0,0.0,0.0,0.0,0.0,0.0,0.0,0.0,0.0,0.0,0.0,0.0,0.0,0.0,0.0,0.0,0.0,0.0,0.0,0.0,0.0,0.0,0.0,0.0,0.0,0.0,0.0,0.0,0.0,0.0,0.0,0.0,0.0,0.0,0.0,0.0,0.0,-1.4872,-1.481,-1.4746,0.0,0.0,0.0,0.0,0.0,0.0,0.0,0.0,0.0,0.0,0.0,0.0,0.0,0.0,0.0,0.0,0.0,0.0,0.0,0.0,0.0,0.0,0.0,0.0,0.0,0.0,0.0,0.0,0.0,0.0,0.0,0.0,0.0,0.0,0.0,0.0,0.0,0.0,0.0,0.0,0.0,0.0,0.0,0.0,0.0,0.0,0.0,0.0,0.0,0.0,0.0,0.0,0.0,0.0,0.0,0.0,0.0,0.0,0.0,0.0,0.0,0.0,0.0,0.0,0.0,0.0,0.0,0.0,0.0,0.0,0.0,0.0,0.0,0.0,0.0,0.0,0.0,0.0,0.0,0.0,0.0,0.0,0.0,0.0,0.0,0.0,0.0,0.0,0.0,0.0,0.0,0.0,0.0,0.0,0.0,0.0,0.0,0.0,0.0,0.0,0.0,0.0,0.0,0.0,0.0,0.0,0.0,0.0,0.0,0.0,-1.5253,-1.5177,-1.5042,0.0,-1.4872,0.0,0.0,0.0,0.0,0.0,0.0,0.0,0.0,0.0,0.0,0.0,0.0,0.0,0.0,0.0,0.0,0.0,0.0,0.0,0.0,0.0,0.0,0.0,0.0,0.0,0.0,0.0,0.0,0.0,0.0,0.0,0.0,0.0,0.0,0.0,0.0,0.0,0.0,0.0,0.0,0.0,0.0,0.0,0.0,0.0,0.0,0.0,0.0,0.0,0.0,0.0,0.0,0.0,0.0,0.0,0.0,0.0,0.0,0.0,0.0,0.0,0.0,0.0,0.0,0.0,0.0,0.0,0.0,0.0,0.0,0.0,0.0,0.0,0.0,0.0,0.0,0.0,0.0,0.0,0.0,0.0,0.0,0.0,0.0,0.0,0.0,0.0,0.0,0.0,0.0,0.0,0.0,0.0,0.0,0.0,0.0,0.0,0.0,0.0,0.0,0.0,0.0,0.0,0.0,0.0,0.0,0.0,0.0,0.0,0.0,-1.6179,-1.6495,-1.6335,-1.6035,0.0,0.0,0.0,0.0,0.0,0.0,0.0,0.0,0.0,0.0,0.0,0.0,0.0,0.0,0.0,0.0,0.0,0.0,0.0,0.0,0.0,0.0,0.0,0.0,0.0,0.0,0.0,0.0,0.0,0.0,0.0,0.0,0.0,0.0,0.0,0.0,0.0,0.0,0.0,0.0,0.0,0.0,0.0,0.0,0.0,0.0,0.0,0.0,0.0,0.0,0.0,0.0,0.0,0.0,0.0,0.0,0.0,0.0,0.0,0.0,0.0,0.0,0.0,0.0,0.0,0.0,0.0,0.0,0.0,0.0,0.0,0.0,0.0,0.0,0.0,0.0,0.0,0.0,0.0,0.0,0.0,0.0,0.0,0.0,0.0,0.0,0.0,0.0,0.0,0.0,0.0,0.0,0.0,0.0,0.0,0.0,0.0,0.0,0.0,0.0,0.0,0.0,0.0,0.0,0.0,0.0,0.0,0.0,0.0,0.0,-1.6793,-1.6997,-1.7386,-1.7298,-1.6949,-1.6402,0.0,0.0,0.0,0.0,0.0,0.0,0.0,0.0,0.0,0.0,0.0,0.0,0.0,0.0,0.0,0.0,0.0,0.0,0.0,0.0,0.0,0.0,0.0,0.0,0.0,0.0,0.0,0.0,0.0,0.0,0.0,0.0,0.0,0.0,0.0,0.0,0.0,0.0,0.0,0.0,0.0,0.0,0.0,0.0,0.0,0.0,0.0,0.0,0.0,0.0,0.0,0.0,0.0,0.0,0.0,0.0,0.0,0.0,0.0,0.0,0.0,0.0,0.0,0.0,0.0,0.0,0.0,0.0,0.0,0.0,0.0,0.0,0.0,0.0,0.0,0.0,0.0,0.0,0.0,0.0,0.0,0.0,0.0,0.0,0.0,0.0,0.0,0.0,0.0,0.0,0.0,0.0,0.0,0.0,0.0,0.0,0.0,0.0,0.0,0.0,0.0,0.0,0.0,0.0,0.0,0.0,0.0,0.0,-1.7556,-1.7571,-1.7537,-1.7543,-1.7495,-1.7432,0.0,0.0,0.0,0.0,0.0,0.0,0.0,0.0,0.0,0.0,0.0,0.0,0.0,0.0,0.0,0.0,0.0,0.0,0.0,0.0,0.0,0.0,0.0,0.0,0.0,0.0,0.0,0.0,0.0,0.0,0.0,0.0,0.0,0.0,0.0,0.0,0.0,0.0,0.0,0.0,0.0,0.0,0.0,0.0,0.0,0.0,0.0,0.0,0.0,0.0,0.0,0.0,0.0,0.0,0.0,0.0,0.0,0.0,0.0,0.0,0.0,0.0,0.0,0.0,0.0,0.0,0.0,0.0,0.0,0.0,0.0,0.0,0.0,0.0,0.0,0.0,0.0,0.0,0.0,0.0,0.0,0.0,0.0,0.0,0.0,0.0,0.0,0.0,0.0,0.0,0.0,0.0,0.0,0.0,0.0,0.0,0.0,0.0,0.0,0.0,0.0,0.0,0.0,0.0,0.0,0.0,0.0,0.0,0.0,-1.8293,-1.8691,-1.8844,-1.8841,-1.8771,-1.8543,0.0,0.0,0.0,0.0,0.0,0.0,0.0,0.0,0.0,0.0,0.0,0.0,0.0,0.0,0.0,0.0,0.0,0.0,0.0,0.0,0.0,0.0,0.0,0.0,0.0,0.0,0.0,0.0,0.0,0.0,0.0,0.0,0.0,0.0,0.0,0.0,0.0,0.0,0.0,0.0,0.0,0.0,0.0,0.0,0.0,0.0,0.0,0.0,0.0,0.0,0.0,0.0,0.0,0.0,0.0,0.0,0.0,0.0,0.0,0.0,0.0,0.0,0.0,0.0,0.0,0.0,0.0,0.0,0.0,0.0,0.0,0.0,0.0,0.0,0.0,0.0,0.0,0.0,0.0,0.0,0.0,0.0,0.0,0.0,0.0,0.0,0.0,0.0,0.0,0.0,0.0,0.0,0.0,0.0,0.0,0.0,0.0,0.0,0.0,0.0,0.0,0.0,0.0,0.0,0.0,0.0,0.0,0.0,0.0,-1.9031,0.0,-1.9871,-1.9662,-1.9764,-1.9516,0.0,0.0,0.0,0.0,0.0,0.0,0.0,0.0,0.0,0.0,0.0,0.0,0.0,0.0,0.0,0.0,0.0,0.0,0.0,0.0,0.0,0.0,0.0,0.0,0.0,0.0,0.0,0.0,0.0,0.0,0.0,0.0,0.0,0.0,0.0,0.0,0.0,0.0,0.0,0.0,0.0,0.0,0.0,0.0,0.0,0.0,0.0,0.0,0.0,0.0,0.0,0.0,0.0,0.0,0.0,0.0,0.0,0.0,0.0,0.0,0.0,0.0,0.0,0.0,0.0,0.0,0.0,0.0,0.0,0.0,0.0,0.0,0.0,0.0,0.0,0.0,0.0,0.0,0.0,0.0,0.0,0.0,0.0,0.0,0.0,0.0,0.0,0.0,0.0,0.0,0.0,0.0,0.0,0.0,0.0,0.0,0.0,0.0,0.0,0.0,0.0,0.0,0.0,0.0,0.0,0.0,0.0,0.0,-1.9777,-1.9723,-2.0378,-2.0404,-1.9768,-2.0359,-2.0352,0.0,0.0,0.0,0.0,0.0,0.0,0.0,0.0,0.0,0.0,0.0,0.0,0.0,0.0,0.0,0.0,0.0,0.0,0.0,0.0,0.0,0.0,0.0,0.0,0.0,0.0,0.0,0.0,0.0,0.0,0.0,0.0,0.0,0.0,0.0,0.0,0.0,0.0,0.0,0.0,0.0,0.0,0.0,0.0,0.0,0.0,0.0,0.0,0.0,0.0,0.0,0.0,0.0,0.0,0.0,0.0,0.0,0.0,0.0,0.0,0.0,0.0,0.0,0.0,0.0,0.0,0.0,0.0,0.0,0.0,0.0,0.0,0.0,0.0,0.0,0.0,0.0,0.0,0.0,0.0,0.0,0.0,0.0,0.0,0.0,0.0,0.0,0.0,0.0,0.0,0.0,0.0,0.0,0.0,0.0,0.0,0.0,0.0,0.0,0.0,0.0,0.0,0.0,0.0,0.0,0.0,0.0,0.0,0.0,-2.0408,-2.1051,-2.1291,-2.1081,-2.1276,-2.1062,0.0,0.0,0.0,0.0,0.0,0.0,0.0,0.0,0.0,0.0,0.0,0.0,0.0,0.0,0.0,0.0,0.0,0.0,0.0,0.0,0.0,0.0,0.0,0.0,0.0,0.0,0.0,0.0,0.0,0.0,0.0,0.0,0.0,0.0,0.0,0.0,0.0,0.0,0.0,0.0,0.0,0.0,0.0,0.0,0.0,0.0,0.0,0.0,0.0,0.0,0.0,0.0,0.0,0.0,0.0,0.0,0.0,0.0,0.0,0.0,0.0,0.0,0.0,0.0,0.0,0.0,0.0,0.0,0.0,0.0,0.0,0.0,0.0,0.0,0.0,0.0,0.0,0.0,0.0,0.0,0.0,0.0,0.0,0.0,0.0,0.0,0.0,0.0,0.0,0.0,0.0,0.0,0.0,0.0,0.0,0.0,0.0,0.0,0.0,0.0,0.0,0.0,0.0,0.0,0.0,0.0,0.0,0.0,0.0,-2.1919,-2.2004,-2.2074,-2.2054,-2.2069,-2.1894,-2.1455,0.0,0.0,0.0,0.0,0.0,0.0,0.0,0.0,0.0,0.0,0.0,0.0,0.0,0.0,0.0,0.0,0.0,0.0,0.0,0.0,0.0,0.0,0.0,0.0,0.0,0.0,0.0,0.0,0.0,0.0,0.0,0.0,0.0,0.0,0.0,0.0,0.0,0.0,0.0,0.0,0.0,0.0,0.0,0.0,0.0,0.0,0.0,0.0,0.0,0.0,0.0,0.0,0.0,0.0,0.0,0.0,0.0,0.0,0.0,0.0,0.0,0.0,0.0,0.0,0.0,0.0,0.0,0.0,0.0,0.0,0.0,0.0,0.0,0.0,0.0,0.0,0.0,0.0,0.0,0.0,0.0,0.0,0.0,0.0,0.0,0.0,0.0,0.0,0.0,0.0,0.0,0.0,0.0,0.0,0.0,0.0,0.0,0.0,0.0,0.0,0.0,0.0,0.0,0.0,0.0,0.0,0.0,0.0,-2.4034,-2.3299,-2.2903,-2.2882,-2.2882,-2.2823,0.0,0.0,0.0,0.0,0.0,0.0,0.0,0.0,0.0,0.0,0.0,0.0,0.0,0.0,0.0,0.0,0.0,0.0,0.0,0.0,0.0,0.0,0.0,0.0,0.0,0.0,0.0,0.0,0.0,0.0,0.0,0.0,0.0,0.0,0.0,0.0,0.0,0.0,0.0,0.0,0.0,0.0,0.0,0.0,0.0,0.0,0.0,0.0,0.0,0.0,0.0,0.0,0.0,0.0,0.0,0.0,0.0,0.0,0.0,0.0,0.0,0.0,0.0,0.0,0.0,0.0,0.0,0.0,0.0,0.0,0.0,0.0,0.0,0.0,0.0,0.0,0.0,0.0,0.0,0.0,0.0,0.0,0.0,0.0,0.0,0.0,0.0,0.0,0.0,0.0,0.0,0.0,0.0,0.0,0.0,0.0,0.0,0.0,0.0,0.0,0.0,0.0,0.0,0.0,0.0,0.0,0.0,0.0,0.0,-2.4717,-2.4985,-2.5085,-2.4987,-2.4897,-2.4373,0.0,0.0,0.0,0.0,0.0,0.0,0.0,0.0,0.0,0.0,0.0,0.0,0.0,0.0,0.0,0.0,0.0,0.0,0.0,0.0,0.0,0.0,0.0,0.0,0.0,0.0,0.0,0.0,0.0,0.0,0.0,0.0,0.0,0.0,0.0,0.0,0.0,0.0,0.0,0.0,0.0,0.0,0.0,0.0,0.0,0.0,0.0,0.0,0.0,0.0,0.0,0.0,0.0,0.0,0.0,0.0,0.0,0.0,0.0,0.0,0.0,0.0,0.0,0.0,0.0,0.0,0.0,0.0,0.0,0.0,0.0,0.0,0.0,0.0,0.0,0.0,0.0,0.0,0.0,0.0,0.0,0.0,0.0,0.0,0.0,0.0,0.0,0.0,0.0,0.0,0.0,0.0,0.0,0.0,0.0,0.0,0.0,0.0,0.0,0.0,0.0,0.0,0.0,0.0,0.0,0.0,0.0,0.0,-2.489,-2.5711,-2.629,-2.6687,-2.6898,-2.6126,-2.531,0.0,0.0,0.0,0.0,0.0,0.0,0.0,0.0,0.0,0.0,0.0,0.0,0.0,0.0,0.0,0.0,0.0,0.0,0.0,0.0,0.0,0.0,0.0,0.0,0.0,0.0,0.0,0.0,0.0,0.0,0.0,0.0,0.0,0.0,0.0,0.0,0.0,0.0,0.0,0.0,0.0,0.0,0.0,0.0,0.0,0.0,0.0,0.0,0.0,0.0,0.0,0.0,0.0,0.0,0.0,0.0,0.0,0.0,0.0,0.0,0.0,0.0,0.0,0.0,0.0,0.0,0.0,0.0,0.0,0.0,0.0,0.0,0.0,0.0,0.0,0.0,0.0,0.0,0.0,0.0,0.0,0.0,0.0,0.0,0.0,0.0,0.0,0.0,0.0,0.0,0.0,0.0,0.0,0.0,0.0,0.0,0.0,0.0,0.0,0.0,0.0,0.0,0.0,0.0,0.0,0.0,0.0,0.0,-2.5591,-2.6695,-2.7271,-2.7828,-2.8334,-2.6829,-2.5883,0.0,0.0,0.0,0.0,0.0,0.0,0.0,0.0,0.0,0.0,0.0,0.0,0.0,0.0,0.0,0.0,0.0,0.0,0.0,0.0,0.0,0.0,0.0,0.0,0.0,0.0,0.0,0.0,0.0,0.0,0.0,0.0,0.0,0.0,0.0,0.0,0.0,0.0,0.0,0.0,0.0,0.0,0.0,0.0,0.0,0.0,0.0,0.0,0.0,0.0,0.0,0.0,0.0,0.0,0.0,0.0,0.0,0.0,0.0,0.0,0.0,0.0,0.0,0.0,0.0,0.0,0.0,0.0,0.0,0.0,0.0,0.0,0.0,0.0,0.0,0.0,0.0,0.0,0.0,0.0,0.0,0.0,0.0,0.0,0.0,0.0,0.0,0.0,0.0,0.0,0.0,0.0,0.0,0.0,0.0,0.0,0.0,0.0,0.0,0.0,0.0,0.0,0.0,0.0,0.0,0.0,0.0,0.0,-2.6783,-2.6873,-2.7981,-2.8537,-2.8396,-2.7741,-2.688,0.0,0.0,0.0,0.0,0.0,0.0,0.0,0.0,0.0,0.0,0.0,0.0,0.0,0.0,0.0,0.0,0.0,0.0,0.0,0.0,0.0,0.0,0.0,0.0,0.0,0.0,0.0,0.0,0.0,0.0,0.0,0.0,0.0,0.0,0.0,0.0,0.0,0.0,0.0,0.0,0.0,0.0,0.0,0.0,0.0,0.0,0.0,0.0,-1.8898,0.0,0.0,0.0,0.0,0.0,0.0,0.0,0.0,0.0,0.0,0.0,0.0,0.0,0.0,0.0,0.0,0.0,0.0,0.0,0.0,0.0,0.0,0.0,0.0,0.0,0.0,0.0,0.0,0.0,0.0,0.0,0.0,0.0,0.0,0.0,0.0,0.0,0.0,0.0,0.0,0.0,0.0,0.0,0.0,0.0,0.0,0.0,0.0,0.0,0.0,0.0,0.0,0.0,0.0,0.0,0.0,0.0,0.0,0.0,-2.756,-2.7715,-2.8598,-2.8967,-2.8716,-2.8389,-2.7457,0.0,0.0,0.0,0.0,0.0,0.0,0.0,0.0,0.0,0.0,0.0,0.0,0.0,0.0,0.0,0.0,0.0,0.0,0.0,0.0,0.0,0.0,0.0,0.0,0.0,0.0,0.0,0.0,0.0,0.0,0.0,0.0,0.0,0.0,0.0,0.0,0.0,0.0,0.0,0.0,0.0,0.0,0.0,0.0,0.0,0.0,0.0,0.0,0.0,0.0,0.0,0.0,0.0,0.0,0.0,0.0,0.0,0.0,0.0,0.0,0.0,0.0,0.0,0.0,0.0,0.0,0.0,0.0,0.0,0.0,0.0,0.0,0.0,0.0,0.0,0.0,0.0,0.0,0.0,0.0,0.0,0.0,0.0,0.0,0.0,0.0,0.0,0.0,0.0,0.0,0.0,0.0,0.0,0.0,0.0,0.0,0.0,0.0,0.0,0.0,0.0,0.0,0.0,0.0,0.0,0.0,0.0,-2.7046,-2.8065,-2.8656,-2.9124,-2.9328,-2.9167,-2.8912,-2.7868,-2.6016,0.0,0.0,0.0,0.0,0.0,0.0,0.0,0.0,0.0,0.0,0.0,0.0,0.0,0.0,0.0,0.0,0.0,0.0,0.0,0.0,0.0,0.0,0.0,0.0,0.0,0.0,0.0,0.0,0.0,0.0,0.0,0.0,0.0,0.0,0.0,0.0,0.0,0.0,-1.7774,-1.8474,0.0,0.0,0.0,0.0,0.0,0.0,0.0,0.0,-1.9984,0.0,0.0,0.0,0.0,0.0,0.0,0.0,0.0,0.0,0.0,0.0,0.0,0.0,0.0,0.0,0.0,0.0,0.0,0.0,0.0,0.0,0.0,0.0,0.0,0.0,0.0,0.0,0.0,0.0,0.0,0.0,0.0,0.0,0.0,0.0,0.0,0.0,0.0,0.0,0.0,0.0,0.0,0.0,0.0,0.0,0.0,0.0,0.0,0.0,0.0,0.0,0.0,0.0,0.0,0.0,0.0,-2.4979,-2.7049,-2.8367,-2.8925,-2.9453,-2.9633,-2.9425,-2.9175,-2.8253,-2.665,0.0,0.0,0.0,0.0,0.0,0.0,0.0,0.0,0.0,0.0,0.0,0.0,0.0,0.0,0.0,0.0,0.0,0.0,0.0,0.0,0.0,0.0,0.0,0.0,0.0,0.0,0.0,0.0,0.0,0.0,0.0,0.0,0.0,0.0,0.0,0.0,0.0,0.0,0.0,-1.9758,-2.0106,0.0,0.0,0.0,0.0,0.0,0.0,0.0,0.0,-2.0732,0.0,0.0,0.0,0.0,0.0,0.0,0.0,0.0,0.0,0.0,0.0,0.0,0.0,0.0,0.0,0.0,0.0,0.0,0.0,0.0,0.0,0.0,0.0,0.0,0.0,0.0,0.0,0.0,0.0,0.0,0.0,0.0,0.0,0.0,0.0,0.0,0.0,0.0,0.0,0.0,0.0,0.0,0.0,0.0,0.0,0.0,0.0,0.0,0.0,0.0,0.0,0.0,0.0,0.0,0.0,-2.6078,-2.7493,-2.8704,-2.9674,-2.9907,-2.9913,-2.976,-2.9627,-2.877,0.0,0.0,0.0,0.0,0.0,0.0,0.0,0.0,0.0,0.0,0.0,0.0,0.0,0.0,0.0,0.0,0.0,0.0,0.0,0.0,0.0,0.0,0.0,0.0,0.0,0.0,0.0,0.0,0.0,0.0,0.0,0.0,0.0,0.0,0.0,0.0,0.0,0.0,0.0,0.0,-2.0517,-2.0951,-2.1401,0.0,0.0,0.0,0.0,0.0,0.0,-2.1807,-2.1499,0.0,0.0,0.0,0.0,0.0,0.0,0.0,0.0,0.0,0.0,0.0,0.0,0.0,0.0,0.0,0.0,0.0,0.0,0.0,0.0,0.0,0.0,0.0,0.0,0.0,0.0,0.0,0.0,0.0,0.0,0.0,0.0,0.0,0.0,0.0,0.0,0.0,0.0,0.0,0.0,0.0,0.0,0.0,0.0,0.0,0.0,0.0,0.0,0.0,0.0,0.0,0.0,0.0,0.0,0.0,-2.7033,-2.7849,-2.8949,-3.0335,-3.0295,-3.0205,-3.0081,-3.0033,-2.9205,0.0,0.0,0.0,0.0,0.0,0.0,0.0,0.0,0.0,0.0,0.0,0.0,0.0,0.0,0.0,0.0,0.0,0.0,0.0,0.0,0.0,0.0,0.0,0.0,0.0,0.0,0.0,0.0,0.0,0.0,0.0,0.0,0.0,0.0,0.0,0.0,0.0,0.0,0.0,0.0,0.0,-2.1738,-2.1847,-2.1999,0.0,0.0,0.0,0.0,-2.2461,-2.263,0.0,0.0,0.0,0.0,0.0,0.0,0.0,0.0,0.0,0.0,0.0,0.0,0.0,0.0,0.0,0.0,0.0,0.0,0.0,0.0,0.0,0.0,0.0,0.0,0.0,0.0,0.0,0.0,0.0,0.0,0.0,0.0,0.0,0.0,0.0,0.0,0.0,0.0,0.0,0.0,0.0,0.0,0.0,0.0,0.0,0.0,0.0,0.0,0.0,0.0,0.0,0.0,0.0,0.0,0.0,0.0,-2.6301,-2.7694,-2.9069,-3.0402,-3.0438,-3.0375,-3.0354,-3.0124,-2.9269,0.0,0.0,0.0,0.0,0.0,0.0,0.0,0.0,0.0,0.0,0.0,0.0,0.0,0.0,0.0,0.0,0.0,0.0,0.0,0.0,0.0,0.0,0.0,0.0,0.0,0.0,0.0,0.0,0.0,0.0,0.0,0.0,0.0,0.0,0.0,0.0,0.0,0.0,0.0,0.0,0.0,-2.2758,-2.282,-2.2944,-2.3255,0.0,0.0,-2.3392,-2.403,-2.4176,0.0,0.0,0.0,0.0,0.0,0.0,0.0,0.0,0.0,0.0,0.0,0.0,0.0,0.0,0.0,0.0,0.0,0.0,0.0,0.0,0.0,0.0,0.0,0.0,0.0,0.0,0.0,0.0,0.0,0.0,0.0,0.0,0.0,0.0,0.0,0.0,0.0,0.0,0.0,0.0,0.0,0.0,0.0,0.0,0.0,0.0,0.0,0.0,0.0,0.0,0.0,0.0,0.0,0.0,0.0,-2.4962,-2.6839,-2.7994,-2.9246,-3.0666,-3.0692,-3.0667,-3.0584,-3.048,-2.9823,0.0,0.0,0.0,0.0,0.0,0.0,0.0,0.0,0.0,0.0,0.0,0.0,0.0,0.0,0.0,0.0,0.0,0.0,0.0,0.0,0.0,0.0,0.0,0.0,0.0,0.0,0.0,0.0,0.0,0.0,0.0,0.0,0.0,0.0,0.0,0.0,0.0,0.0,0.0,0.0,0.0,0.0,-2.3659,-2.382,0.0,0.0,0.0,-2.4073,-2.4411,0.0,0.0,0.0,0.0,0.0,0.0,0.0,0.0,0.0,0.0,0.0,0.0,0.0,0.0,0.0,0.0,0.0,0.0,0.0,0.0,0.0,0.0,0.0,0.0,0.0,0.0,0.0,0.0,0.0,0.0,0.0,0.0,0.0,0.0,0.0,0.0,0.0,0.0,0.0,0.0,0.0,0.0,0.0,0.0,0.0,0.0,0.0,0.0,0.0,0.0,0.0,0.0,0.0,0.0,0.0,0.0,0.0,-2.7378,-2.8256,-2.9401,-3.0841,-3.0912,-3.0851,-3.0753,-3.0733,0.0,0.0,0.0,0.0,0.0,0.0,0.0,0.0,0.0,0.0,0.0,0.0,0.0,0.0,0.0,0.0,0.0,0.0,0.0,0.0,0.0,0.0,0.0,0.0,0.0,0.0,0.0,-1.806,0.0,0.0,0.0,0.0,0.0,0.0,0.0,0.0,0.0,0.0,0.0,0.0,0.0,0.0,-2.3874,-2.4539,-2.4653,-2.4769,0.0,0.0,-2.4831,-2.5015,-2.5049,-2.4998,0.0,0.0,0.0,0.0,0.0,0.0,0.0,0.0,0.0,0.0,0.0,0.0,0.0,0.0,0.0,0.0,0.0,0.0,0.0,0.0,0.0,0.0,0.0,0.0,0.0,0.0,0.0,0.0,0.0,0.0,0.0,0.0,0.0,0.0,0.0,0.0,0.0,0.0,0.0,0.0,0.0,0.0,0.0,0.0,0.0,0.0,0.0,0.0,0.0,0.0,0.0,0.0,0.0,0.0,-2.5896,-2.7361,-2.8256,-2.9417,-3.0845,-3.0912,-3.0875,-3.0871,-3.0892,-3.0473,0.0,0.0,0.0,0.0,0.0,0.0,0.0,0.0,0.0,0.0,0.0,0.0,0.0,0.0,0.0,0.0,0.0,0.0,0.0,0.0,0.0,0.0,0.0,0.0,0.0,0.0,0.0,0.0,0.0,0.0,0.0,0.0,0.0,0.0,0.0,0.0,0.0,0.0,0.0,0.0,0.0,-2.5377,-2.5509,-2.5508,-2.5778,0.0,-2.5964,-2.5761,-2.6437,-2.6539,-2.6302,-2.5642,0.0,0.0,0.0,0.0,0.0,0.0,0.0,0.0,0.0,0.0,0.0,0.0,0.0,0.0,0.0,0.0,0.0,0.0,0.0,0.0,0.0,0.0,0.0,0.0,0.0,0.0,0.0,0.0,0.0,0.0,0.0,0.0,0.0,0.0,0.0,0.0,0.0,0.0,0.0,0.0,0.0,0.0,0.0,0.0,0.0,0.0,0.0,0.0,0.0,0.0,0.0,0.0,0.0,-2.6735,-2.8228,-2.9128,-3.0044,-3.1058,-3.153,-3.1507,-3.0989,-3.1392,-3.1251,0.0,0.0,0.0,0.0,0.0,0.0,0.0,0.0,0.0,0.0,0.0,0.0,0.0,0.0,0.0,0.0,0.0,0.0,0.0,0.0,0.0,0.0,0.0,0.0,0.0,0.0,0.0,0.0,-2.0891,-2.1367,-2.1396,0.0,0.0,0.0,0.0,0.0,0.0,0.0,0.0,0.0,0.0,-2.568,-2.6184,-2.6674,0.0,0.0,-2.6843,-2.7046,-2.7334,-2.6996,-2.6759,-2.6911,-2.6184,0.0,0.0,0.0,0.0,0.0,0.0,0.0,0.0,0.0,0.0,0.0,0.0,0.0,0.0,0.0,0.0,0.0,0.0,0.0,0.0,0.0,0.0,0.0,0.0,0.0,0.0,0.0,0.0,0.0,0.0,0.0,0.0,0.0,0.0,0.0,0.0,0.0,0.0,0.0,0.0,0.0,0.0,0.0,0.0,0.0,0.0,0.0,0.0,0.0,0.0,0.0,0.0,-2.7594,-2.913,-2.9983,-3.0784,-3.1512,-3.2259,-3.2317,-3.1763,-3.1999,-3.1894,0.0,0.0,0.0,0.0,0.0,0.0,0.0,0.0,0.0,0.0,0.0,0.0,0.0,0.0,0.0,0.0,0.0,0.0,0.0,0.0,0.0,0.0,0.0,0.0,0.0,0.0,0.0,0.0,-2.1642,-2.1957,-2.1913,0.0,0.0,0.0,0.0,0.0,0.0,0.0,0.0,0.0,0.0,-2.6387,-2.6945,-2.7672,-2.7977,-2.7452,-2.7824,-2.818,-2.818,-2.7723,-2.7571,-2.806,0.0,0.0,0.0,0.0,0.0,0.0,0.0,0.0,0.0,0.0,0.0,0.0,0.0,0.0,0.0,0.0,0.0,0.0,0.0,0.0,0.0,0.0,0.0,0.0,0.0,0.0,0.0,-2.8273,0.0,0.0,-2.705,0.0,0.0,0.0,0.0,0.0,0.0,0.0,0.0,0.0,0.0,0.0,0.0,0.0,0.0,0.0,0.0,0.0,0.0,0.0,0.0,0.0,0.0,-2.835,-2.9854,-3.0746,-3.1529,-3.2276,-3.3,-3.3351,-3.3284,-3.2662,-3.2232,-3.2008,0.0,0.0,0.0,0.0,0.0,0.0,0.0,0.0,0.0,0.0,0.0,0.0,0.0,0.0,0.0,0.0,0.0,0.0,0.0,0.0,0.0,0.0,0.0,0.0,0.0,0.0,-2.2104,-2.2185,-2.2173,0.0,0.0,0.0,0.0,0.0,0.0,0.0,0.0,0.0,0.0,-2.6792,-2.7756,-2.7773,-2.8484,-2.8959,-2.8908,-2.8942,-2.8976,-2.8976,-2.8942,-2.8959,0.0,0.0,0.0,0.0,0.0,0.0,0.0,0.0,0.0,0.0,0.0,0.0,0.0,0.0,0.0,0.0,0.0,0.0,0.0,0.0,0.0,0.0,0.0,0.0,0.0,0.0,0.0,-3.1625,-3.157,0.0,0.0,0.0,0.0,0.0,0.0,0.0,0.0,0.0,0.0,0.0,-3.1579,-3.1703,0.0,0.0,0.0,0.0,0.0,0.0,0.0,0.0,0.0,0.0,0.0,0.0,-2.9628,-3.0726,-3.1546,-3.2273,-3.3017,-3.3761,-3.3897,-3.3406,-3.3152,-3.2283,-3.0679,0.0,0.0,0.0,0.0,0.0,0.0,0.0,0.0,0.0,0.0,0.0,0.0,0.0,0.0,0.0,0.0,0.0,0.0,0.0,0.0,0.0,0.0,0.0,0.0,0.0,-2.3237,0.0,0.0,0.0,0.0,0.0,0.0,0.0,0.0,0.0,0.0,0.0,-2.5882,-2.6911,-2.7485,-2.7993,-2.8518,-2.9245,-2.9567,0.0,0.0,0.0,0.0,0.0,0.0,0.0,0.0,0.0,0.0,0.0,0.0,0.0,0.0,-2.5668,-2.4274,-2.4152,-2.4257,-2.4254,0.0,0.0,0.0,0.0,0.0,0.0,0.0,0.0,0.0,0.0,0.0,0.0,0.0,0.0,-3.5038,0.0,-3.4966,0.0,0.0,0.0,0.0,0.0,0.0,0.0,0.0,-3.3318,-3.3702,-3.3813,-3.4152,-3.4466,0.0,-3.46,-3.3549,0.0,0.0,0.0,0.0,0.0,0.0,0.0,0.0,-3.0662,-3.1579,-3.2581,-3.3309,-3.3778,-3.4506,-3.4658,-3.4163,-3.3656,-3.2553,-3.0791,-3.0193,-2.9393,0.0,0.0,0.0,0.0,0.0,0.0,0.0,0.0,0.0,0.0,0.0,0.0,0.0,0.0,0.0,0.0,0.0,0.0,0.0,0.0,0.0,0.0,0.0,-2.4384,0.0,0.0,0.0,0.0,0.0,0.0,0.0,0.0,0.0,-2.5899,-2.6118,-2.6775,-2.8043,-2.8432,-2.8805,-2.9296,0.0,0.0,0.0,0.0,0.0,0.0,0.0,-3.0025,-3.0734,-3.0281,-2.981,-2.9864,-2.9718,-2.9486,-2.9179,0.0,0.0,-2.6009,-2.5635,-2.5631,-2.5879,-2.6414,-2.6865,-2.6971,-2.7218,-2.7453,0.0,0.0,0.0,0.0,0.0,0.0,0.0,0.0,-3.8563,-3.8563,0.0,-3.8363,0.0,0.0,0.0,0.0,-3.4549,-3.4435,0.0,0.0,-3.5845,-3.5955,-3.5732,-3.6915,-3.7469,-3.7337,-3.6973,-3.6457,-3.5633,-3.3359,0.0,0.0,0.0,0.0,0.0,0.0,-3.15,-3.2395,-3.3749,-3.4489,-3.4539,-3.5233,-3.5583,-3.5481,-3.4184,-3.3085,-3.2293,-3.0825,-2.9955,-2.9871,-2.8468,0.0,0.0,0.0,0.0,0.0,0.0,0.0,0.0,0.0,0.0,0.0,0.0,0.0,0.0,0.0,0.0,0.0,0.0,0.0,0.0,-2.4527,0.0,0.0,0.0,0.0,0.0,0.0,0.0,0.0,0.0,0.0,-2.6859,-2.7383,-2.8145,-2.8976,0.0,0.0,0.0,0.0,-3.1275,-3.1224,-3.1258,-3.1495,-3.2175,-3.1718,-3.1515,-3.2158,0.0,0.0,-3.1481,-3.0961,-3.0555,-3.0555,-3.0212,-2.9302,-2.7289,-2.653,-2.6147,-2.6302,-2.7614,-2.8612,-2.8778,-2.9299,-2.9815,-4.8319,0.0,0.0,0.0,0.0,-4.2298,-4.1898,-4.1845,-4.1934,-4.1952,-4.1864,-4.1192,0.0,0.0,0.0,0.0,0.0,0.0,-3.7862,-3.7846,-3.8595,-3.8685,-3.8208,-3.8618,-3.8577,-3.8222,-3.8133,-3.7849,-3.7375,-3.6678,-3.5155,-3.2806,0.0,0.0,0.0,0.0,-3.3048,-3.3829,-3.4286,-3.4759,-3.5284,-3.5481,-3.5329,-3.4827,-3.4404,-3.3575,-3.2344,-3.1847,-3.1098,-2.9938,-2.9465,0.0,0.0,0.0,0.0,0.0,0.0,0.0,0.0,0.0,0.0,0.0,0.0,0.0,0.0,0.0,0.0,0.0,0.0,0.0,-2.5982,-2.6065,-2.6065,0.0,0.0,0.0,0.0,0.0,0.0,0.0,0.0,0.0,-2.9039,-2.8838,-2.9145,0.0,0.0,-3.1275,-3.2307,-3.2645,-3.2594,-3.2073,-3.2425,0.0,-3.2344,-3.256,-3.2699,-3.2476,-3.192,-3.156,-3.1688,-3.1683,-3.1689,-3.1812,-3.1404,-3.0855,-3.0391,-2.97,-2.9297,-2.9494,-2.9958,-3.0323,-3.0407,-3.0654,-3.0852,-5.3146,-5.0666,-4.8098,-4.6816,-4.645,-4.5663,-4.5297,-4.5224,-4.5297,-4.5151,-4.4766,-4.4218,-4.3359,-4.2264,-4.1443,0.0,0.0,0.0,-4.0727,-4.0469,-4.1181,-4.1303,-4.0993,-4.1081,-4.0963,-4.0694,-4.0193,-3.9692,-3.9207,-3.8751,-3.7396,-3.5144,0.0,0.0,-3.4688,-3.4688,-3.4896,-3.5385,-3.569,-3.5926,-3.6062,-3.5752,-3.538,-3.4962,-3.4658,-3.4087,-3.3207,-3.2882,-3.2151,-3.0926,-3.0552,-3.0025,0.0,0.0,0.0,0.0,0.0,0.0,0.0,0.0,0.0,0.0,0.0,-2.4564,-2.4896,0.0,0.0,0.0,-2.6573,-2.7097,-2.7554,-2.7605,0.0,0.0,0.0,0.0,0.0,0.0,0.0,-2.9416,-2.9704,-3.0161,-3.0869,-3.0855,-3.0973,-3.1549,-3.1884,-3.2391,-3.3271,0.0,-3.3237,-3.2801,-3.3119,-3.3355,-3.3207,-3.3347,-3.3379,-3.3174,-3.2576,-3.2229,-3.2398,-3.2352,-3.2301,-3.2386,-3.2234,-3.2092,-3.223,-3.1948,-3.1498,-3.1069,-3.1274,-3.1538,-3.1646,-3.1681,-3.1738,-5.7116,-5.6693,-5.2931,-5.0839,-4.9922,-4.9058,-4.8655,-4.86,-4.86,-4.8159,-4.7388,-4.7257,-4.6322,-4.4766,-4.3962,0.0,-4.3323,-4.3305,-4.3175,-4.3019,-4.3504,-4.368,-4.3607,-4.3827,-4.3933,-4.3845,-4.2697,-4.1781,-4.106,-4.0007,-3.9156,-3.8442,-3.7594,-3.7066,-3.6914,-3.6897,-3.688,-3.6897,-3.7533,-3.7567,-3.6897,-3.6113,-3.5684,-3.5684,-3.4979,-3.4556,-3.4493,-3.3846,-3.3152,-3.2412,-3.1732,-3.0982,-3.0126,0.0,0.0,0.0,0.0,0.0,0.0,0.0,0.0,0.0,0.0,0.0,0.0,0.0,0.0,0.0,-2.892,0.0,-2.8993,-2.8993,0.0,0.0,0.0,-2.9094,-2.9094,-2.9145,-2.9467,-3.0192,0.0,0.0,-3.231,-3.3017,-3.3237,-3.2564,-3.3051,-3.3487,-3.3575,-3.3643,-3.3575,-3.3525,-3.3537,-3.3795,-3.4295,-3.4058,-3.3871,-3.4083,-3.3492,-3.3038,-3.3244,-3.2862,-3.2526,-3.2606,-3.2786,-3.2943,-3.3101,-3.3181,-3.2955,-3.1551,-3.1897,-3.2434,-3.2556,-3.2601,-3.2614,-5.974,-5.8487,-5.6932,-5.5115,-5.3206,-5.238,-5.1683,-5.1132,-5.1114,-5.0674,-4.9883,-4.9259,-4.8047,-4.647,-4.623,-4.5772,-4.515,-4.4998,-4.4845,-4.4708,-4.4786,-4.4671,-4.4436,-4.4466,-4.4293,-4.3886,-4.3499,-4.3062,-4.2654,-4.2124,-4.1733,-4.1418,-4.0587,-3.9309,-3.7702,-3.7635,-3.7652,-3.7652,-3.7821,-3.7821,-3.7635,-3.6907,-3.6502,-3.6518,-3.5757,-3.5081,-3.4523,-3.432,-3.3897,-3.3186,-3.2983,-3.2527,-3.1762,-3.0903,0.0,0.0,0.0,0.0,0.0,0.0,0.0,0.0,0.0,-2.7868,-2.8181,0.0,-2.8626,0.0,-2.8991,-2.8993,-2.8993,-2.8993,0.0,0.0,-2.9517,-2.9837,-2.9837,-3.0345,-3.0973,-3.1684,-3.1921,-3.2344,-3.3051,-3.3778,-3.4167,-3.3998,-3.4117,-3.4438,-3.4957,-3.5076,-3.4856,-3.4404,-3.4709,-3.4967,-3.472,-3.469,-3.4703,-3.4901,-3.3975,-3.3277,-3.344,-3.3103,-3.2787,-3.2836,-3.3044,-3.3214,-3.3304,-3.3408,-3.3397,-3.3113,-3.3241,-3.3383,-3.3424,-3.3446,-3.3486,-6.163,-6.0689,-5.9557,-5.8088,-5.6436,-5.4913,-5.4014,-5.361,-5.3592,-5.2949,-5.1793,-5.0655,-4.9627,-4.8745,-4.8706,-4.8411,-4.7949,-4.7813,-4.7711,-4.7529,-4.7425,-4.7032,-4.639,-4.6302,-4.5876,-4.5112,-4.45,-4.4101,-4.3831,-4.3083,-4.2654,-4.2585,-4.1985,-4.0916,-3.9428,-3.9039,-3.887,-3.8853,-3.8565,-3.8396,-3.8362,-3.733,-3.6812,-3.6778,-3.6028,-3.5397,-3.5013,-3.4979,-3.4658,-3.3947,-3.3897,-3.3541,-3.2814,-3.2309,-3.184,0.0,0.0,0.0,0.0,0.0,0.0,0.0,0.0,0.0,0.0,0.0,-2.9899,-2.9956,-2.9974,-2.9991,-2.9991,-2.9991,-2.9974,-2.9973,-3.0328,-3.0717,-3.1038,-3.1447,-3.1989,-3.2716,-3.3089,-3.3444,-3.3846,-3.4539,-3.4996,-3.4996,-3.4979,-3.5131,-3.5498,-3.5616,-3.5447,-3.5098,-3.5329,-3.557,-3.5287,-3.5155,-3.5118,-3.5198,-3.4232,-3.3458,-3.36,-3.3221,-3.2932,-3.2995,-3.3183,-3.3367,-3.3441,-3.352,-3.3619,-3.3689,-3.3726,-3.3739,-3.3758,-3.378,-3.3807,-6.3062,-6.2823,-6.1227,-6.012,-5.9336,-5.7042,-5.5941,-5.5761,-5.5739,-5.4913,-5.3427,-5.1922,-5.1206,-5.1114,-5.1004,-5.0815,-5.0623,-5.0584,-5.0498,-5.0304,-5.0177,-4.9581,-4.8668,-4.8481,-4.782,-4.6731,-4.5725,-4.5089,-4.4794,-4.358,-4.3013,-4.297,-4.2605,-4.2117,-4.1491,-4.0688,-4.0197,-4.0096,-3.9486,-3.9165,-3.9106,-3.7794,-3.7032,-3.6931,-3.618,-3.5701,-3.5616,-3.5616,-3.5295,-3.4692,-3.4641,-3.4303,-3.3609,-3.3469,-3.3409,0.0,-3.3189,0.0,0.0,0.0,0.0,0.0,0.0,0.0,0.0,-3.103,-3.1478,-3.1495,-3.1478,-3.1478,-3.1478,-3.1478,-3.1461,-3.1478,-3.1478,-3.1732,-3.2361,-3.2446,-3.2733,-3.3474,-3.41,-3.4523,-3.4658,-3.5194,-3.56,-3.5566,-3.5532,-3.5549,-3.56,-3.5616,-3.56,-3.5616,-3.5644,-3.5688,-3.5663,-3.5448,-3.5224,-3.5201,-3.433,-3.36,-3.3792,-3.3338,-3.2961,-3.3119,-3.3286,-3.3437,-3.3524,-3.3615,-3.368,-3.3712,-3.3766,-3.3788,-3.3807,-3.3807,-3.3807,-6.4439,-6.3686,-6.2071,-6.1282,-6.1006,-5.9281,-5.7776,-5.6583,-5.6583,-5.6033,-5.5078,-5.4124,-5.3371,-5.2729,-5.2068,-5.1387,-5.0762,-5.0662,-5.054,-5.0393,-5.0286,-4.9995,-4.9495,-4.9431,-4.8781,-4.7599,-4.7111,-4.6475,-4.5586,-4.4913,-4.4551,-4.4534,-4.364,-4.3105,-4.2919,0.0,0.0,0.0,-3.996,-3.9893,-3.9876,-3.9046,-3.8294,-3.7719,-3.6958,0.0,-3.5633,-3.5616,-3.5532,-3.5397,-3.5402,0.0,0.0,0.0,0.0,0.0,0.0,0.0,0.0,0.0,0.0,0.0,-3.2975,-3.2722,-3.2739,-3.2895,-3.3,-3.2983,-3.3,-3.3,-3.2983,-3.3,-3.3,-3.2983,-3.2966,-3.3051,-3.3186,-3.3203,-3.3474,-3.4201,-3.4421,-3.4726,-3.5261,-3.5532,-3.56,-3.5616,-3.5616,-3.5616,-3.5616,-3.5616,-3.5616,-3.5622,-3.5705,-3.5676,-3.5194,-3.515,-3.5018,-3.4708,-3.409,-3.3706,-3.3804,-3.3466,-3.3135,-3.3286,-3.3404,-3.3538,-3.3629,-3.3684,-3.3726,-3.378,-3.3775,-3.3807,-3.3807,-3.3807,-3.3807,-6.5063,-6.4549,-6.2897,-6.1961,0.0,-6.0309,-5.9093,-5.796,-5.7556,-5.695,-5.6124,-5.5335,-5.4748,-5.4344,-5.3537,-5.2968,-5.2564,-5.2098,-5.1791,-5.158,-5.1555,-5.1094,-5.0286,-5.0286,-4.9597,-4.836,-4.8068,-4.7402,-4.6404,-4.5824,-4.5381,-4.5005,-4.4302,-4.3809,-4.3358,-4.1948,-4.0832,-4.0113,-4.0113,-4.0113,-4.0079,-3.936,-3.865,-3.7939,-3.7178,0.0,0.0,0.0,0.0,0.0,0.0,0.0,0.0,-3.5047,0.0,-3.4469,-3.4435,-3.4452,-3.4435,-3.4435,-3.4457,-3.4484,-3.4489,-3.4163,-3.3474,-3.3389,-3.3389,-3.3389,-3.3389,-3.3389,-3.3389,-3.3389,-3.3389,-3.3389,-3.3389,-3.3541,-3.3863,-3.3931,-3.4235,-3.4895,-3.5064,-3.5194,-3.5549,-3.5616,-3.5616,-3.5616,-3.5616,-3.56,-3.5616,-3.5616,-3.5498,-3.5131,-3.5278,-3.5194,-3.448,-3.4231,-3.4227,-3.3873,-3.3477,-3.3261,-3.3424,-3.3261,-3.3162,-3.3349,-3.3481,-3.3591,-3.3671,-3.3726,-3.3748,-3.3793,-3.3807,-3.3807,-3.3807,-3.3807,-3.3807,-6.5319,-6.5128,-6.3503,-6.242,-6.1759,-6.0951,-6.007,-5.9129,-5.8345,0.0,0.0,-5.6161,-5.5812,-5.5757,-5.4968,-5.4528,-5.4363,-5.3739,-5.3188,-5.2806,-5.2806,-5.2173,-5.1137,-5.1095,-5.0402,-4.9121,-4.8843,-4.8198,-4.7178,-4.646,-4.5791,-4.5217,-4.4805,-4.4181,-4.3386,-4.2083,-4.1018,-4.0333,-4.018,-4.0113,-4.0096,-3.952,-3.8836,-3.8125,-3.7523,-3.6755,-3.5836,-3.5825,-3.5735,-3.5616,-3.5616,-3.5616,-3.5616,-3.5616,-3.5616,-3.5616,-3.5616,-3.5616,-3.5616,-3.5616,-3.5616,-3.5616,-3.5616,-3.5076,-3.3858,-3.3774,-3.3795,-3.3774,-3.3795,-3.3812,-3.3795,-3.3795,-3.3795,-3.3774,-3.3795,-3.4027,-3.4607,-3.4692,-3.4928,-3.5481,-3.5566,-3.56,-3.56,-3.5616,-3.5616,-3.5616,-3.5616,-3.5532,-3.543,-3.5346,-3.5165,-3.4735,-3.4687,-3.4425,-3.3754,-3.3444,-3.3206,-3.3176,-3.2878,-3.269,-3.2882,-3.3042,-3.318,-3.3408,-3.3534,-3.3615,-3.3698,-3.3766,-3.3807,-3.3807,-3.3807,-3.3807,-3.3807,-3.3807,-3.3807,-6.5319,-6.5147,-6.3477,-6.2707,-6.2567,-6.1759,-6.0584,-5.9166,-5.8345,-5.7923,-5.7776,-5.6987,-5.6638,-5.6583,-5.5794,-5.5042,-5.4399,-5.4271,-5.3701,-5.2824,-5.2806,-5.2504,-5.1946,-5.1922,-5.1225,-4.9978,-4.9678,-4.8986,-4.7917,-4.6701,-4.6048,-4.5866,-4.5043,-4.4181,-4.342,-4.2574,-4.1779,-4.1052,-4.0451,-4.0113,-4.0113,-3.9994,-3.958,-3.887,-3.8717,-3.8024,-3.6694,-3.662,-3.6299,-3.5633,-3.5616,-3.5616,-3.5616,-3.5616,-3.5616,-3.5616,-3.5616,-3.5616,-3.5616,-3.5616,-3.5616,-3.5616,-3.5616,-3.5498,-3.5312,-3.5295,-3.5295,-3.5278,-3.5228,-3.5295,-3.5278,-3.5245,-3.5194,-3.5245,-3.5284,-3.5329,-3.5397,-3.5414,-3.5447,-3.5583,-3.5616,-3.5616,-3.5616,-3.5616,-3.5616,-3.5616,-3.5532,-3.5363,-3.4878,-3.4641,-3.4668,-3.4601,-3.4197,-3.3662,-3.3154,-3.3123,-3.2999,-3.2651,-3.2646,-3.2721,-3.3008,-3.3104,-3.3223,-3.3502,-3.3577,-3.3661,-3.3766,-3.3807,-3.3807,-3.3807,-3.3807,-3.3807,-3.3807,-3.3807,-3.3807,-6.5319,-6.5099,-6.3521,-6.2823,-6.2713,-6.1484,-6.0291,-5.9148,-5.8345,-5.7978,-5.796,-5.7611,-5.7446,-5.7373,-5.662,-5.6051,-5.5666,-5.4785,-5.4049,-5.3444,-5.2984,-5.2536,-5.2108,-5.2029,-5.1544,-5.075,-5.0347,-4.9676,-4.8734,-4.7801,-4.6937,-4.6088,-4.5077,-4.4181,-4.3409,-4.3081,-4.2354,-4.1221,-4.0485,-4.0113,-4.0113,-4.0113,-3.9757,-3.9022,-3.8988,-3.8497,-3.7432,-3.7381,-3.7229,-3.685,-3.6468,-3.6248,-3.6231,-3.5859,-3.5616,-3.5616,-3.5616,-3.5616,-3.5616,-3.5616,-3.5616,-3.5616,-3.5616,-3.5616,-3.5616,-3.5616,-3.5616,-3.5616,-3.5616,-3.5616,-3.5616,-3.5616,-3.5616,-3.5616,-3.5616,-3.5616,-3.5616,-3.5616,-3.5616,-3.5616,-3.5616,-3.5616,-3.5616,-3.5616,-3.5616,-3.5566,-3.5318,-3.4878,-3.4527,-3.3855,-3.346,-3.3468,-3.3264,-3.2911,-3.2454,-3.2467,-3.2546,-3.2491,-3.2607,-3.2804,-3.3057,-3.315,-3.3301,-3.3534,-3.3605,-3.3643,-3.3762,-3.3807,-3.3807,-3.3807,-3.3807,-3.3807,-3.3807,-3.3807,-3.3807,-6.5191,-6.4879,-6.3429,-6.2713,-6.242,-6.1006,-5.996,-5.9148,-5.8345,-5.7978,-5.7978,-5.7978,-5.7978,-5.7923,-5.7354,-5.6946,-5.6634,-5.5497,-5.4576,-5.3959,-5.3348,-5.2694,-5.2126,-5.1956,-5.1683,-5.1281,-5.082,-5.025,-4.9524,-4.8782,-4.758,-4.6062,-4.5066,-4.4282,-4.369,-4.3504,-4.275,-4.1491,-4.073,-4.0282,-4.0113,-4.0113,-3.9842,-3.9292,-3.9242,-3.8928,-3.821,-3.8159,-3.8075,-3.7882,-3.7364,-3.7066,-3.7026,-3.6468,-3.6039,-3.5904,-3.587,-3.5785,-3.5616,-3.5616,-3.5616,-3.5616,-3.5616,-3.5616,-3.5616,-3.5616,-3.5616,-3.5616,-3.5616,-3.5616,-3.5616,-3.5616,-3.5616,-3.5616,-3.5616,-3.5616,-3.5616,-3.5616,-3.5616,-3.5616,-3.5616,-3.5616,-3.5616,-3.5616,-3.5616,-3.5515,-3.4979,-3.4472,-3.4189,-3.3219,-3.2553,-3.2304,-3.2332,-3.2282,-3.1923,-3.2018,-3.2232,-3.2455,-3.2657,-3.287,-3.3057,-3.3229,-3.3396,-3.3567,-3.3619,-3.3671,-3.378,-3.3807,-3.3807,-3.3807,-3.3807,-3.3807,-3.3807,-3.3807,-3.3807,-6.4879,-6.4127,-6.3209,-6.2383,-6.1649,-6.0786,-5.9942,-5.9148,-5.8345,-5.7978,-5.7978,-5.7978,-5.7978,-5.7978,-5.7905,-5.7501,-5.6836,-5.6543,-5.5551,-5.4137,-5.3804,-5.315,-5.2198,-5.1974,-5.1683,-5.1281,-5.082,-5.0467,-5.015,-4.8976,-4.7481,-4.5857,-4.4987,-4.4581,-4.4412,-4.3775,-4.3031,-4.2185,-4.1474,-4.0764,-4.0146,-4.0113,-4.0062,-4.0011,-3.9994,-3.9656,-3.8937,-3.8911,-3.8582,-3.799,-3.7872,-3.7804,-3.7787,-3.7719,-3.7381,-3.6738,-3.6677,-3.6383,-3.5718,-3.5616,-3.5616,-3.5616,-3.5616,-3.5616,-3.5616,-3.5616,-3.5616,-3.5616,-3.5616,-3.5616,-3.5616,-3.5616,-3.5616,-3.5616,-3.5616,-3.5616,-3.5616,-3.5616,-3.5616,-3.5616,-3.5616,-3.5616,-3.5616,-3.5616,-3.5616,-3.56,-3.4878,-3.4184,-3.3677,-3.2917,-3.2236,-3.1803,-3.1677,-3.1848,-3.1983,-3.209,-3.2249,-3.2522,-3.2706,-3.2884,-3.3073,-3.3256,-3.3437,-3.3581,-3.3661,-3.3712,-3.378,-3.3807,-3.3807,-3.3807,-3.3807,-3.3807,-3.3807,-3.3807,-3.3807,-6.4824,-6.4035,-6.3172,-6.2346,-6.152,-6.0731,-5.996,-5.9148,-5.8364,-5.7978,-5.7978,-5.7978,-5.7978,-5.7978,-5.7978,-5.7813,-5.746,-5.6887,-5.6204,-5.5322,-5.4239,-5.3363,-5.2785,-5.2005,-5.1497,-5.1167,-5.0702,-5.0425,-5.0079,-4.9016,-4.7702,-4.6409,-4.5618,-4.5026,-4.4604,-4.4265,-4.3724,-4.2963,-4.2219,-4.1491,-4.0798,-4.0333,-4.0113,-4.0113,-4.0113,-3.9977,-3.9681,-3.9656,-3.952,-3.9216,-3.8785,-3.8548,-3.8548,-3.8142,-3.777,-3.7449,-3.7009,-3.666,-3.6332,-3.5893,-3.5616,-3.5616,-3.5616,-3.5616,-3.5616,-3.5616,-3.5616,-3.5616,-3.5616,-3.5616,-3.5616,-3.5616,-3.5616,-3.5616,-3.5616,-3.5616,-3.5616,-3.5616,-3.5616,-3.5616,-3.5616,-3.5616,-3.5616,-3.5616,-3.5616,-3.5447,-3.4658,-3.3795,-3.3406,-3.2547,-3.1849,-3.1602,-3.1653,-3.1857,-3.2055,-3.2214,-3.2371,-3.2574,-3.2787,-3.2963,-3.307,-3.3301,-3.3495,-3.3609,-3.3675,-3.3726,-3.3775,-3.3807,-3.3807,-3.3807,-3.3807,-3.3807,-3.3807,-3.3807,-3.3807,-6.4494,-6.3704,-6.3037,-6.2218,-6.1227,-6.0658,-5.9832,-5.8877,-5.8253,-5.7978,-5.7978,-5.7978,-5.7973,-5.7932,-5.795,-5.7932,-5.7854,-5.7141,-5.6622,-5.6193,-5.4828,-5.3838,-5.3153,-5.2246,-5.1519,-5.1025,-5.061,-5.0257,-4.993,-4.8866,-4.7899,-4.7069,-4.6177,-4.5432,-4.4953,-4.475,-4.4198,-4.3436,-4.2861,-4.2151,-4.1255,-4.0663,-4.0316,-4.013,-4.0113,-4.0113,-4.0113,-4.0113,-4.0113,-4.0096,-3.9588,-3.9292,-3.9259,-3.8785,-3.8413,-3.8159,-3.7499,-3.7117,-3.7077,-3.6366,-3.5926,-3.5904,-3.5735,-3.5616,-3.5616,-3.5616,-3.5616,-3.5616,-3.5616,-3.5616,-3.5616,-3.5616,-3.5616,-3.5616,-3.5616,-3.5616,-3.5616,-3.5616,-3.5616,-3.5616,-3.5616,-3.5616,-3.5616,-3.5616,-3.5616,-3.5481,-3.4556,-3.3613,-3.3384,-3.2556,-3.1788,-3.1606,-3.1765,-3.1966,-3.209,-3.2249,-3.2439,-3.2607,-3.282,-3.2995,-3.3101,-3.3345,-3.3538,-3.3605,-3.3689,-3.3758,-3.3793,-3.3807,-3.3807,-3.3807,-3.3807,-3.3807,-3.3807,-3.3807,-3.3807,-6.3649,-6.2909,-6.2842,-6.1906,-6.0474,-6.0419,-5.9501,-5.8125,-5.8033,-5.7978,-5.7978,-5.7978,-5.7927,-5.7834,-5.7815,-5.7834,-5.775,-5.7462,-5.6873,-5.6133,-5.576,-5.4673,-5.299,-5.2641,-5.1927,-5.0961,-5.0572,-5.0086,-4.9526,-4.8618,-4.8001,-4.7767,-4.6447,-4.572,-4.5517,-4.4908,-4.4198,-4.3572,-4.3325,-4.2648,-4.1457,-4.1187,-4.0781,-4.0231,-4.0113,-4.0113,-4.0113,-4.0113,-4.0113,-4.0113,-4.0028,-4.0028,-4.0028,-3.9977,-3.9622,-3.8971,-3.8261,-3.7855,-3.777,-3.7161,-3.6728,-3.6626,-3.6062,-3.5616,-3.5616,-3.5616,-3.5616,-3.5616,-3.5616,-3.5616,-3.5616,-3.5616,-3.5616,-3.5616,-3.5616,-3.5616,-3.5616,-3.5616,-3.5616,-3.5616,-3.5616,-3.5616,-3.5616,-3.5616,-3.5616,-3.5481,-3.4912,-3.4244,-3.3705,-3.3008,-3.2322,-3.1909,-3.1908,-3.209,-3.2126,-3.2301,-3.2473,-3.2623,-3.2852,-3.3026,-3.3178,-3.3342,-3.3488,-3.3633,-3.3712,-3.378,-3.3793,-3.3807,-3.3807,-3.3807,-3.3807,-3.3807,-3.3807,-3.3807,-3.3807,-6.3576,-6.2823,-6.2823,-6.1863,-6.0456,-6.0401,-5.9483,-5.8033,-5.7978,-5.7978,-5.7978,-5.7909,-5.7839,-5.7792,-5.7625,-5.7601,-5.7649,-5.7406,-5.7075,-5.6674,-5.5944,-5.5121,-5.4331,-5.3034,-5.2065,-5.142,-5.0641,-4.9999,-4.953,-4.9031,-4.8493,-4.7817,-4.6921,-4.6177,-4.5652,-4.4987,-4.4445,-4.4147,-4.3707,-4.3122,-4.253,-4.1694,-4.1052,-4.0798,-4.035,-4.0113,-4.0113,-4.0113,-4.0113,-4.0113,-4.0113,-4.0113,-4.0113,-4.0113,-3.9994,-3.9673,-3.9005,-3.8599,-3.8514,-3.7922,-3.728,-3.6829,-3.6558,-3.6129,-3.5718,-3.5616,-3.5616,-3.5616,-3.5616,-3.5616,-3.5616,-3.5616,-3.5616,-3.5616,-3.5616,-3.5616,-3.5616,-3.5616,-3.5616,-3.5616,-3.5616,-3.5616,-3.5616,-3.5616,-3.5616,-3.5532,-3.4962,-3.4503,-3.4185,-3.3366,-3.2579,-3.2391,-3.2221,-3.209,-3.209,-3.2335,-3.2556,-3.2722,-3.2918,-3.3091,-3.3259,-3.3419,-3.3577,-3.3619,-3.3712,-3.3793,-3.3807,-3.3807,-3.3807,-3.3807,-3.3807,-3.3807,-3.3807,-3.3807,-3.3807,-6.3337,-6.286,-6.2823,-6.2034,-6.0823,-6.0493,-5.963,-5.8419,-5.8125,-5.7973,-5.7927,-5.7839,-5.7763,-5.7649,-5.7455,-5.7338,-5.7406,-5.7213,-5.7087,-5.6948,-5.6124,-5.5509,-5.4874,-5.3561,-5.247,-5.1654,-5.0524,-4.9767,-4.9428,-4.9229,-4.8823,-4.8257,-4.753,-4.6786,-4.6058,-4.5331,-4.4886,-4.4536,-4.4045,-4.369,-4.3291,-4.2219,-4.1441,-4.1119,-4.0476,-4.0113,-4.0113,-4.0113,-4.0113,-4.0113,-4.0113,-4.0113,-4.0113,-4.0113,-4.0113,-4.0045,-3.9656,-3.9343,-3.9259,-3.865,-3.8024,-3.755,-3.7286,-3.6806,-3.6096,-3.5994,-3.587,-3.5684,-3.5616,-3.5616,-3.5616,-3.5616,-3.5616,-3.5616,-3.5616,-3.5616,-3.5616,-3.5616,-3.5616,-3.5616,-3.5616,-3.5616,-3.5616,-3.5616,-3.5616,-3.5616,-3.5148,-3.4871,-3.4555,-3.3997,-3.3111,-3.287,-3.2637,-3.2385,-3.2266,-3.237,-3.2539,-3.2705,-3.2948,-3.3137,-3.3274,-3.3466,-3.3577,-3.3619,-3.3671,-3.3753,-3.3793,-3.3807,-3.3807,-3.3807,-3.3807,-3.3807,-3.3807,-3.3807,-3.3807,-6.2842,-6.2823,-6.2823,-6.2328,-6.1429,-6.0694,-5.9942,-5.9098,-5.8304,-5.7927,-5.7815,-5.7792,-5.7625,-5.7431,-5.7282,-5.7112,-5.6984,-5.6977,-5.6847,-5.6591,-5.6393,-5.5755,-5.4874,-5.4317,-5.3096,-5.1558,-5.0209,-4.9462,-4.9229,-4.9094,-4.8951,-4.8832,-4.8173,-4.7394,-4.6752,-4.5957,-4.528,-4.4705,-4.4496,-4.4147,-4.3453,-4.2709,-4.1982,-4.1305,-4.0587,-4.0163,-4.0113,-4.0113,-4.0113,-4.0113,-4.0113,-4.0113,-4.0113,-4.0113,-4.0113,-4.0113,-4.0062,-4.0062,-3.9977,-3.9402,-3.8971,-3.8684,-3.8278,-3.7601,-3.6924,-3.6795,-3.6535,-3.6022,-3.5769,-3.5684,-3.5701,-3.5633,-3.5616,-3.5616,-3.5616,-3.5616,-3.5616,-3.5616,-3.5616,-3.5616,-3.5616,-3.5616,-3.5616,-3.5616,-3.5616,-3.5583,-3.5498,-3.5323,-3.4941,-3.4661,-3.4172,-3.337,-3.2962,-3.2767,-3.2528,-3.237,-3.2489,-3.2638,-3.2914,-3.315,-3.3244,-3.3393,-3.3553,-3.3591,-3.3703,-3.3766,-3.3807,-3.3807,-3.3807,-3.3807,-3.3807,-3.3807,-3.3807,-3.3807,-3.3807,-6.2823,-6.2823,-6.2823,-6.2346,-6.1539,-6.0731,-5.9942,-5.9129,-5.8252,-5.7834,-5.7768,-5.7601,-5.7431,-5.7264,-5.713,-5.6899,-5.66,-5.66,-5.6546,-5.641,-5.6172,-5.5784,-5.5214,-5.4501,-5.3101,-5.1334,-5.0558,-4.9875,-4.9301,-4.908,-4.9018,-4.8866,-4.8291,-4.753,-4.6836,-4.6058,-4.5331,-4.4682,-4.4598,-4.4434,-4.4164,-4.3453,-4.2709,-4.1965,-4.1238,-4.0654,-4.0163,-4.0113,-4.0113,-4.0113,-4.0113,-4.0113,-4.0113,-4.0113,-4.0113,-4.0113,-4.0113,-4.0113,-4.0079,-3.9893,-3.9478,-3.9089,-3.8768,-3.8311,-3.7669,-3.7567,-3.7432,-3.711,-3.6755,-3.6434,-3.6349,-3.591,-3.5667,-3.5616,-3.5616,-3.5616,-3.5616,-3.5616,-3.5616,-3.5616,-3.5616,-3.5616,-3.5616,-3.5616,-3.5616,-3.5616,-3.5616,-3.5492,-3.5433,-3.5121,-3.4894,-3.4363,-3.3842,-3.3164,-3.2876,-3.2634,-3.2614,-3.2677,-3.2866,-3.3104,-3.3196,-3.3334,-3.3481,-3.3605,-3.3703,-3.3753,-3.3793,-3.3807,-3.3807,-3.3807,-3.3807,-3.3807,-3.3807,-3.3807,-3.3807,-6.2823,-6.2823,-6.2823,-6.253,-6.1924,-6.0896,-6.0102,-5.9425,-5.8315,-5.7763,-5.7625,-5.7431,-5.7239,-5.7105,-5.6899,-5.6653,-5.6383,-5.6162,-5.6067,-5.6021,-5.5879,-5.5619,-5.5249,-5.4329,-5.3173,-5.1788,-5.1162,-5.043,-4.9596,-4.9452,-4.9272,-4.8951,-4.8545,-4.7953,-4.7192,-4.6481,-4.5737,-4.5106,-4.4739,-4.4598,-4.4445,-4.3826,-4.3183,-4.2642,-4.1728,-4.1001,-4.051,-4.0265,-4.0113,-4.0113,-4.0113,-4.0113,-4.0113,-4.0113,-4.0113,-4.0113,-4.0113,-4.0113,-4.0113,-4.0079,-3.9943,-3.9503,-3.9419,-3.9073,-3.8481,-3.8311,-3.8244,-3.7855,-3.7483,-3.7195,-3.7094,-3.6518,-3.6096,-3.6062,-3.5791,-3.5633,-3.5616,-3.5616,-3.5616,-3.5616,-3.5616,-3.5616,-3.5616,-3.5616,-3.5616,-3.5616,-3.5616,-3.5622,-3.5627,-3.5448,-3.5271,-3.5042,-3.4536,-3.3883,-3.3235,-3.2965,-3.2756,-3.2749,-3.2804,-3.3011,-3.315,-3.3289,-3.3422,-3.3563,-3.3671,-3.3739,-3.378,-3.3807,-3.3807,-3.3807,-3.3807,-3.3807,-3.3807,-3.3807,-3.3807,-6.2823,-6.2823,-6.2823,-6.2787,-6.253,-6.1056,-6.0274,-5.9938,-5.8445,-5.7625,-5.7388,-5.7239,-5.7087,-5.6899,-5.66,-5.6401,-5.6245,-5.5828,-5.5537,-5.5478,-5.5419,-5.5282,-5.4974,-5.4073,-5.3255,-5.2631,-5.1926,-5.1019,-5.0031,-5.0014,-4.9712,-4.9052,-4.8917,-4.8612,-4.7787,-4.7175,-4.6447,-4.5618,-4.501,-4.4733,-4.4598,-4.3944,-4.3453,-4.3291,-4.2168,-4.139,-4.1035,-4.0468,-4.0113,-4.0113,-4.0113,-4.0113,-4.0113,-4.0113,-4.0113,-4.0113,-4.0113,-4.0113,-4.0113,-4.0113,-4.0079,-4.0011,-3.996,-3.9842,-3.9174,-3.9039,-3.8853,-3.8345,-3.8075,-3.7956,-3.7838,-3.7297,-3.6897,-3.6694,-3.6045,-3.565,-3.5616,-3.5616,-3.5616,-3.5616,-3.5616,-3.5616,-3.5616,-3.5616,-3.5616,-3.5616,-3.5616,-3.5622,-3.5627,-3.5547,-3.547,-3.5245,-3.4971,-3.4562,-3.394,-3.3168,-3.2984,-3.2949,-3.2887,-3.2836,-3.3088,-3.3244,-3.3378,-3.3534,-3.3643,-3.3712,-3.3766,-3.378,-3.3807,-3.3807,-3.3807,-3.3807,-3.3807,-3.3807,-3.3807,-6.2823,-6.2823,-6.2823,-6.2823,-6.256,-6.0982,-6.0213,-5.9944,-5.8276,-5.7412,-5.7257,-5.7112,-5.6873,-5.6573,-5.6455,-5.6179,-5.5782,-5.5584,-5.5269,-5.4996,-5.4824,-5.4762,-5.4603,-5.4114,-5.3432,-5.2745,-5.2425,-5.1547,-5.0217,-5.0168,-4.9763,-4.9035,-4.9018,-4.8663,-4.7939,-4.7686,-4.6921,-4.5872,-4.5551,-4.5094,-4.4666,-4.4429,-4.3995,-4.3375,-4.3014,-4.2236,-4.1305,-4.0476,-4.0113,-4.0113,-4.0113,-4.0113,-4.0113,-4.0113,-4.0113,-4.0113,-4.0113,-4.0113,-4.0113,-4.0113,-4.0113,-4.0113,-4.0113,-4.0011,-3.9859,-3.9808,-3.9723,-3.9436,-3.9073,-3.8717,-3.8599,-3.8041,-3.7449,-3.6812,-3.6197,-3.5701,-3.5616,-3.5616,-3.5616,-3.5616,-3.5616,-3.5616,-3.5616,-3.5616,-3.5616,-3.5616,-3.5616,-3.5616,-3.5622,-3.5689,-3.5613,-3.5595,-3.5389,-3.5087,-3.4572,-3.3699,-3.3223,-3.3213,-3.3001,-3.2641,-3.2916,-3.3196,-3.3345,-3.3506,-3.3615,-3.3698,-3.3739,-3.3766,-3.378,-3.3807,-3.3807,-3.3807,-3.3807,-3.3807,-3.3807,-6.2823,-6.2823,-6.2823,-6.2578,-6.2045,-6.0762,-5.9956,-5.9297,-5.8012,-5.7257,-5.7105,-5.6847,-5.6626,-5.6401,-5.6123,-5.5839,-5.5525,-5.5209,-5.4917,-5.4669,-5.4303,-5.4239,-5.4207,-5.3996,-5.3578,-5.3139,-5.299,-5.2263,-5.1166,-5.0727,-5.0168,-4.9543,-4.9154,-4.8781,-4.8443,-4.799,-4.7534,-4.6684,-4.6109,-4.5449,-4.5094,-4.475,-4.4384,-4.3876,-4.3606,-4.2709,-4.1356,-4.0781,-4.0426,-4.0214,-4.0113,-4.0113,-4.0113,-4.0113,-4.0113,-4.0113,-4.0113,-4.0113,-4.0113,-4.0113,-4.0113,-4.0113,-4.0113,-4.0113,-4.0079,-4.0113,-4.0113,-3.9994,-3.969,-3.9495,-3.9343,-3.8785,-3.8075,-3.7398,-3.6857,-3.6293,-3.5735,-3.5616,-3.5616,-3.5616,-3.5616,-3.5616,-3.5616,-3.5616,-3.5616,-3.5616,-3.5616,-3.5616,-3.5639,-3.5706,-3.5739,-3.5701,-3.5634,-3.5368,-3.5101,-3.4394,-3.3457,-3.3365,-3.3073,-3.27,-3.2804,-3.3119,-3.3304,-3.3452,-3.3577,-3.3657,-3.3698,-3.3739,-3.3793,-3.3807,-3.3807,-3.3807,-3.3807,-3.3807,-3.3807,-6.278,-6.278,-6.278,-6.2247,-6.1359,-6.0493,-5.957,-5.8544,-5.7601,-5.7079,-5.6873,-5.6546,-5.6373,-5.629,-5.5782,-5.5478,-5.5329,-5.4824,-5.4526,-5.4271,-5.4013,-5.3849,-5.3932,-5.3783,-5.365,-5.3549,-5.3534,-5.2976,-5.2131,-5.1539,-5.0862,-5.0084,-4.9407,-4.9086,-4.8832,-4.8376,-4.8007,-4.7567,-4.6701,-4.5991,-4.5585,-4.5077,-4.4705,-4.4384,-4.3741,-4.2912,-4.1863,-4.1271,-4.0882,-4.0265,-4.0163,-4.0113,-4.0113,-4.0113,-4.0113,-4.0113,-4.0113,-4.0113,-4.0113,-4.0113,-4.0113,-4.0113,-4.0113,-4.0113,-4.0113,-4.0113,-4.0113,-4.0113,-4.0113,-4.0011,-3.9926,-3.9453,-3.8802,-3.8176,-3.7973,-3.729,-3.6242,-3.5769,-3.5701,-3.5616,-3.5616,-3.5616,-3.5616,-3.5616,-3.5616,-3.5616,-3.5616,-3.5616,-3.5616,-3.5661,-3.5728,-3.5766,-3.5713,-3.5598,-3.5377,-3.5098,-3.4135,-3.3494,-3.3124,-3.2808,-3.2776,-3.3011,-3.3214,-3.3378,-3.3509,-3.3605,-3.3657,-3.3712,-3.3766,-3.3807,-3.3807,-3.3807,-3.3807,-3.3807,-3.3807,-6.2748,-6.2636,-6.2654,-6.2102,-6.1189,-6.0285,-5.9314,-5.8337,-5.743,-5.6847,-5.6555,-5.6428,-5.6123,-5.5713,-5.5537,-5.5221,-5.4793,-5.4543,-5.4303,-5.3882,-5.3783,-5.3668,-5.3651,-5.3551,-5.3551,-5.3534,-5.3534,-5.3078,-5.2418,-5.2063,-5.1386,-5.027,-4.9949,-4.956,-4.9052,-4.8832,-4.8413,-4.7939,-4.75,-4.6786,-4.594,-4.5568,-4.5128,-4.4604,-4.3859,-4.3325,-4.2794,-4.1813,-4.1153,-4.0865,-4.0468,-4.0197,-4.0113,-4.0113,-4.0113,-4.0113,-4.0113,-4.0113,-4.0113,-4.0113,-4.0113,-4.0113,-4.0113,-4.0113,-4.0113,-4.0113,-4.0113,-4.0113,-4.0113,-4.0113,-4.0079,-3.9977,-3.9503,-3.8937,-3.8734,-3.8413,-3.755,-3.6857,-3.6265,-3.5842,-3.5633,-3.5616,-3.5616,-3.5616,-3.5616,-3.5616,-3.5616,-3.5616,-3.5616,-3.5616,-3.5667,-3.5751,-3.5722,-3.563,-3.5578,-3.5286,-3.4611,-3.38,-3.3347,-3.3003,-3.296,-3.2884,-3.3091,-3.3292,-3.3455,-3.3538,-3.3605,-3.3689,-3.3744,-3.3766,-3.3825,-3.3917,-3.394,-3.3899,-3.4192,-6.2654,-6.2548,-6.2124,-6.1401,-6.0471,-5.9543,-5.859,-5.773,-5.7036,-5.66,-5.6355,-5.6134,-5.5782,-5.5478,-5.5161,-5.4776,-5.4512,-5.4224,-5.3948,-5.3668,-5.3601,-5.3584,-5.3534,-5.3518,-5.3518,-5.3518,-5.3518,-5.3213,-5.2892,-5.2452,-5.1894,-5.1099,-5.049,-4.9915,-4.9475,-4.9187,-4.8832,-4.8413,-4.8041,-4.7449,-4.6807,-4.6007,-4.5348,-4.4722,-4.4147,-4.3826,-4.3301,-4.2699,-4.1888,-4.1322,-4.0832,-4.0451,-4.0146,-4.0113,-4.0113,-4.0113,-4.0113,-4.0113,-4.0113,-4.0113,-4.0113,-4.0113,-4.0113,-4.0113,-4.0113,-4.0113,-4.0113,-4.0113,-4.0113,-4.0113,-4.0113,-4.0096,-3.9842,-3.969,-3.9495,-3.9199,-3.8447,-3.7483,-3.6711,-3.618,-3.5836,-3.5684,-3.5616,-3.5667,-3.5616,-3.5616,-3.5616,-3.5616,-3.5616,-3.56,-3.5622,-3.5667,-3.5667,-3.5666,-3.5701,-3.5429,-3.4967,-3.4281,-3.3743,-3.3421,-3.3213,-3.3079,-3.2965,-3.3152,-3.3334,-3.3452,-3.3534,-3.3605,-3.3689,-3.3712,-3.3808,-3.3986,-3.422,-3.4472,-3.4945,-6.2504,-6.2289,-6.1485,-6.0536,-5.9517,-5.8665,-5.7823,-5.6937,-5.6519,-5.63,-5.6162,-5.5695,-5.5478,-5.5239,-5.4793,-5.4512,-5.4239,-5.3948,-5.3601,-5.3517,-5.3534,-5.3501,-5.3518,-5.3518,-5.3518,-5.3518,-5.3518,-5.345,-5.3264,-5.2858,-5.2418,-5.2063,-5.0963,-5.0253,-4.9965,-4.939,-4.8968,-4.8832,-4.8443,-4.802,-4.7669,-4.6701,-4.5838,-4.4976,-4.4581,-4.4231,-4.3758,-4.3308,-4.2784,-4.1644,-4.1441,-4.0967,-4.0451,-4.013,-4.0113,-4.0113,-4.0113,-4.0113,-4.0113,-4.0113,-4.0113,-4.0113,-4.0113,-4.0113,-4.0113,-4.0113,-4.0113,-4.0113,-4.0113,-4.0113,-4.0113,-4.0113,-4.0113,-4.0062,-4.0079,-3.9808,-3.9131,-3.7946,-3.7354,-3.6874,-3.6417,-3.6062,-3.5876,-3.5808,-3.5701,-3.5616,-3.5616,-3.5616,-3.5616,-3.56,-3.5622,-3.5622,-3.5644,-3.5689,-3.572,-3.577,-3.528,-3.4826,-3.4222,-3.3958,-3.3668,-3.3635,-3.3537,-3.3134,-3.3211,-3.3418,-3.3521,-3.3534,-3.3605,-3.3657,-3.3968,-3.4307,-3.4683,-3.5064,-3.5665,-6.1988,-6.1246,-6.0961,-5.9941,-5.8535,-5.8035,-5.7352,-5.6563,-5.629,-5.6,-5.5683,-5.5537,-5.5131,-5.4762,-5.4606,-5.4254,-5.3882,-5.3634,-5.3534,-5.3501,-5.3518,-5.3518,-5.3518,-5.3518,-5.3518,-5.3518,-5.3518,-5.3518,-5.3501,-5.3348,-5.2909,-5.2266,-5.1471,-5.0811,-5.0118,-4.9407,-4.9069,-4.9018,-4.8798,-4.8494,-4.802,-4.7517,-4.6735,-4.5602,-4.5026,-4.4649,-4.4316,-4.3775,-4.3257,-4.2987,-4.2455,-4.1779,-4.1068,-4.0476,-4.0197,-4.0113,-4.0113,-4.0113,-4.0113,-4.0113,-4.0113,-4.0113,-4.0113,-4.0113,-4.0113,-4.0113,-4.0113,-4.0113,-4.0113,-4.0113,-4.0113,-4.0113,-4.0113,-4.0113,-4.0079,-4.0028,-3.9723,-3.9114,-3.8352,-3.7905,-3.7212,-3.6552,-3.6451,-3.6214,-3.5977,-3.5819,-3.5684,-3.565,-3.5616,-3.5616,-3.56,-3.56,-3.56,-3.5689,-3.5761,-3.5842,-3.569,-3.5325,-3.4904,-3.4681,-3.4468,-3.4405,-3.42,-3.3695,-3.3488,-3.362,-3.3653,-3.3706,-3.3833,-3.4109,-3.4414,-3.4755,-3.5278,-3.5823,-3.6435,-6.1323,-6.079,-5.9798,-5.8835,-5.7972,-5.7316,-5.673,-5.6169,-5.5925,-5.5666,-5.5354,-5.5101,-5.4824,-5.448,-5.4192,-5.3899,-5.3651,-5.3551,-5.3501,-5.3518,-5.3518,-5.3518,-5.3518,-5.3518,-5.3518,-5.3518,-5.3518,-5.3518,-5.3518,-5.3501,-5.3264,-5.2892,-5.2164,-5.1403,-5.0676,-4.9982,-4.939,-4.9154,-4.9001,-4.8849,-4.8426,-4.8125,-4.7293,-4.6413,-4.5585,-4.5213,-4.5026,-4.4462,-4.3826,-4.3409,-4.3064,-4.2489,-4.1813,-4.1136,-4.0493,-4.0231,-4.0113,-4.0113,-4.0113,-4.0113,-4.0113,-4.0113,-4.0113,-4.0113,-4.0113,-4.0113,-4.0113,-4.0113,-4.0113,-4.0113,-4.0113,-4.0113,-4.0113,-4.0113,-4.0113,-4.0113,-4.0028,-3.974,-3.9326,-3.8836,-3.8058,-3.7483,-3.7246,-3.6907,-3.64,-3.6096,-3.5836,-3.5718,-3.5633,-3.5616,-3.5616,-3.5616,-3.5616,-3.5684,-3.5734,-3.5827,-3.5924,-3.5689,-3.5456,-3.5258,-3.5085,-3.4958,-3.4582,-3.4147,-3.405,-3.4295,-3.4472,-3.4749,-3.4679,-3.4624,-3.5081,-3.5538,-3.6065,-3.6618,-3.7194,-6.0368,-6.0061,-5.8547,-5.7747,-5.735,-5.6585,-5.6067,-5.5775,-5.5519,-5.5264,-5.5035,-5.4683,-5.448,-5.4257,-5.3932,-5.3618,-5.3518,-5.3501,-5.3501,-5.3518,-5.3518,-5.3518,-5.3518,-5.3518,-5.3518,-5.3518,-5.3518,-5.3518,-5.3518,-5.3518,-5.3518,-5.3196,-5.2655,-5.2046,-5.1369,-5.0456,-4.9813,-4.939,-4.9035,-4.9018,-4.8832,-4.8291,-4.7665,-4.7039,-4.6295,-4.5872,-4.5568,-4.5128,-4.4418,-4.3944,-4.3606,-4.3301,-4.2591,-4.1965,-4.1238,-4.046,-4.0231,-4.0113,-4.0113,-4.0113,-4.0113,-4.0113,-4.0113,-4.0113,-4.0113,-4.0113,-4.0113,-4.0113,-4.0113,-4.0113,-4.0113,-4.0113,-4.0113,-4.0113,-4.0113,-4.0113,-4.0113,-4.0011,-3.9977,-3.9428,-3.8802,-3.8396,-3.8108,-3.7516,-3.6992,-3.6502,-3.6265,-3.5836,-3.5752,-3.5633,-3.5616,-3.5616,-3.5639,-3.5661,-3.5728,-3.5756,-3.5893,-3.5912,-3.5782,-3.5635,-3.5521,-3.5381,-3.51,-3.5005,-3.5312,-3.5563,-3.57,-3.5542,-3.5259,-3.5281,-3.5797,-3.6235,-3.6598,-3.7147,-3.7772,-5.8888,-5.8133,-5.7789,-5.7158,-5.6393,-5.5864,-5.5596,-5.549,-5.5191,-5.4869,-5.462,-5.4494,-5.4207,-5.3882,-5.3651,-5.3534,-5.3501,-5.3518,-5.3518,-5.3518,-5.3518,-5.3518,-5.3518,-5.3518,-5.3518,-5.3518,-5.3518,-5.3518,-5.3518,-5.3518,-5.3518,-5.3331,-5.2824,-5.2215,-5.1944,-5.098,-5.0067,-4.9864,-4.9323,-4.9018,-4.89,-4.8325,-4.797,-4.7648,-4.7073,-4.6464,-4.5991,-4.5635,-4.5111,-4.4564,-4.4429,-4.4028,-4.3436,-4.325,-4.2344,-4.1356,-4.0553,-4.0113,-4.013,-4.0113,-4.0113,-4.0113,-4.0113,-4.0113,-4.0113,-4.0113,-4.0113,-4.0113,-4.0113,-4.0113,-4.0113,-4.0113,-4.0113,-4.0113,-4.0113,-4.0113,-4.0113,-4.0113,-4.0113,-4.0079,-3.9436,-3.9174,-3.8937,-3.8227,-3.7567,-3.7094,-3.666,-3.6231,-3.587,-3.5752,-3.5616,-3.5616,-3.5616,-3.5639,-3.5661,-3.5711,-3.5822,-3.5997,-3.5968,-3.5941,-3.5897,-3.587,-3.6255,-3.6274,-3.6501,-3.6302,-3.5972,-3.5754,-3.5635,-3.593,-3.6497,-3.6794,-3.6999,-3.7619,-3.824,-5.7341,-5.7451,-5.6798,-5.6272,-5.5788,-5.5472,-5.5252,-5.507,-5.4824,-5.4557,-5.4335,-5.411,-5.3849,-5.3601,-5.3501,-5.3501,-5.3518,-5.3518,-5.3518,-5.3518,-5.3518,-5.3518,-5.3518,-5.3518,-5.3518,-5.3518,-5.3518,-5.3518,-5.3518,-5.3518,-5.3518,-5.345,-5.3129,-5.2706,-5.2435,-5.1691,-5.0879,-5.0152,-4.9424,-4.9035,-4.8934,-4.8714,-4.8511,-4.8494,-4.7784,-4.7293,-4.6853,-4.6024,-4.5635,-4.5128,-4.4891,-4.4479,-4.4028,-4.3673,-4.3003,-4.2581,-4.1762,-4.1001,-4.0282,-4.0163,-4.013,-4.0113,-4.0113,-4.0113,-4.0113,-4.0113,-4.0113,-4.0113,-4.0113,-4.0113,-4.0113,-4.0113,-4.0113,-4.0113,-4.0113,-4.0113,-4.0113,-4.0113,-4.0113,-4.0113,-4.0079,-3.9791,-3.9486,-3.8954,-3.8379,-3.799,-3.7371,-3.6705,-3.6265,-3.5887,-3.5735,-3.5616,-3.5616,-3.5639,-3.5622,-3.5644,-3.5728,-3.5866,-3.598,-3.6007,-3.6186,-3.6371,-3.6585,-3.6748,-3.6716,-3.6469,-3.6162,-3.6346,-3.6575,-3.6893,-3.721,-3.7347,-3.7482,-3.7834,-3.8385,-5.607,-5.661,-5.5906,-5.5502,-5.5341,-5.5156,-5.4961,-5.4717,-5.4512,-5.4303,-5.4028,-5.3783,-5.3618,-5.3534,-5.3501,-5.3518,-5.3518,-5.3518,-5.3518,-5.3518,-5.3518,-5.3518,-5.3518,-5.3518,-5.3518,-5.3518,-5.3518,-5.3518,-5.3518,-5.3518,-5.3518,-5.3518,-5.3433,-5.3162,-5.2723,-5.2215,-5.1505,-5.0135,-4.961,-4.9255,-4.9052,-4.9001,-4.8968,-4.8815,-4.8511,-4.8105,-4.7736,-4.6993,-4.6346,-4.5551,-4.5229,-4.4886,-4.4496,-4.4062,-4.3623,-4.3206,-4.2658,-4.1982,-4.1119,-4.0654,-4.0333,-4.0163,-4.0113,-4.0113,-4.0113,-4.0113,-4.0113,-4.0113,-4.0113,-4.0113,-4.0113,-4.0113,-4.0113,-4.0113,-4.0113,-4.0113,-4.0113,-4.0113,-4.0113,-4.0113,-4.0113,-4.0113,-3.9825,-3.9554,-3.9199,-3.8877,-3.8183,-3.732,-3.6705,-3.6214,-3.5943,-3.5769,-3.5616,-3.5616,-3.56,-3.5622,-3.5706,-3.5773,-3.5888,-3.6019,-3.6187,-3.6314,-3.644,-3.6606,-3.6768,-3.677,-3.6522,-3.707,-3.7559,-3.7488,-3.7486,-3.7769,-3.7998,-3.8334,-3.8684,-5.5376,-5.5183,-5.5204,-5.5156,-5.5022,-5.4886,-5.47,-5.4463,-5.4303,-5.4028,-5.375,-5.3584,-5.3534,-5.3501,-5.3518,-5.3518,-5.3518,-5.3518,-5.3518,-5.3518,-5.3518,-5.3518,-5.3518,-5.3518,-5.3518,-5.3518,-5.3518,-5.3518,-5.3518,-5.3518,-5.3518,-5.3518,-5.3518,-5.3467,-5.3129,-5.257,-5.1742,-5.0591,-5.0033,-4.9593,-4.9238,-4.9052,-4.9018,-4.9018,-4.89,-4.8629,-4.7956,-4.7618,-4.706,-4.6041,-4.5618,-4.5263,-4.4852,-4.4496,-4.4079,-4.3673,-4.3504,-4.2861,-4.2134,-4.1271,-4.0713,-4.035,-4.0113,-4.0113,-4.0113,-4.0113,-4.0113,-4.0113,-4.0113,-4.0113,-4.0113,-4.0113,-4.0113,-4.0113,-4.0113,-4.0113,-4.0113,-4.0113,-4.0113,-4.0113,-4.0113,-4.0113,-4.0096,-3.9825,-3.9639,-3.9334,-3.886,-3.7997,-3.7202,-3.6654,-3.6248,-3.5977,-3.5684,-3.5616,-3.5616,-3.5639,-3.5644,-3.5728,-3.5817,-3.5971,-3.6122,-3.6247,-3.6353,-3.644,-3.6585,-3.6748,-3.6981,-3.7357,-3.7622,-3.7611,-3.7775,-3.8187,-3.8633,-3.9061,-3.936,-5.4917,-5.4683,-5.4634,-5.4634,-5.4683,-5.4512,-5.4335,-5.4175,-5.398,-5.3783,-5.3584,-5.3534,-5.3518,-5.3518,-5.3518,-5.3518,-5.3518,-5.3518,-5.3518,-5.3518,-5.3518,-5.3518,-5.3518,-5.3518,-5.3518,-5.3518,-5.3518,-5.3518,-5.3518,-5.3518,-5.3518,-5.3518,-5.3518,-5.3501,-5.3247,-5.279,-5.2012,-5.1386,-5.0574,-4.9915,-4.9695,-4.9187,-4.9018,-4.9018,-4.9018,-4.89,-4.8578,-4.8139,-4.7584,-4.6976,-4.621,-4.5669,-4.5213,-4.4902,-4.4468,-4.413,-4.4062,-4.369,-4.2912,-4.1931,-4.0882,-4.0299,-4.0113,-4.0113,-4.013,-4.0113,-4.0113,-4.0113,-4.0113,-4.0113,-4.0113,-4.0113,-4.0113,-4.0113,-4.0113,-4.0113,-4.0113,-4.0113,-4.0113,-4.0113,-4.0113,-4.0113,-4.0113,-4.0079,-3.9926,-3.974,-3.9249,-3.8708,-3.7872,-3.7212,-3.6857,-3.6468,-3.6191,-3.5938,-3.5938,-3.5802,-3.5673,-3.5802,-3.592,-3.6156,-3.639,-3.6178,-3.6285,-3.6353,-3.6558,-3.6825,-3.7132,-3.7514,-3.7658,-3.7675,-3.8147,-3.8778,-3.9247,-3.9733,-4.0054,-5.4575,-5.4353,-5.4207,-5.4207,-5.4303,-5.4207,-5.4045,-5.3915,-5.3766,-5.3617,-5.3501,-5.3518,-5.3518,-5.3518,-5.3518,-5.3518,-5.3518,-5.3518,-5.3518,-5.3518,-5.3518,-5.3518,-5.3518,-5.3518,-5.3518,-5.3518,-5.3518,-5.3518,-5.3518,-5.3518,-5.3518,-5.3518,-5.3518,-5.3518,-5.3382,-5.301,-5.2553,-5.2029,-5.1454,-5.0388,-5.0135,-4.9644,-4.9137,-4.9086,-4.9018,-4.9001,-4.8849,-4.8528,-4.8142,-4.7601,-4.6989,-4.6227,-4.5703,-4.5246,-4.484,-4.4682,-4.453,-4.431,-4.3572,-4.2422,-4.1238,-4.0646,-4.0493,-4.0367,-4.018,-4.0113,-4.0113,-4.0113,-4.0113,-4.0113,-4.0113,-4.0113,-4.0113,-4.0113,-4.0113,-4.0113,-4.0113,-4.0113,-4.0113,-4.0113,-4.0113,-4.0113,-4.0113,-4.0113,-4.0045,-3.9943,-3.9757,-3.9233,-3.8514,-3.7956,-3.7618,-3.7229,-3.6834,-3.658,-3.6343,-3.6512,-3.6705,-3.6755,-3.6841,-3.6735,-3.6803,-3.6635,-3.6761,-3.7227,-3.7348,-3.7158,-3.7484,-3.8056,-3.797,-3.7715,-3.8478,-3.9383,-3.9766,-4.0239,-4.0709,-5.4303,-5.4013,-5.4013,-5.4013,-5.4013,-5.4013,-5.3882,-5.3717,-5.3684,-5.3601,-5.3501,-5.3518,-5.3518,-5.3518,-5.3518,-5.3518,-5.3518,-5.3518,-5.3518,-5.3518,-5.3518,-5.3518,-5.3518,-5.3518,-5.3518,-5.3518,-5.3518,-5.3518,-5.3518,-5.3518,-5.3518,-5.3518,-5.3518,-5.3518,-5.3501,-5.3484,-5.3061,-5.2418,-5.2232,-5.1352,-5.0591,-5.0152,-4.961,-4.9306,-4.9052,-4.9018,-4.8934,-4.8883,-4.8545,-4.8088,-4.7753,-4.7022,-4.6143,-4.5754,-4.528,-4.4818,-4.4666,-4.4564,-4.4412,-4.3075,-4.21,-4.1288,-4.1068,-4.0781,-4.0316,-4.013,-4.0113,-4.0113,-4.0113,-4.0113,-4.0113,-4.0113,-4.0113,-4.0113,-4.0113,-4.0113,-4.0113,-4.0113,-4.0113,-4.0113,-4.0113,-4.0113,-4.0113,-4.0113,-4.0113,-4.0079,-4.0096,-3.9706,-3.9073,-3.8599,-3.8227,-3.7905,-3.7516,-3.7273,-3.7138,-3.751,-3.7719,-3.7746,-3.7618,-3.7418,-3.7437,-3.7461,-3.7718,-3.8123,-3.8047,-3.7792,-3.8212,-3.8759,-3.8761,-3.8895,-3.9325,-4.0023,-4.0372,-4.081,-4.1339,-5.4013,-5.3816,-5.3816,-5.375,-5.3685,-5.375,-5.3734,-5.3584,-5.3551,-5.3517,-5.3501,-5.3518,-5.3518,-5.3518,-5.3518,-5.3518,-5.3518,-5.3518,-5.3518,-5.3518,-5.3518,-5.3518,-5.3518,-5.3518,-5.3518,-5.3518,-5.3518,-5.3518,-5.3518,-5.3518,-5.3518,-5.3518,-5.3518,-5.3518,-5.3501,-5.3501,-5.3298,-5.3027,-5.2604,-5.1995,-5.1488,-5.0659,-4.9982,-4.9678,-4.9272,-4.9018,-4.9018,-4.9018,-4.8815,-4.8511,-4.8291,-4.7618,-4.6887,-4.6498,-4.5652,-4.5196,-4.4993,-4.4598,-4.4564,-4.3921,-4.3244,-4.2337,-4.1559,-4.1255,-4.0849,-4.0316,-4.018,-4.0113,-4.013,-4.013,-4.0113,-4.0113,-4.0113,-4.0113,-4.0113,-4.0113,-4.0113,-4.0113,-4.0113,-4.0113,-4.0113,-4.0113,-4.0113,-4.0113,-4.0113,-4.0113,-4.0113,-4.0113,-3.9639,-3.914,-3.8717,-3.8481,-3.8193,-3.7973,-3.7956,-3.8261,-3.8311,-3.821,-3.8024,-3.7753,-3.7875,-3.8235,-3.8238,-3.8406,-3.8402,-3.8431,-3.8877,-3.9328,-3.9939,-4.0315,-4.0435,-4.0773,-4.1272,-4.168,-4.2104,-5.3783,-5.3634,-5.3634,-5.3584,-5.3534,-5.3601,-5.3584,-5.3518,-5.3518,-5.3518,-5.3518,-5.3518,-5.3518,-5.3518,-5.3518,-5.3518,-5.3518,-5.3518,-5.3518,-5.3518,-5.3518,-5.3518,-5.3518,-5.3518,-5.3518,-5.3518,-5.3518,-5.3518,-5.3518,-5.3518,-5.3518,-5.3518,-5.3518,-5.3518,-5.3518,-5.3501,-5.3484,-5.3298,-5.2959,-5.2587,-5.1978,-5.1217,-5.0371,-4.9949,-4.9475,-4.9018,-4.9018,-4.9018,-4.9001,-4.8849,-4.8595,-4.8125,-4.7682,-4.7124,-4.621,-4.572,-4.5043,-4.4666,-4.4581,-4.4564,-4.3904,-4.3295,-4.2405,-4.1897,-4.1542,-4.0933,-4.0646,-4.0502,-4.0299,-4.0163,-4.0146,-4.0146,-4.0113,-4.0113,-4.0113,-4.0113,-4.0113,-4.0113,-4.0113,-4.0113,-4.0113,-4.0113,-4.0113,-4.0113,-4.0113,-4.0113,-4.0113,-4.0113,-4.0113,-3.9673,-3.9276,-3.9106,-3.9005,-3.892,-3.8853,-3.8937,-3.8903,-3.8684,-3.8565,-3.8464,-3.8759,-3.9129,-3.8907,-3.8792,-3.9099,-3.9337,-3.9467,-3.9876,-4.0417,-4.0822,-4.1068,-4.1503,-4.2124,-4.2325,-4.2486,-5.355,-5.3433,-5.345,-5.3348,-5.3382,-5.3247,-5.3348,-5.3501,-5.3518,-5.3518,-5.3518,-5.3518,-5.3518,-5.3518,-5.3518,-5.3518,-5.3518,-5.3518,-5.3518,-5.3518,-5.3518,-5.3518,-5.3518,-5.3518,-5.3518,-5.3518,-5.3518,-5.3518,-5.3518,-5.3518,-5.3518,-5.3518,-5.3518,-5.3518,-5.3518,-5.3518,-5.3518,-5.3433,-5.3365,-5.2993,-5.2469,-5.1589,-5.0845,-5.0253,-4.956,-4.9103,-4.9018,-4.9018,-4.9018,-4.8984,-4.8934,-4.8528,-4.8159,-4.7906,-4.6972,-4.5957,-4.5026,-4.4835,-4.4598,-4.4598,-4.4564,-4.4107,-4.3724,-4.3098,-4.2371,-4.1677,-4.1322,-4.1001,-4.0764,-4.0468,-4.0248,-4.018,-4.0113,-4.0113,-4.0113,-4.0113,-4.0113,-4.0113,-4.0113,-4.0113,-4.0113,-4.0113,-4.0113,-4.0113,-4.0113,-4.0113,-4.0113,-4.0113,-4.0113,-4.0096,-3.9808,-3.9825,-3.9791,-3.9926,-3.9859,-3.9588,-3.9554,-3.9351,-3.9554,-3.9554,-3.9842,-3.9825,-3.9604,-3.9568,-3.9991,-4.0182,-4.0069,-4.0335,-4.0816,-4.1134,-4.1251,-4.1508,-4.1888,-4.2139,-4.2323,-5.1893,-5.1877,-5.1877,-5.1877,-5.1877,-5.1894,-5.2436,-5.3416,-5.3518,-5.3501,-5.3518,-5.3501,-5.3348,-5.3518,-5.3518,-5.3484,-5.3484,-5.3518,-5.3518,-5.3518,-5.3518,-5.3518,-5.3518,-5.3518,-5.3518,-5.3518,-5.3518,-5.3518,-5.3518,-5.3518,-5.3518,-5.3518,-5.3518,-5.3518,-5.3518,-5.3518,-5.3518,-5.3518,-5.3518,-5.3315,-5.2756,-5.186,-5.1217,-5.0608,-4.9576,-4.9154,-4.9018,-4.9018,-4.9018,-4.9018,-4.9018,-4.8798,-4.8781,-4.8159,-4.7229,-4.594,-4.5432,-4.5213,-4.4733,-4.4598,-4.4598,-4.4598,-4.4299,-4.3876,-4.3166,-4.2506,-4.2033,-4.1745,-4.1322,-4.0984,-4.0722,-4.0587,-4.0417,-4.0316,-4.0248,-4.0113,-4.0113,-4.0113,-4.0113,-4.0113,-4.0113,-4.0113,-4.0113,-4.0113,-4.0113,-4.0113,-4.0113,-4.0113,-4.0113,-4.0113,-4.0113,-4.0113,-4.0113,-4.0113,-4.0113,-3.9893,-3.9977,-4.0045,-4.0113,-4.0113,-4.0028,-4.0011,-4.0104,-4.0188,-4.0238,-4.0362,-4.0441,-4.0721,-4.0864,-4.0976,-4.1094,-4.1363,-4.1626,-4.1884,-4.2118,-5.1234,-5.1234,-5.1234,-5.1234,-5.1234,-5.1202,-5.1809,-5.252,-5.2604,-5.2604,-5.2604,-5.257,-5.2604,-5.2587,-5.2807,-5.2993,-5.3027,-5.3382,-5.3518,-5.3518,-5.3467,-5.3518,-5.3518,-5.3518,-5.3518,-5.3518,-5.3518,-5.3518,-5.3518,-5.3518,-5.3518,-5.3518,-5.3518,-5.3518,-5.3518,-5.3518,-5.3518,-5.3518,-5.3518,-5.3518,-5.2909,-5.2029,-5.1454,-5.0896,-4.9729,-4.9154,-4.9018,-4.9018,-4.9018,-4.9018,-4.9018,-4.9001,-4.8883,-4.8274,-4.777,-4.6616,-4.5906,-4.5568,-4.5111,-4.4733,-4.4649,-4.4598,-4.4598,-4.4316,-4.3842,-4.3234,-4.2912,-4.2625,-4.2066,-4.1593,-4.1322,-4.1052,-4.0798,-4.0561,-4.035,-4.013,-4.0113,-4.0113,-4.0113,-4.0113,-4.0113,-4.0113,-4.0113,-4.0113,-4.0113,-4.0113,-4.0113,-4.0113,-4.0113,-4.0113,-4.0113,-4.0113,-4.0113,-4.0113,-4.0113,-4.0113,-4.0113,-4.0113,-4.0113,-4.0113,-4.0113,-4.0096,-4.0096,-4.0163,-4.0213,-4.0337,-4.0412,-4.0534,-4.0673,-4.0793,-4.0929,-4.1146,-4.138,-4.1604,-4.1884,-5.0982,-5.0997,-5.1048,-5.093,-5.1014,-5.0914,-5.098,-5.1016,-5.1048,-5.1117,-5.1268,-5.1285,-5.1371,-5.1657,-5.2012,-5.2232,-5.2384,-5.2739,-5.3061,-5.3365,-5.3247,-5.3281,-5.3467,-5.3518,-5.3518,-5.3518,-5.3518,-5.3518,-5.3518,-5.3518,-5.3518,-5.3518,-5.3518,-5.3518,-5.3518,-5.3518,-5.3518,-5.3518,-5.3467,-5.3416,-5.2926,-5.208,-5.1166,-5.0828,-4.9881,-4.9018,-4.9018,-4.9018,-4.9018,-4.9018,-4.9018,-4.9018,-4.8781,-4.8494,-4.8105,-4.7551,-4.6701,-4.6024,-4.5551,-4.5094,-4.4784,-4.4666,-4.4598,-4.453,-4.4147,-4.3859,-4.3589,-4.3369,-4.2878,-4.2489,-4.2202,-4.1694,-4.1322,-4.0984,-4.0679,-4.0367,-4.013,-4.0113,-4.0113,-4.0113,-4.0113,-4.0113,-4.0113,-4.0113,-4.0113,-4.0113,-4.0113,-4.0113,-4.0113,-4.0113,-4.0113,-4.0113,-4.0113,-4.0113,-4.0113,-4.0113,-4.0113,-4.0113,-4.0113,-4.0113,-4.0113,-4.0113,-4.0113,-4.0138,-4.0188,-4.023,-4.033,-4.0429,-4.0527,-4.0624,-4.0745,-4.0912,-4.1146,-4.1375,-4.1604,-4.9526,-4.9526,-4.9526,-4.9526,-4.9543,-4.9526,-4.956,-4.9526,-4.9526,-5.0202,-5.1016,-5.1183,-5.115,-5.1116,-5.1302,-5.1471,-5.1589,-5.1894,-5.2114,-5.2435,-5.2604,-5.2858,-5.3331,-5.3315,-5.3416,-5.3518,-5.3518,-5.3518,-5.3518,-5.3518,-5.3518,-5.3518,-5.3518,-5.3518,-5.3518,-5.3518,-5.3518,-5.3518,-5.3484,-5.3112,-5.2452,-5.1792,-5.0997,-5.0371,-4.9458,-4.9052,-4.9018,-4.9018,-4.9018,-4.9018,-4.9018,-4.9018,-4.8984,-4.8798,-4.846,-4.7939,-4.7483,-4.6786,-4.6058,-4.5551,-4.5162,-4.4767,-4.4632,-4.4615,-4.4513,-4.4395,-4.4215,-4.3995,-4.3741,-4.3386,-4.298,-4.2405,-4.188,-4.1491,-4.1001,-4.0578,-4.018,-4.013,-4.0113,-4.0113,-4.0113,-4.0113,-4.0113,-4.0113,-4.0113,-4.0113,-4.0113,-4.0113,-4.0113,-4.0113,-4.0113,-4.0113,-4.0113,-4.0113,-4.0113,-4.0113,-4.0113,-4.0113,-4.0113,-4.0113,-4.0113,-4.0113,-4.0113,-4.0113,-4.0138,-4.0163,-4.0213,-4.0263,-4.0362,-4.0478,-4.0583,-4.0776,-4.0935,-4.1146,-4.138,-4.9018,-4.9018,-4.9018,-4.9018,-4.9018,-4.9018,-4.9018,-4.9018,-4.9018,-4.9458,-5.0152,-5.0236,-5.0253,-5.0371,-5.0541,-5.071,-5.0794,-5.11,-5.1471,-5.1758,-5.186,-5.2046,-5.2452,-5.2858,-5.2892,-5.2993,-5.3399,-5.3518,-5.3518,-5.3518,-5.3518,-5.3518,-5.3518,-5.3518,-5.3518,-5.3518,-5.3518,-5.3518,-5.3501,-5.2875,-5.2012,-5.1386,-5.0828,-5.0118,-4.9475,-4.9103,-4.9018,-4.9018,-4.9018,-4.9018,-4.9018,-4.9018,-4.9018,-4.8968,-4.8781,-4.8443,-4.799,-4.7534,-4.6769,-4.6109,-4.5618,-4.5162,-4.4682,-4.4666,-4.4598,-4.4479,-4.4479,-4.4282,-4.4248,-4.3944,-4.3724,-4.325,-4.2861,-4.2489,-4.1559,-4.0798,-4.0358,-4.0113,-4.0113,-4.0113,-4.0113,-4.0113,-4.0113,-4.0113,-4.0113,-4.0113,-4.0113,-4.0113,-4.0113,-4.0113,-4.0113,-4.0113,-4.0113,-4.0113,-4.0113,-4.0113,-4.0113,-4.0113,-4.0113,-4.0113,-4.0113,-4.0113,-4.0113,-4.0113,-4.0113,-4.0113,-4.0163,-4.0188,-4.0263,-4.0355,-4.0485,-4.0655,-4.0793,-4.0953,-4.1169,-4.868,-4.8731,-4.8697,-4.8714,-4.8731,-4.8697,-4.8748,-4.8832,-4.8849,-4.8917,-4.912,-4.9137,-4.9018,-4.9255,-4.9593,-4.9813,-5.0067,-5.0355,-5.076,-5.1031,-5.1065,-5.1369,-5.164,-5.1894,-5.2181,-5.257,-5.2959,-5.3298,-5.3518,-5.3518,-5.3518,-5.3518,-5.3518,-5.3518,-5.3518,-5.3518,-5.3518,-5.3433,-5.3179,-5.2486,-5.1809,-5.1166,-5.0642,-5.0016,-4.939,-4.9052,-4.9018,-4.9018,-4.9018,-4.9018,-4.9018,-4.9018,-4.9018,-4.9018,-4.9001,-4.8748,-4.846,-4.8088,-4.7534,-4.6769,-4.6194,-4.5602,-4.5026,-4.4722,-4.4716,-4.4598,-4.4598,-4.4581,-4.4547,-4.4479,-4.4231,-4.4062,-4.3707,-4.3071,-4.2016,-4.1068,-4.0629,-4.0197,-4.013,-4.013,-4.0113,-4.0113,-4.0113,-4.0113,-4.0113,-4.0113,-4.0113,-4.0113,-4.0113,-4.0113,-4.0113,-4.0113,-4.0113,-4.0113,-4.0113,-4.0113,-4.0113,-4.0113,-4.0113,-4.0113,-4.0113,-4.0113,-4.0113,-4.0113,-4.0113,-4.0113,-4.0113,-4.0138,-4.0188,-4.0255,-4.0362,-4.051,-4.0655,-4.0817,-4.1,-4.7225,-4.7208,-4.7208,-4.7242,-4.7242,-4.7242,-4.7564,-4.8071,-4.8108,-4.8413,-4.8832,-4.8984,-4.9018,-4.9001,-4.9103,-4.9255,-4.9424,-4.9661,-4.9915,-5.0219,-5.0287,-5.0676,-5.1014,-5.12,-5.1742,-5.2164,-5.2553,-5.2892,-5.3247,-5.3416,-5.3518,-5.3518,-5.3518,-5.3518,-5.3518,-5.3518,-5.3501,-5.3365,-5.2841,-5.2131,-5.1572,-5.0963,-5.0338,-4.9712,-4.9086,-4.9018,-4.9018,-4.9018,-4.9018,-4.9018,-4.9018,-4.9018,-4.9018,-4.9018,-4.9018,-4.9001,-4.8714,-4.8477,-4.7953,-4.7496,-4.6908,-4.6058,-4.5534,-4.5128,-4.4959,-4.4632,-4.4632,-4.4598,-4.4581,-4.4581,-4.4445,-4.4445,-4.413,-4.325,-4.2226,-4.1559,-4.1001,-4.0536,-4.0214,-4.0163,-4.0113,-4.0113,-4.0113,-4.0113,-4.0113,-4.0113,-4.0113,-4.0113,-4.0113,-4.0113,-4.0113,-4.0113,-4.0113,-4.0113,-4.0113,-4.0113,-4.0113,-4.0113,-4.0113,-4.0113,-4.0113,-4.0113,-4.0113,-4.0113,-4.0113,-4.0113,-4.0113,-4.0113,-4.0113,-4.0188,-4.0263,-4.0362,-4.051,-4.068,-4.0864]}]]